<?xml version="1.0" encoding="UTF-8" standalone="no" ?>
<gpx xmlns="http://www.topografix.com/GPX/1/1" xmlns:xsi="http://www.w3.org/2001/XMLSchema-instance" xsi:schemaLocation="http://www.topografix.com/GPX/1/1 http://www.topografix.com/GPX/1/1/gpx.xsd" version="1.1" creator="VisuGPX - https://www.visugpx.com">
  <metadata>
    <name>sortie mercredi partie sud Greoux tb poussette au 2/3 beaux singles 2021-06-02 13:24:19</name>
    <desc><![CDATA[File with points/tracks from Locus Map Pro/3.52.1]]></desc>
  </metadata>
  <trk>
    <name><![CDATA[sortie mercredi partie sud Greoux tb poussette au 2/3 beaux singles 2021-06-02 13:24:19]]></name>
    <extensions>
      <line xmlns="http://www.topografix.com/GPX/gpx_style/0/2">
        <color>0000FF</color>
        <opacity>0.59</opacity>
        <width>6.0</width>
      </line>
    </extensions>
    <trkseg>
      <trkpt lat="43.75024" lon="5.88037">
        <ele>295.43</ele>
        <time>2021-06-02T11:24:19.589Z</time>
      </trkpt>
      <trkpt lat="43.75012" lon="5.88031">
        <ele>289.06</ele>
        <time>2021-06-02T11:24:24.583Z</time>
      </trkpt>
      <trkpt lat="43.75023" lon="5.88038">
        <ele>294.31</ele>
        <time>2021-06-02T11:24:29.573Z</time>
      </trkpt>
      <trkpt lat="43.75027" lon="5.88025">
        <ele>298.98</ele>
        <time>2021-06-02T11:24:46.000Z</time>
      </trkpt>
      <trkpt lat="43.75035" lon="5.88011">
        <ele>297.6</ele>
        <time>2021-06-02T11:24:51.000Z</time>
      </trkpt>
      <trkpt lat="43.75041" lon="5.87999">
        <ele>296.4</ele>
        <time>2021-06-02T11:24:56.000Z</time>
      </trkpt>
      <trkpt lat="43.75052" lon="5.88003">
        <ele>297.9</ele>
        <time>2021-06-02T11:25:01.000Z</time>
      </trkpt>
      <trkpt lat="43.75059" lon="5.88011">
        <ele>298.33</ele>
        <time>2021-06-02T11:25:06.000Z</time>
      </trkpt>
      <trkpt lat="43.75063" lon="5.88023">
        <ele>298.34</ele>
        <time>2021-06-02T11:27:35.000Z</time>
      </trkpt>
      <trkpt lat="43.75069" lon="5.88032">
        <ele>297.34</ele>
        <time>2021-06-02T11:28:46.000Z</time>
      </trkpt>
      <trkpt lat="43.75076" lon="5.88045">
        <ele>299.96</ele>
        <time>2021-06-02T11:28:51.000Z</time>
      </trkpt>
      <trkpt lat="43.75085" lon="5.88057">
        <ele>302.27</ele>
        <time>2021-06-02T11:28:56.000Z</time>
      </trkpt>
      <trkpt lat="43.75095" lon="5.88074">
        <ele>301.37</ele>
        <time>2021-06-02T11:29:01.000Z</time>
      </trkpt>
      <trkpt lat="43.75104" lon="5.88087">
        <ele>299.6</ele>
        <time>2021-06-02T11:29:06.000Z</time>
      </trkpt>
      <trkpt lat="43.75111" lon="5.88097">
        <ele>300.33</ele>
        <time>2021-06-02T11:29:12.000Z</time>
      </trkpt>
      <trkpt lat="43.7512" lon="5.88103">
        <ele>300.29</ele>
        <time>2021-06-02T11:29:17.000Z</time>
      </trkpt>
      <trkpt lat="43.75121" lon="5.88118">
        <ele>301.38</ele>
        <time>2021-06-02T11:29:23.000Z</time>
      </trkpt>
      <trkpt lat="43.75117" lon="5.88131">
        <ele>302.32</ele>
        <time>2021-06-02T11:29:29.000Z</time>
      </trkpt>
      <trkpt lat="43.75113" lon="5.88144">
        <ele>303.27</ele>
        <time>2021-06-02T11:29:34.000Z</time>
      </trkpt>
      <trkpt lat="43.75108" lon="5.88157">
        <ele>305.08</ele>
        <time>2021-06-02T11:29:39.000Z</time>
      </trkpt>
      <trkpt lat="43.75109" lon="5.88169">
        <ele>305.63</ele>
        <time>2021-06-02T11:29:44.000Z</time>
      </trkpt>
      <trkpt lat="43.75118" lon="5.88175">
        <ele>305.14</ele>
        <time>2021-06-02T11:29:49.000Z</time>
      </trkpt>
      <trkpt lat="43.75129" lon="5.88177">
        <ele>306.07</ele>
        <time>2021-06-02T11:29:54.000Z</time>
      </trkpt>
      <trkpt lat="43.7514" lon="5.88182">
        <ele>307.33</ele>
        <time>2021-06-02T11:29:59.000Z</time>
      </trkpt>
      <trkpt lat="43.75154" lon="5.8819">
        <ele>307.34</ele>
        <time>2021-06-02T11:30:04.000Z</time>
      </trkpt>
      <trkpt lat="43.75167" lon="5.88195">
        <ele>306.15</ele>
        <time>2021-06-02T11:30:09.000Z</time>
      </trkpt>
      <trkpt lat="43.75177" lon="5.88203">
        <ele>308.08</ele>
        <time>2021-06-02T11:30:14.000Z</time>
      </trkpt>
      <trkpt lat="43.75192" lon="5.88222">
        <ele>307.35</ele>
        <time>2021-06-02T11:30:19.000Z</time>
      </trkpt>
      <trkpt lat="43.75195" lon="5.88245">
        <ele>306.15</ele>
        <time>2021-06-02T11:30:24.000Z</time>
      </trkpt>
      <trkpt lat="43.75192" lon="5.88273">
        <ele>304.35</ele>
        <time>2021-06-02T11:30:29.000Z</time>
      </trkpt>
      <trkpt lat="43.75188" lon="5.88301">
        <ele>301.4</ele>
        <time>2021-06-02T11:30:34.000Z</time>
      </trkpt>
      <trkpt lat="43.75193" lon="5.88337">
        <ele>301.29</ele>
        <time>2021-06-02T11:30:39.000Z</time>
      </trkpt>
      <trkpt lat="43.75202" lon="5.88365">
        <ele>301.39</ele>
        <time>2021-06-02T11:30:44.000Z</time>
      </trkpt>
      <trkpt lat="43.75209" lon="5.88394">
        <ele>300.57</ele>
        <time>2021-06-02T11:30:49.000Z</time>
      </trkpt>
      <trkpt lat="43.75218" lon="5.8842">
        <ele>300.52</ele>
        <time>2021-06-02T11:30:54.000Z</time>
      </trkpt>
      <trkpt lat="43.75227" lon="5.88447">
        <ele>299.34</ele>
        <time>2021-06-02T11:30:59.000Z</time>
      </trkpt>
      <trkpt lat="43.75235" lon="5.88475">
        <ele>297.1</ele>
        <time>2021-06-02T11:31:04.000Z</time>
      </trkpt>
      <trkpt lat="43.75244" lon="5.885">
        <ele>295.35</ele>
        <time>2021-06-02T11:31:09.000Z</time>
      </trkpt>
      <trkpt lat="43.75251" lon="5.88525">
        <ele>295.32</ele>
        <time>2021-06-02T11:31:14.000Z</time>
      </trkpt>
      <trkpt lat="43.75259" lon="5.88554">
        <ele>293.35</ele>
        <time>2021-06-02T11:31:19.000Z</time>
      </trkpt>
      <trkpt lat="43.75268" lon="5.88589">
        <ele>288.66</ele>
        <time>2021-06-02T11:31:24.000Z</time>
      </trkpt>
      <trkpt lat="43.75276" lon="5.88623">
        <ele>284.85</ele>
        <time>2021-06-02T11:31:29.000Z</time>
      </trkpt>
      <trkpt lat="43.75285" lon="5.88652">
        <ele>283.58</ele>
        <time>2021-06-02T11:31:34.000Z</time>
      </trkpt>
      <trkpt lat="43.75297" lon="5.88681">
        <ele>283.09</ele>
        <time>2021-06-02T11:31:39.000Z</time>
      </trkpt>
      <trkpt lat="43.75307" lon="5.88707">
        <ele>283.31</ele>
        <time>2021-06-02T11:31:44.000Z</time>
      </trkpt>
      <trkpt lat="43.75309" lon="5.88736">
        <ele>283.27</ele>
        <time>2021-06-02T11:31:49.000Z</time>
      </trkpt>
      <trkpt lat="43.75311" lon="5.88766">
        <ele>283.57</ele>
        <time>2021-06-02T11:31:54.000Z</time>
      </trkpt>
      <trkpt lat="43.75318" lon="5.8879">
        <ele>285.58</ele>
        <time>2021-06-02T11:31:59.000Z</time>
      </trkpt>
      <trkpt lat="43.75317" lon="5.88825">
        <ele>284.59</ele>
        <time>2021-06-02T11:32:04.000Z</time>
      </trkpt>
      <trkpt lat="43.75319" lon="5.8885">
        <ele>286.25</ele>
        <time>2021-06-02T11:32:09.000Z</time>
      </trkpt>
      <trkpt lat="43.75322" lon="5.88873">
        <ele>286.59</ele>
        <time>2021-06-02T11:32:14.000Z</time>
      </trkpt>
      <trkpt lat="43.75324" lon="5.88891">
        <ele>288.26</ele>
        <time>2021-06-02T11:32:19.000Z</time>
      </trkpt>
      <trkpt lat="43.75324" lon="5.88908">
        <ele>290.82</ele>
        <time>2021-06-02T11:32:24.000Z</time>
      </trkpt>
      <trkpt lat="43.75324" lon="5.88925">
        <ele>290.82</ele>
        <time>2021-06-02T11:32:29.000Z</time>
      </trkpt>
      <trkpt lat="43.75325" lon="5.88943">
        <ele>289.28</ele>
        <time>2021-06-02T11:32:34.000Z</time>
      </trkpt>
      <trkpt lat="43.7533" lon="5.88957">
        <ele>294.18</ele>
        <time>2021-06-02T11:32:39.000Z</time>
      </trkpt>
      <trkpt lat="43.7533" lon="5.88969">
        <ele>299</ele>
        <time>2021-06-02T11:32:44.000Z</time>
      </trkpt>
      <trkpt lat="43.75334" lon="5.88983">
        <ele>307.02</ele>
        <time>2021-06-02T11:32:50.000Z</time>
      </trkpt>
      <trkpt lat="43.75342" lon="5.88999">
        <ele>308.32</ele>
        <time>2021-06-02T11:32:55.000Z</time>
      </trkpt>
      <trkpt lat="43.75353" lon="5.89">
        <ele>311.01</ele>
        <time>2021-06-02T11:33:00.000Z</time>
      </trkpt>
      <trkpt lat="43.75366" lon="5.88996">
        <ele>315.8</ele>
        <time>2021-06-02T11:33:05.000Z</time>
      </trkpt>
      <trkpt lat="43.75381" lon="5.88993">
        <ele>317.32</ele>
        <time>2021-06-02T11:33:10.000Z</time>
      </trkpt>
      <trkpt lat="43.75396" lon="5.88991">
        <ele>318.31</ele>
        <time>2021-06-02T11:33:15.000Z</time>
      </trkpt>
      <trkpt lat="43.75412" lon="5.88991">
        <ele>318.32</ele>
        <time>2021-06-02T11:33:20.000Z</time>
      </trkpt>
      <trkpt lat="43.75427" lon="5.88995">
        <ele>320.26</ele>
        <time>2021-06-02T11:33:25.000Z</time>
      </trkpt>
      <trkpt lat="43.75437" lon="5.89018">
        <ele>320.33</ele>
        <time>2021-06-02T11:33:30.000Z</time>
      </trkpt>
      <trkpt lat="43.75443" lon="5.89039">
        <ele>318.59</ele>
        <time>2021-06-02T11:33:35.000Z</time>
      </trkpt>
      <trkpt lat="43.75448" lon="5.89062">
        <ele>318.31</ele>
        <time>2021-06-02T11:33:40.000Z</time>
      </trkpt>
      <trkpt lat="43.75457" lon="5.8908">
        <ele>316.15</ele>
        <time>2021-06-02T11:33:45.000Z</time>
      </trkpt>
      <trkpt lat="43.75471" lon="5.89089">
        <ele>317.98</ele>
        <time>2021-06-02T11:33:50.000Z</time>
      </trkpt>
      <trkpt lat="43.75486" lon="5.89086">
        <ele>318.32</ele>
        <time>2021-06-02T11:33:55.000Z</time>
      </trkpt>
      <trkpt lat="43.75501" lon="5.89079">
        <ele>320.32</ele>
        <time>2021-06-02T11:34:00.000Z</time>
      </trkpt>
      <trkpt lat="43.75516" lon="5.89074">
        <ele>322.31</ele>
        <time>2021-06-02T11:34:05.000Z</time>
      </trkpt>
      <trkpt lat="43.75529" lon="5.89069">
        <ele>326.05</ele>
        <time>2021-06-02T11:34:10.000Z</time>
      </trkpt>
      <trkpt lat="43.75545" lon="5.89061">
        <ele>328.3</ele>
        <time>2021-06-02T11:34:15.000Z</time>
      </trkpt>
      <trkpt lat="43.75556" lon="5.89052">
        <ele>332.99</ele>
        <time>2021-06-02T11:34:20.000Z</time>
      </trkpt>
      <trkpt lat="43.75568" lon="5.89044">
        <ele>336.05</ele>
        <time>2021-06-02T11:34:25.000Z</time>
      </trkpt>
      <trkpt lat="43.75589" lon="5.89036">
        <ele>333.39</ele>
        <time>2021-06-02T11:34:30.000Z</time>
      </trkpt>
      <trkpt lat="43.7561" lon="5.89034">
        <ele>331.33</ele>
        <time>2021-06-02T11:34:35.000Z</time>
      </trkpt>
      <trkpt lat="43.75629" lon="5.89028">
        <ele>330.32</ele>
        <time>2021-06-02T11:34:40.000Z</time>
      </trkpt>
      <trkpt lat="43.75646" lon="5.89017">
        <ele>330.33</ele>
        <time>2021-06-02T11:34:45.000Z</time>
      </trkpt>
      <trkpt lat="43.75663" lon="5.89002">
        <ele>330.32</ele>
        <time>2021-06-02T11:34:50.000Z</time>
      </trkpt>
      <trkpt lat="43.75678" lon="5.88984">
        <ele>330.56</ele>
        <time>2021-06-02T11:34:55.000Z</time>
      </trkpt>
      <trkpt lat="43.75689" lon="5.88964">
        <ele>332.06</ele>
        <time>2021-06-02T11:35:00.000Z</time>
      </trkpt>
      <trkpt lat="43.75702" lon="5.8894">
        <ele>331.13</ele>
        <time>2021-06-02T11:35:05.000Z</time>
      </trkpt>
      <trkpt lat="43.7571" lon="5.88927">
        <ele>332.45</ele>
        <time>2021-06-02T11:35:10.000Z</time>
      </trkpt>
      <trkpt lat="43.75721" lon="5.88913">
        <ele>334.04</ele>
        <time>2021-06-02T11:35:15.000Z</time>
      </trkpt>
      <trkpt lat="43.75727" lon="5.88895">
        <ele>335.26</ele>
        <time>2021-06-02T11:35:20.000Z</time>
      </trkpt>
      <trkpt lat="43.75733" lon="5.88875">
        <ele>334.43</ele>
        <time>2021-06-02T11:35:25.000Z</time>
      </trkpt>
      <trkpt lat="43.75739" lon="5.88855">
        <ele>333.28</ele>
        <time>2021-06-02T11:35:30.000Z</time>
      </trkpt>
      <trkpt lat="43.75745" lon="5.88839">
        <ele>334.51</ele>
        <time>2021-06-02T11:35:35.000Z</time>
      </trkpt>
      <trkpt lat="43.75755" lon="5.88822">
        <ele>336.94</ele>
        <time>2021-06-02T11:35:40.000Z</time>
      </trkpt>
      <trkpt lat="43.75763" lon="5.88809">
        <ele>340</ele>
        <time>2021-06-02T11:35:45.000Z</time>
      </trkpt>
      <trkpt lat="43.75774" lon="5.88796">
        <ele>341.31</ele>
        <time>2021-06-02T11:35:50.000Z</time>
      </trkpt>
      <trkpt lat="43.7579" lon="5.88788">
        <ele>340.43</ele>
        <time>2021-06-02T11:35:55.000Z</time>
      </trkpt>
      <trkpt lat="43.758" lon="5.88772">
        <ele>339.81</ele>
        <time>2021-06-02T11:36:00.000Z</time>
      </trkpt>
      <trkpt lat="43.75801" lon="5.88752">
        <ele>341.31</ele>
        <time>2021-06-02T11:36:05.000Z</time>
      </trkpt>
      <trkpt lat="43.75802" lon="5.88732">
        <ele>342.31</ele>
        <time>2021-06-02T11:36:10.000Z</time>
      </trkpt>
      <trkpt lat="43.75805" lon="5.88716">
        <ele>341.34</ele>
        <time>2021-06-02T11:36:15.000Z</time>
      </trkpt>
      <trkpt lat="43.7581" lon="5.88702">
        <ele>341.33</ele>
        <time>2021-06-02T11:36:25.000Z</time>
      </trkpt>
      <trkpt lat="43.75814" lon="5.88689">
        <ele>340.33</ele>
        <time>2021-06-02T11:36:30.000Z</time>
      </trkpt>
      <trkpt lat="43.75817" lon="5.88676">
        <ele>342.07</ele>
        <time>2021-06-02T11:36:37.000Z</time>
      </trkpt>
      <trkpt lat="43.75819" lon="5.88664">
        <ele>344.07</ele>
        <time>2021-06-02T11:36:42.000Z</time>
      </trkpt>
      <trkpt lat="43.75825" lon="5.88648">
        <ele>339.4</ele>
        <time>2021-06-02T11:36:47.000Z</time>
      </trkpt>
      <trkpt lat="43.75828" lon="5.88634">
        <ele>343.06</ele>
        <time>2021-06-02T11:36:54.000Z</time>
      </trkpt>
      <trkpt lat="43.7583" lon="5.8862">
        <ele>340.4</ele>
        <time>2021-06-02T11:37:00.000Z</time>
      </trkpt>
      <trkpt lat="43.75836" lon="5.88607">
        <ele>344.06</ele>
        <time>2021-06-02T11:37:06.000Z</time>
      </trkpt>
      <trkpt lat="43.75838" lon="5.88593">
        <ele>342.34</ele>
        <time>2021-06-02T11:37:11.000Z</time>
      </trkpt>
      <trkpt lat="43.7584" lon="5.88579">
        <ele>339.4</ele>
        <time>2021-06-02T11:37:16.000Z</time>
      </trkpt>
      <trkpt lat="43.75844" lon="5.88562">
        <ele>343.23</ele>
        <time>2021-06-02T11:37:21.000Z</time>
      </trkpt>
      <trkpt lat="43.75846" lon="5.88548">
        <ele>343.36</ele>
        <time>2021-06-02T11:37:26.000Z</time>
      </trkpt>
      <trkpt lat="43.75846" lon="5.88533">
        <ele>344.32</ele>
        <time>2021-06-02T11:37:32.000Z</time>
      </trkpt>
      <trkpt lat="43.75848" lon="5.88517">
        <ele>344.32</ele>
        <time>2021-06-02T11:37:37.000Z</time>
      </trkpt>
      <trkpt lat="43.75857" lon="5.88511">
        <ele>347.29</ele>
        <time>2021-06-02T11:37:42.000Z</time>
      </trkpt>
      <trkpt lat="43.75869" lon="5.88516">
        <ele>349.3</ele>
        <time>2021-06-02T11:37:47.000Z</time>
      </trkpt>
      <trkpt lat="43.7588" lon="5.88519">
        <ele>352.32</ele>
        <time>2021-06-02T11:37:52.000Z</time>
      </trkpt>
      <trkpt lat="43.75891" lon="5.8852">
        <ele>356.24</ele>
        <time>2021-06-02T11:37:57.000Z</time>
      </trkpt>
      <trkpt lat="43.759" lon="5.88522">
        <ele>360.24</ele>
        <time>2021-06-02T11:38:02.000Z</time>
      </trkpt>
      <trkpt lat="43.75913" lon="5.88525">
        <ele>360.31</ele>
        <time>2021-06-02T11:38:07.000Z</time>
      </trkpt>
      <trkpt lat="43.75925" lon="5.88529">
        <ele>360.32</ele>
        <time>2021-06-02T11:38:12.000Z</time>
      </trkpt>
      <trkpt lat="43.75937" lon="5.8853">
        <ele>361.32</ele>
        <time>2021-06-02T11:38:17.000Z</time>
      </trkpt>
      <trkpt lat="43.7595" lon="5.88537">
        <ele>362</ele>
        <time>2021-06-02T11:38:22.000Z</time>
      </trkpt>
      <trkpt lat="43.75963" lon="5.88541">
        <ele>361.33</ele>
        <time>2021-06-02T11:38:27.000Z</time>
      </trkpt>
      <trkpt lat="43.75975" lon="5.88545">
        <ele>361.32</ele>
        <time>2021-06-02T11:38:32.000Z</time>
      </trkpt>
      <trkpt lat="43.75985" lon="5.88549">
        <ele>365.22</ele>
        <time>2021-06-02T11:38:37.000Z</time>
      </trkpt>
      <trkpt lat="43.75995" lon="5.88551">
        <ele>366.12</ele>
        <time>2021-06-02T11:38:42.000Z</time>
      </trkpt>
      <trkpt lat="43.76007" lon="5.88553">
        <ele>367.07</ele>
        <time>2021-06-02T11:38:47.000Z</time>
      </trkpt>
      <trkpt lat="43.76019" lon="5.88554">
        <ele>368.07</ele>
        <time>2021-06-02T11:38:52.000Z</time>
      </trkpt>
      <trkpt lat="43.76032" lon="5.88554">
        <ele>368.32</ele>
        <time>2021-06-02T11:38:57.000Z</time>
      </trkpt>
      <trkpt lat="43.76044" lon="5.88553">
        <ele>369.31</ele>
        <time>2021-06-02T11:39:02.000Z</time>
      </trkpt>
      <trkpt lat="43.76056" lon="5.88551">
        <ele>368.38</ele>
        <time>2021-06-02T11:39:07.000Z</time>
      </trkpt>
      <trkpt lat="43.76067" lon="5.88547">
        <ele>370.05</ele>
        <time>2021-06-02T11:39:12.000Z</time>
      </trkpt>
      <trkpt lat="43.76076" lon="5.88541">
        <ele>373.05</ele>
        <time>2021-06-02T11:39:17.000Z</time>
      </trkpt>
      <trkpt lat="43.76084" lon="5.88534">
        <ele>377.05</ele>
        <time>2021-06-02T11:39:22.000Z</time>
      </trkpt>
      <trkpt lat="43.76093" lon="5.88526">
        <ele>379.25</ele>
        <time>2021-06-02T11:39:27.000Z</time>
      </trkpt>
      <trkpt lat="43.76101" lon="5.88517">
        <ele>381.07</ele>
        <time>2021-06-02T11:39:32.000Z</time>
      </trkpt>
      <trkpt lat="43.76111" lon="5.88508">
        <ele>382.5</ele>
        <time>2021-06-02T11:39:37.000Z</time>
      </trkpt>
      <trkpt lat="43.7612" lon="5.88495">
        <ele>382.07</ele>
        <time>2021-06-02T11:39:42.000Z</time>
      </trkpt>
      <trkpt lat="43.76127" lon="5.88483">
        <ele>382.07</ele>
        <time>2021-06-02T11:39:47.000Z</time>
      </trkpt>
      <trkpt lat="43.76133" lon="5.88469">
        <ele>381.32</ele>
        <time>2021-06-02T11:39:52.000Z</time>
      </trkpt>
      <trkpt lat="43.76141" lon="5.88456">
        <ele>380.35</ele>
        <time>2021-06-02T11:39:57.000Z</time>
      </trkpt>
      <trkpt lat="43.76148" lon="5.88442">
        <ele>379.32</ele>
        <time>2021-06-02T11:40:02.000Z</time>
      </trkpt>
      <trkpt lat="43.76155" lon="5.88429">
        <ele>380.31</ele>
        <time>2021-06-02T11:40:07.000Z</time>
      </trkpt>
      <trkpt lat="43.76162" lon="5.88417">
        <ele>381.32</ele>
        <time>2021-06-02T11:40:12.000Z</time>
      </trkpt>
      <trkpt lat="43.76168" lon="5.88405">
        <ele>382.27</ele>
        <time>2021-06-02T11:40:17.000Z</time>
      </trkpt>
      <trkpt lat="43.76173" lon="5.88393">
        <ele>384.26</ele>
        <time>2021-06-02T11:40:22.000Z</time>
      </trkpt>
      <trkpt lat="43.76181" lon="5.88381">
        <ele>384.07</ele>
        <time>2021-06-02T11:40:27.000Z</time>
      </trkpt>
      <trkpt lat="43.76189" lon="5.88372">
        <ele>386.06</ele>
        <time>2021-06-02T11:40:32.000Z</time>
      </trkpt>
      <trkpt lat="43.76199" lon="5.88362">
        <ele>387.32</ele>
        <time>2021-06-02T11:40:37.000Z</time>
      </trkpt>
      <trkpt lat="43.76209" lon="5.88353">
        <ele>387.32</ele>
        <time>2021-06-02T11:40:42.000Z</time>
      </trkpt>
      <trkpt lat="43.76222" lon="5.88346">
        <ele>386.33</ele>
        <time>2021-06-02T11:40:47.000Z</time>
      </trkpt>
      <trkpt lat="43.76239" lon="5.88333">
        <ele>388.3</ele>
        <time>2021-06-02T11:40:52.000Z</time>
      </trkpt>
      <trkpt lat="43.76258" lon="5.88317">
        <ele>387.57</ele>
        <time>2021-06-02T11:40:57.000Z</time>
      </trkpt>
      <trkpt lat="43.76276" lon="5.88302">
        <ele>388.08</ele>
        <time>2021-06-02T11:41:02.000Z</time>
      </trkpt>
      <trkpt lat="43.76297" lon="5.88297">
        <ele>387.09</ele>
        <time>2021-06-02T11:41:07.000Z</time>
      </trkpt>
      <trkpt lat="43.76315" lon="5.8829">
        <ele>385.69</ele>
        <time>2021-06-02T11:41:12.000Z</time>
      </trkpt>
      <trkpt lat="43.7633" lon="5.88283">
        <ele>389.98</ele>
        <time>2021-06-02T11:41:17.000Z</time>
      </trkpt>
      <trkpt lat="43.7635" lon="5.88276">
        <ele>390.55</ele>
        <time>2021-06-02T11:41:22.000Z</time>
      </trkpt>
      <trkpt lat="43.76372" lon="5.88271">
        <ele>386.69</ele>
        <time>2021-06-02T11:41:27.000Z</time>
      </trkpt>
      <trkpt lat="43.76391" lon="5.88274">
        <ele>384.59</ele>
        <time>2021-06-02T11:41:32.000Z</time>
      </trkpt>
      <trkpt lat="43.76414" lon="5.88273">
        <ele>383.66</ele>
        <time>2021-06-02T11:41:37.000Z</time>
      </trkpt>
      <trkpt lat="43.76439" lon="5.8827">
        <ele>381.51</ele>
        <time>2021-06-02T11:41:42.000Z</time>
      </trkpt>
      <trkpt lat="43.76463" lon="5.88272">
        <ele>381.06</ele>
        <time>2021-06-02T11:41:47.000Z</time>
      </trkpt>
      <trkpt lat="43.76479" lon="5.88289">
        <ele>382.24</ele>
        <time>2021-06-02T11:41:52.000Z</time>
      </trkpt>
      <trkpt lat="43.76495" lon="5.88301">
        <ele>385.3</ele>
        <time>2021-06-02T11:41:57.000Z</time>
      </trkpt>
      <trkpt lat="43.76512" lon="5.8831">
        <ele>386.32</ele>
        <time>2021-06-02T11:42:02.000Z</time>
      </trkpt>
      <trkpt lat="43.7653" lon="5.88315">
        <ele>388.07</ele>
        <time>2021-06-02T11:42:07.000Z</time>
      </trkpt>
      <trkpt lat="43.76551" lon="5.8832">
        <ele>389.49</ele>
        <time>2021-06-02T11:42:12.000Z</time>
      </trkpt>
      <trkpt lat="43.76574" lon="5.88324">
        <ele>388.13</ele>
        <time>2021-06-02T11:42:17.000Z</time>
      </trkpt>
      <trkpt lat="43.766" lon="5.88323">
        <ele>388.32</ele>
        <time>2021-06-02T11:42:22.000Z</time>
      </trkpt>
      <trkpt lat="43.76626" lon="5.88316">
        <ele>386.44</ele>
        <time>2021-06-02T11:42:27.000Z</time>
      </trkpt>
      <trkpt lat="43.76646" lon="5.88307">
        <ele>388.06</ele>
        <time>2021-06-02T11:42:32.000Z</time>
      </trkpt>
      <trkpt lat="43.76665" lon="5.88291">
        <ele>385.4</ele>
        <time>2021-06-02T11:42:37.000Z</time>
      </trkpt>
      <trkpt lat="43.76678" lon="5.88268">
        <ele>385.36</ele>
        <time>2021-06-02T11:42:42.000Z</time>
      </trkpt>
      <trkpt lat="43.76692" lon="5.88243">
        <ele>378.91</ele>
        <time>2021-06-02T11:42:47.000Z</time>
      </trkpt>
      <trkpt lat="43.76713" lon="5.88235">
        <ele>377.52</ele>
        <time>2021-06-02T11:42:52.000Z</time>
      </trkpt>
      <trkpt lat="43.76732" lon="5.88238">
        <ele>383.98</ele>
        <time>2021-06-02T11:42:57.000Z</time>
      </trkpt>
      <trkpt lat="43.76746" lon="5.88236">
        <ele>388.05</ele>
        <time>2021-06-02T11:43:02.000Z</time>
      </trkpt>
      <trkpt lat="43.76765" lon="5.88233">
        <ele>389.28</ele>
        <time>2021-06-02T11:43:07.000Z</time>
      </trkpt>
      <trkpt lat="43.76783" lon="5.88234">
        <ele>390.5</ele>
        <time>2021-06-02T11:43:12.000Z</time>
      </trkpt>
      <trkpt lat="43.768" lon="5.88236">
        <ele>390.32</ele>
        <time>2021-06-02T11:43:17.000Z</time>
      </trkpt>
      <trkpt lat="43.76818" lon="5.88239">
        <ele>388.53</ele>
        <time>2021-06-02T11:43:22.000Z</time>
      </trkpt>
      <trkpt lat="43.76835" lon="5.88251">
        <ele>387.32</ele>
        <time>2021-06-02T11:43:27.000Z</time>
      </trkpt>
      <trkpt lat="43.76852" lon="5.88264">
        <ele>387.31</ele>
        <time>2021-06-02T11:43:32.000Z</time>
      </trkpt>
      <trkpt lat="43.76869" lon="5.88275">
        <ele>387.31</ele>
        <time>2021-06-02T11:43:37.000Z</time>
      </trkpt>
      <trkpt lat="43.76887" lon="5.88283">
        <ele>386.58</ele>
        <time>2021-06-02T11:43:42.000Z</time>
      </trkpt>
      <trkpt lat="43.76901" lon="5.88289">
        <ele>388.3</ele>
        <time>2021-06-02T11:43:47.000Z</time>
      </trkpt>
      <trkpt lat="43.76914" lon="5.88294">
        <ele>390.25</ele>
        <time>2021-06-02T11:43:52.000Z</time>
      </trkpt>
      <trkpt lat="43.76927" lon="5.88301">
        <ele>391.31</ele>
        <time>2021-06-02T11:43:57.000Z</time>
      </trkpt>
      <trkpt lat="43.76942" lon="5.88309">
        <ele>391.36</ele>
        <time>2021-06-02T11:44:02.000Z</time>
      </trkpt>
      <trkpt lat="43.76955" lon="5.88316">
        <ele>394.23</ele>
        <time>2021-06-02T11:44:07.000Z</time>
      </trkpt>
      <trkpt lat="43.76971" lon="5.88324">
        <ele>392.26</ele>
        <time>2021-06-02T11:44:12.000Z</time>
      </trkpt>
      <trkpt lat="43.76987" lon="5.88331">
        <ele>391.36</ele>
        <time>2021-06-02T11:44:17.000Z</time>
      </trkpt>
      <trkpt lat="43.77003" lon="5.88331">
        <ele>393.05</ele>
        <time>2021-06-02T11:44:22.000Z</time>
      </trkpt>
      <trkpt lat="43.77017" lon="5.88326">
        <ele>394.5</ele>
        <time>2021-06-02T11:44:27.000Z</time>
      </trkpt>
      <trkpt lat="43.77029" lon="5.88321">
        <ele>396.25</ele>
        <time>2021-06-02T11:44:32.000Z</time>
      </trkpt>
      <trkpt lat="43.7704" lon="5.88316">
        <ele>399.05</ele>
        <time>2021-06-02T11:44:37.000Z</time>
      </trkpt>
      <trkpt lat="43.77049" lon="5.8831">
        <ele>402.24</ele>
        <time>2021-06-02T11:44:42.000Z</time>
      </trkpt>
      <trkpt lat="43.77058" lon="5.88304">
        <ele>404.31</ele>
        <time>2021-06-02T11:44:47.000Z</time>
      </trkpt>
      <trkpt lat="43.77068" lon="5.883">
        <ele>407.99</ele>
        <time>2021-06-02T11:44:52.000Z</time>
      </trkpt>
      <trkpt lat="43.77079" lon="5.88297">
        <ele>411.03</ele>
        <time>2021-06-02T11:44:57.000Z</time>
      </trkpt>
      <trkpt lat="43.77089" lon="5.8829">
        <ele>412.11</ele>
        <time>2021-06-02T11:45:02.000Z</time>
      </trkpt>
      <trkpt lat="43.77101" lon="5.88282">
        <ele>412.5</ele>
        <time>2021-06-02T11:45:07.000Z</time>
      </trkpt>
      <trkpt lat="43.7711" lon="5.88274">
        <ele>414.06</ele>
        <time>2021-06-02T11:45:12.000Z</time>
      </trkpt>
      <trkpt lat="43.77129" lon="5.88272">
        <ele>408.85</ele>
        <time>2021-06-02T11:45:17.000Z</time>
      </trkpt>
      <trkpt lat="43.77143" lon="5.88275">
        <ele>406.37</ele>
        <time>2021-06-02T11:45:22.000Z</time>
      </trkpt>
      <trkpt lat="43.77156" lon="5.88276">
        <ele>407.25</ele>
        <time>2021-06-02T11:45:27.000Z</time>
      </trkpt>
      <trkpt lat="43.77168" lon="5.88276">
        <ele>408.25</ele>
        <time>2021-06-02T11:45:32.000Z</time>
      </trkpt>
      <trkpt lat="43.77182" lon="5.88279">
        <ele>407.37</ele>
        <time>2021-06-02T11:45:37.000Z</time>
      </trkpt>
      <trkpt lat="43.77194" lon="5.88286">
        <ele>406.12</ele>
        <time>2021-06-02T11:45:42.000Z</time>
      </trkpt>
      <trkpt lat="43.77208" lon="5.88295">
        <ele>404.56</ele>
        <time>2021-06-02T11:45:47.000Z</time>
      </trkpt>
      <trkpt lat="43.77219" lon="5.88303">
        <ele>405.06</ele>
        <time>2021-06-02T11:45:52.000Z</time>
      </trkpt>
      <trkpt lat="43.7723" lon="5.88309">
        <ele>405.31</ele>
        <time>2021-06-02T11:45:57.000Z</time>
      </trkpt>
      <trkpt lat="43.77243" lon="5.88311">
        <ele>405.51</ele>
        <time>2021-06-02T11:46:02.000Z</time>
      </trkpt>
      <trkpt lat="43.77256" lon="5.8831">
        <ele>406.07</ele>
        <time>2021-06-02T11:46:07.000Z</time>
      </trkpt>
      <trkpt lat="43.77267" lon="5.88307">
        <ele>408.05</ele>
        <time>2021-06-02T11:46:12.000Z</time>
      </trkpt>
      <trkpt lat="43.77279" lon="5.88307">
        <ele>408.31</ele>
        <time>2021-06-02T11:46:17.000Z</time>
      </trkpt>
      <trkpt lat="43.77289" lon="5.88307">
        <ele>410.25</ele>
        <time>2021-06-02T11:46:22.000Z</time>
      </trkpt>
      <trkpt lat="43.773" lon="5.88305">
        <ele>411.06</ele>
        <time>2021-06-02T11:46:27.000Z</time>
      </trkpt>
      <trkpt lat="43.7731" lon="5.88303">
        <ele>412.29</ele>
        <time>2021-06-02T11:46:32.000Z</time>
      </trkpt>
      <trkpt lat="43.77321" lon="5.88302">
        <ele>414.06</ele>
        <time>2021-06-02T11:46:37.000Z</time>
      </trkpt>
      <trkpt lat="43.77332" lon="5.88301">
        <ele>417.29</ele>
        <time>2021-06-02T11:46:42.000Z</time>
      </trkpt>
      <trkpt lat="43.77346" lon="5.88303">
        <ele>418.48</ele>
        <time>2021-06-02T11:46:47.000Z</time>
      </trkpt>
      <trkpt lat="43.77361" lon="5.88311">
        <ele>415.52</ele>
        <time>2021-06-02T11:46:52.000Z</time>
      </trkpt>
      <trkpt lat="43.77372" lon="5.88326">
        <ele>415.31</ele>
        <time>2021-06-02T11:46:57.000Z</time>
      </trkpt>
      <trkpt lat="43.77381" lon="5.88332">
        <ele>417.99</ele>
        <time>2021-06-02T11:47:02.000Z</time>
      </trkpt>
      <trkpt lat="43.77391" lon="5.88337">
        <ele>420.06</ele>
        <time>2021-06-02T11:47:07.000Z</time>
      </trkpt>
      <trkpt lat="43.77401" lon="5.88345">
        <ele>420.3</ele>
        <time>2021-06-02T11:47:12.000Z</time>
      </trkpt>
      <trkpt lat="43.77414" lon="5.88355">
        <ele>418.56</ele>
        <time>2021-06-02T11:47:17.000Z</time>
      </trkpt>
      <trkpt lat="43.77424" lon="5.88363">
        <ele>418.12</ele>
        <time>2021-06-02T11:47:22.000Z</time>
      </trkpt>
      <trkpt lat="43.77434" lon="5.8837">
        <ele>419.3</ele>
        <time>2021-06-02T11:47:27.000Z</time>
      </trkpt>
      <trkpt lat="43.77445" lon="5.88375">
        <ele>420.24</ele>
        <time>2021-06-02T11:47:32.000Z</time>
      </trkpt>
      <trkpt lat="43.77455" lon="5.88381">
        <ele>420.37</ele>
        <time>2021-06-02T11:47:37.000Z</time>
      </trkpt>
      <trkpt lat="43.77466" lon="5.88385">
        <ele>420.31</ele>
        <time>2021-06-02T11:47:42.000Z</time>
      </trkpt>
      <trkpt lat="43.77479" lon="5.88388">
        <ele>420.3</ele>
        <time>2021-06-02T11:47:47.000Z</time>
      </trkpt>
      <trkpt lat="43.77489" lon="5.88385">
        <ele>424.29</ele>
        <time>2021-06-02T11:47:52.000Z</time>
      </trkpt>
      <trkpt lat="43.77501" lon="5.88385">
        <ele>426.18</ele>
        <time>2021-06-02T11:47:57.000Z</time>
      </trkpt>
      <trkpt lat="43.77513" lon="5.88387">
        <ele>428.99</ele>
        <time>2021-06-02T11:48:02.000Z</time>
      </trkpt>
      <trkpt lat="43.77525" lon="5.88391">
        <ele>427.31</ele>
        <time>2021-06-02T11:48:07.000Z</time>
      </trkpt>
      <trkpt lat="43.77537" lon="5.88396">
        <ele>426.37</ele>
        <time>2021-06-02T11:48:12.000Z</time>
      </trkpt>
      <trkpt lat="43.77548" lon="5.88403">
        <ele>427.3</ele>
        <time>2021-06-02T11:48:17.000Z</time>
      </trkpt>
      <trkpt lat="43.77556" lon="5.88412">
        <ele>429.18</ele>
        <time>2021-06-02T11:48:22.000Z</time>
      </trkpt>
      <trkpt lat="43.77564" lon="5.88421">
        <ele>429.3</ele>
        <time>2021-06-02T11:48:27.000Z</time>
      </trkpt>
      <trkpt lat="43.77573" lon="5.88428">
        <ele>431.24</ele>
        <time>2021-06-02T11:48:32.000Z</time>
      </trkpt>
      <trkpt lat="43.77582" lon="5.88434">
        <ele>432.3</ele>
        <time>2021-06-02T11:48:37.000Z</time>
      </trkpt>
      <trkpt lat="43.77591" lon="5.88439">
        <ele>436.04</ele>
        <time>2021-06-02T11:48:42.000Z</time>
      </trkpt>
      <trkpt lat="43.77601" lon="5.88445">
        <ele>438</ele>
        <time>2021-06-02T11:48:47.000Z</time>
      </trkpt>
      <trkpt lat="43.77611" lon="5.88451">
        <ele>438.3</ele>
        <time>2021-06-02T11:48:52.000Z</time>
      </trkpt>
      <trkpt lat="43.77622" lon="5.88462">
        <ele>437.56</ele>
        <time>2021-06-02T11:48:57.000Z</time>
      </trkpt>
      <trkpt lat="43.7763" lon="5.88468">
        <ele>440.04</ele>
        <time>2021-06-02T11:49:02.000Z</time>
      </trkpt>
      <trkpt lat="43.77641" lon="5.88475">
        <ele>440.24</ele>
        <time>2021-06-02T11:49:07.000Z</time>
      </trkpt>
      <trkpt lat="43.77652" lon="5.88481">
        <ele>439.35</ele>
        <time>2021-06-02T11:49:12.000Z</time>
      </trkpt>
      <trkpt lat="43.77662" lon="5.88488">
        <ele>440.3</ele>
        <time>2021-06-02T11:49:17.000Z</time>
      </trkpt>
      <trkpt lat="43.77672" lon="5.88493">
        <ele>442.11</ele>
        <time>2021-06-02T11:49:22.000Z</time>
      </trkpt>
      <trkpt lat="43.77683" lon="5.88497">
        <ele>443.07</ele>
        <time>2021-06-02T11:49:28.000Z</time>
      </trkpt>
      <trkpt lat="43.77692" lon="5.88502">
        <ele>444.29</ele>
        <time>2021-06-02T11:49:33.000Z</time>
      </trkpt>
      <trkpt lat="43.777" lon="5.88508">
        <ele>446.28</ele>
        <time>2021-06-02T11:49:38.000Z</time>
      </trkpt>
      <trkpt lat="43.77708" lon="5.88516">
        <ele>447.05</ele>
        <time>2021-06-02T11:49:43.000Z</time>
      </trkpt>
      <trkpt lat="43.77716" lon="5.88526">
        <ele>446.56</ele>
        <time>2021-06-02T11:49:48.000Z</time>
      </trkpt>
      <trkpt lat="43.77722" lon="5.88536">
        <ele>447.99</ele>
        <time>2021-06-02T11:49:53.000Z</time>
      </trkpt>
      <trkpt lat="43.77729" lon="5.88546">
        <ele>449.24</ele>
        <time>2021-06-02T11:49:58.000Z</time>
      </trkpt>
      <trkpt lat="43.77736" lon="5.88559">
        <ele>452.17</ele>
        <time>2021-06-02T11:50:04.000Z</time>
      </trkpt>
      <trkpt lat="43.77739" lon="5.88573">
        <ele>453.35</ele>
        <time>2021-06-02T11:50:09.000Z</time>
      </trkpt>
      <trkpt lat="43.77745" lon="5.88587">
        <ele>450.56</ele>
        <time>2021-06-02T11:50:14.000Z</time>
      </trkpt>
      <trkpt lat="43.77749" lon="5.88603">
        <ele>450.3</ele>
        <time>2021-06-02T11:50:19.000Z</time>
      </trkpt>
      <trkpt lat="43.77752" lon="5.88618">
        <ele>447.5</ele>
        <time>2021-06-02T11:50:24.000Z</time>
      </trkpt>
      <trkpt lat="43.77757" lon="5.8863">
        <ele>450.91</ele>
        <time>2021-06-02T11:50:30.000Z</time>
      </trkpt>
      <trkpt lat="43.77762" lon="5.88641">
        <ele>451.53</ele>
        <time>2021-06-02T11:50:35.000Z</time>
      </trkpt>
      <trkpt lat="43.77766" lon="5.88655">
        <ele>454.28</ele>
        <time>2021-06-02T11:50:41.000Z</time>
      </trkpt>
      <trkpt lat="43.77771" lon="5.88669">
        <ele>455.24</ele>
        <time>2021-06-02T11:50:46.000Z</time>
      </trkpt>
      <trkpt lat="43.77778" lon="5.88681">
        <ele>454.38</ele>
        <time>2021-06-02T11:50:51.000Z</time>
      </trkpt>
      <trkpt lat="43.77786" lon="5.88689">
        <ele>457.03</ele>
        <time>2021-06-02T11:50:57.000Z</time>
      </trkpt>
      <trkpt lat="43.77795" lon="5.88693">
        <ele>457.1</ele>
        <time>2021-06-02T11:51:02.000Z</time>
      </trkpt>
      <trkpt lat="43.77806" lon="5.88694">
        <ele>457.3</ele>
        <time>2021-06-02T11:51:07.000Z</time>
      </trkpt>
      <trkpt lat="43.77816" lon="5.88692">
        <ele>457.31</ele>
        <time>2021-06-02T11:51:12.000Z</time>
      </trkpt>
      <trkpt lat="43.77827" lon="5.88692">
        <ele>458.53</ele>
        <time>2021-06-02T11:51:18.000Z</time>
      </trkpt>
      <trkpt lat="43.77837" lon="5.88693">
        <ele>458.3</ele>
        <time>2021-06-02T11:51:23.000Z</time>
      </trkpt>
      <trkpt lat="43.77847" lon="5.88689">
        <ele>461.23</ele>
        <time>2021-06-02T11:51:29.000Z</time>
      </trkpt>
      <trkpt lat="43.77855" lon="5.88683">
        <ele>463.34</ele>
        <time>2021-06-02T11:51:35.000Z</time>
      </trkpt>
      <trkpt lat="43.77862" lon="5.88674">
        <ele>464.29</ele>
        <time>2021-06-02T11:51:40.000Z</time>
      </trkpt>
      <trkpt lat="43.77869" lon="5.88664">
        <ele>463.54</ele>
        <time>2021-06-02T11:51:45.000Z</time>
      </trkpt>
      <trkpt lat="43.77876" lon="5.88654">
        <ele>464.3</ele>
        <time>2021-06-02T11:51:50.000Z</time>
      </trkpt>
      <trkpt lat="43.77884" lon="5.88645">
        <ele>465.28</ele>
        <time>2021-06-02T11:51:56.000Z</time>
      </trkpt>
      <trkpt lat="43.77893" lon="5.88638">
        <ele>469.23</ele>
        <time>2021-06-02T11:52:03.000Z</time>
      </trkpt>
      <trkpt lat="43.77902" lon="5.88633">
        <ele>469.3</ele>
        <time>2021-06-02T11:52:08.000Z</time>
      </trkpt>
      <trkpt lat="43.7791" lon="5.88626">
        <ele>474.2</ele>
        <time>2021-06-02T11:52:15.000Z</time>
      </trkpt>
      <trkpt lat="43.7792" lon="5.88618">
        <ele>473.33</ele>
        <time>2021-06-02T11:52:20.000Z</time>
      </trkpt>
      <trkpt lat="43.77926" lon="5.88608">
        <ele>473.1</ele>
        <time>2021-06-02T11:52:25.000Z</time>
      </trkpt>
      <trkpt lat="43.77933" lon="5.88597">
        <ele>475.11</ele>
        <time>2021-06-02T11:52:31.000Z</time>
      </trkpt>
      <trkpt lat="43.77942" lon="5.88588">
        <ele>475.11</ele>
        <time>2021-06-02T11:52:36.000Z</time>
      </trkpt>
      <trkpt lat="43.77951" lon="5.8858">
        <ele>478.22</ele>
        <time>2021-06-02T11:52:42.000Z</time>
      </trkpt>
      <trkpt lat="43.7796" lon="5.88575">
        <ele>479.29</ele>
        <time>2021-06-02T11:52:47.000Z</time>
      </trkpt>
      <trkpt lat="43.77973" lon="5.8857">
        <ele>477.52</ele>
        <time>2021-06-02T11:52:52.000Z</time>
      </trkpt>
      <trkpt lat="43.77983" lon="5.88566">
        <ele>478.28</ele>
        <time>2021-06-02T11:52:57.000Z</time>
      </trkpt>
      <trkpt lat="43.77991" lon="5.88558">
        <ele>480.22</ele>
        <time>2021-06-02T11:53:03.000Z</time>
      </trkpt>
      <trkpt lat="43.77999" lon="5.88551">
        <ele>481.05</ele>
        <time>2021-06-02T11:53:08.000Z</time>
      </trkpt>
      <trkpt lat="43.78008" lon="5.88544">
        <ele>480.3</ele>
        <time>2021-06-02T11:53:13.000Z</time>
      </trkpt>
      <trkpt lat="43.78017" lon="5.88539">
        <ele>483.23</ele>
        <time>2021-06-02T11:53:19.000Z</time>
      </trkpt>
      <trkpt lat="43.78026" lon="5.88534">
        <ele>484.99</ele>
        <time>2021-06-02T11:53:24.000Z</time>
      </trkpt>
      <trkpt lat="43.78035" lon="5.88529">
        <ele>489.02</ele>
        <time>2021-06-02T11:53:30.000Z</time>
      </trkpt>
      <trkpt lat="43.78045" lon="5.88525">
        <ele>489.3</ele>
        <time>2021-06-02T11:53:36.000Z</time>
      </trkpt>
      <trkpt lat="43.78055" lon="5.8852">
        <ele>491.29</ele>
        <time>2021-06-02T11:53:43.000Z</time>
      </trkpt>
      <trkpt lat="43.78063" lon="5.88516">
        <ele>493.28</ele>
        <time>2021-06-02T11:53:49.000Z</time>
      </trkpt>
      <trkpt lat="43.78073" lon="5.8851">
        <ele>495.03</ele>
        <time>2021-06-02T11:53:55.000Z</time>
      </trkpt>
      <trkpt lat="43.78082" lon="5.88505">
        <ele>497.22</ele>
        <time>2021-06-02T11:54:01.000Z</time>
      </trkpt>
      <trkpt lat="43.78092" lon="5.885">
        <ele>496.18</ele>
        <time>2021-06-02T11:54:06.000Z</time>
      </trkpt>
      <trkpt lat="43.78102" lon="5.88497">
        <ele>494.3</ele>
        <time>2021-06-02T11:54:11.000Z</time>
      </trkpt>
      <trkpt lat="43.78111" lon="5.88494">
        <ele>495.81</ele>
        <time>2021-06-02T11:54:17.000Z</time>
      </trkpt>
      <trkpt lat="43.7812" lon="5.88494">
        <ele>498.23</ele>
        <time>2021-06-02T11:54:24.000Z</time>
      </trkpt>
      <trkpt lat="43.7813" lon="5.88495">
        <ele>499.3</ele>
        <time>2021-06-02T11:54:30.000Z</time>
      </trkpt>
      <trkpt lat="43.7814" lon="5.88496">
        <ele>501.03</ele>
        <time>2021-06-02T11:54:37.000Z</time>
      </trkpt>
      <trkpt lat="43.78149" lon="5.88494">
        <ele>503.23</ele>
        <time>2021-06-02T11:54:45.000Z</time>
      </trkpt>
      <trkpt lat="43.78159" lon="5.8849">
        <ele>506.05</ele>
        <time>2021-06-02T11:54:53.000Z</time>
      </trkpt>
      <trkpt lat="43.78169" lon="5.88487">
        <ele>506.3</ele>
        <time>2021-06-02T11:55:00.000Z</time>
      </trkpt>
      <trkpt lat="43.78178" lon="5.88485">
        <ele>507.25</ele>
        <time>2021-06-02T11:55:06.000Z</time>
      </trkpt>
      <trkpt lat="43.78188" lon="5.88482">
        <ele>510.04</ele>
        <time>2021-06-02T11:55:13.000Z</time>
      </trkpt>
      <trkpt lat="43.78197" lon="5.88478">
        <ele>512.05</ele>
        <time>2021-06-02T11:55:21.000Z</time>
      </trkpt>
      <trkpt lat="43.78206" lon="5.88472">
        <ele>511.11</ele>
        <time>2021-06-02T11:55:26.000Z</time>
      </trkpt>
      <trkpt lat="43.78214" lon="5.88462">
        <ele>511.3</ele>
        <time>2021-06-02T11:55:32.000Z</time>
      </trkpt>
      <trkpt lat="43.78221" lon="5.88452">
        <ele>511.3</ele>
        <time>2021-06-02T11:55:37.000Z</time>
      </trkpt>
      <trkpt lat="43.78227" lon="5.88441">
        <ele>511.3</ele>
        <time>2021-06-02T11:55:42.000Z</time>
      </trkpt>
      <trkpt lat="43.78234" lon="5.88432">
        <ele>511.3</ele>
        <time>2021-06-02T11:55:47.000Z</time>
      </trkpt>
      <trkpt lat="43.78242" lon="5.88423">
        <ele>512.3</ele>
        <time>2021-06-02T11:55:52.000Z</time>
      </trkpt>
      <trkpt lat="43.78249" lon="5.88416">
        <ele>513.05</ele>
        <time>2021-06-02T11:55:57.000Z</time>
      </trkpt>
      <trkpt lat="43.78257" lon="5.88408">
        <ele>513.28</ele>
        <time>2021-06-02T11:56:03.000Z</time>
      </trkpt>
      <trkpt lat="43.78266" lon="5.88402">
        <ele>514.23</ele>
        <time>2021-06-02T11:56:09.000Z</time>
      </trkpt>
      <trkpt lat="43.78275" lon="5.88398">
        <ele>513.36</ele>
        <time>2021-06-02T11:56:14.000Z</time>
      </trkpt>
      <trkpt lat="43.78286" lon="5.88392">
        <ele>513.3</ele>
        <time>2021-06-02T11:56:19.000Z</time>
      </trkpt>
      <trkpt lat="43.78298" lon="5.88388">
        <ele>513.3</ele>
        <time>2021-06-02T11:56:24.000Z</time>
      </trkpt>
      <trkpt lat="43.78307" lon="5.88384">
        <ele>513.3</ele>
        <time>2021-06-02T11:56:29.000Z</time>
      </trkpt>
      <trkpt lat="43.78317" lon="5.8838">
        <ele>513.3</ele>
        <time>2021-06-02T11:56:34.000Z</time>
      </trkpt>
      <trkpt lat="43.78326" lon="5.88377">
        <ele>514.05</ele>
        <time>2021-06-02T11:56:39.000Z</time>
      </trkpt>
      <trkpt lat="43.78335" lon="5.88374">
        <ele>514.3</ele>
        <time>2021-06-02T11:56:44.000Z</time>
      </trkpt>
      <trkpt lat="43.78347" lon="5.88369">
        <ele>514.36</ele>
        <time>2021-06-02T11:56:49.000Z</time>
      </trkpt>
      <trkpt lat="43.7836" lon="5.88366">
        <ele>513.55</ele>
        <time>2021-06-02T11:56:54.000Z</time>
      </trkpt>
      <trkpt lat="43.78374" lon="5.8836">
        <ele>513.3</ele>
        <time>2021-06-02T11:56:59.000Z</time>
      </trkpt>
      <trkpt lat="43.78386" lon="5.88353">
        <ele>513.3</ele>
        <time>2021-06-02T11:57:04.000Z</time>
      </trkpt>
      <trkpt lat="43.78386" lon="5.88334">
        <ele>511.31</ele>
        <time>2021-06-02T11:57:09.000Z</time>
      </trkpt>
      <trkpt lat="43.78378" lon="5.88314">
        <ele>510.3</ele>
        <time>2021-06-02T11:57:14.000Z</time>
      </trkpt>
      <trkpt lat="43.7837" lon="5.88295">
        <ele>509.3</ele>
        <time>2021-06-02T11:57:19.000Z</time>
      </trkpt>
      <trkpt lat="43.78362" lon="5.88274">
        <ele>507.36</ele>
        <time>2021-06-02T11:57:24.000Z</time>
      </trkpt>
      <trkpt lat="43.78354" lon="5.88253">
        <ele>506.55</ele>
        <time>2021-06-02T11:57:29.000Z</time>
      </trkpt>
      <trkpt lat="43.78344" lon="5.88233">
        <ele>506.3</ele>
        <time>2021-06-02T11:57:34.000Z</time>
      </trkpt>
      <trkpt lat="43.78332" lon="5.8821">
        <ele>505.3</ele>
        <time>2021-06-02T11:57:39.000Z</time>
      </trkpt>
      <trkpt lat="43.78317" lon="5.88183">
        <ele>503.36</ele>
        <time>2021-06-02T11:57:44.000Z</time>
      </trkpt>
      <trkpt lat="43.78298" lon="5.88151">
        <ele>502.31</ele>
        <time>2021-06-02T11:57:49.000Z</time>
      </trkpt>
      <trkpt lat="43.78277" lon="5.88121">
        <ele>501.3</ele>
        <time>2021-06-02T11:57:54.000Z</time>
      </trkpt>
      <trkpt lat="43.78261" lon="5.88091">
        <ele>499.36</ele>
        <time>2021-06-02T11:57:59.000Z</time>
      </trkpt>
      <trkpt lat="43.78249" lon="5.88064">
        <ele>500.05</ele>
        <time>2021-06-02T11:58:04.000Z</time>
      </trkpt>
      <trkpt lat="43.78241" lon="5.88036">
        <ele>499.3</ele>
        <time>2021-06-02T11:58:09.000Z</time>
      </trkpt>
      <trkpt lat="43.78229" lon="5.88014">
        <ele>499.3</ele>
        <time>2021-06-02T11:58:14.000Z</time>
      </trkpt>
      <trkpt lat="43.78217" lon="5.87995">
        <ele>498.3</ele>
        <time>2021-06-02T11:58:19.000Z</time>
      </trkpt>
      <trkpt lat="43.78206" lon="5.87978">
        <ele>498.07</ele>
        <time>2021-06-02T11:58:24.000Z</time>
      </trkpt>
      <trkpt lat="43.78196" lon="5.87959">
        <ele>498.3</ele>
        <time>2021-06-02T11:58:29.000Z</time>
      </trkpt>
      <trkpt lat="43.78185" lon="5.87935">
        <ele>497.32</ele>
        <time>2021-06-02T11:58:34.000Z</time>
      </trkpt>
      <trkpt lat="43.78174" lon="5.87907">
        <ele>497.3</ele>
        <time>2021-06-02T11:58:39.000Z</time>
      </trkpt>
      <trkpt lat="43.78166" lon="5.87872">
        <ele>496.55</ele>
        <time>2021-06-02T11:58:44.000Z</time>
      </trkpt>
      <trkpt lat="43.7815" lon="5.87841">
        <ele>495.13</ele>
        <time>2021-06-02T11:58:49.000Z</time>
      </trkpt>
      <trkpt lat="43.78131" lon="5.87828">
        <ele>496.05</ele>
        <time>2021-06-02T11:58:54.000Z</time>
      </trkpt>
      <trkpt lat="43.78115" lon="5.87806">
        <ele>496.3</ele>
        <time>2021-06-02T11:58:59.000Z</time>
      </trkpt>
      <trkpt lat="43.78099" lon="5.87786">
        <ele>495.55</ele>
        <time>2021-06-02T11:59:04.000Z</time>
      </trkpt>
      <trkpt lat="43.78083" lon="5.8776">
        <ele>494.34</ele>
        <time>2021-06-02T11:59:09.000Z</time>
      </trkpt>
      <trkpt lat="43.78066" lon="5.87739">
        <ele>493.49</ele>
        <time>2021-06-02T11:59:14.000Z</time>
      </trkpt>
      <trkpt lat="43.78046" lon="5.87722">
        <ele>493.31</ele>
        <time>2021-06-02T11:59:19.000Z</time>
      </trkpt>
      <trkpt lat="43.78022" lon="5.87717">
        <ele>492.31</ele>
        <time>2021-06-02T11:59:24.000Z</time>
      </trkpt>
      <trkpt lat="43.77997" lon="5.87711">
        <ele>492.3</ele>
        <time>2021-06-02T11:59:29.000Z</time>
      </trkpt>
      <trkpt lat="43.77977" lon="5.87695">
        <ele>491.31</ele>
        <time>2021-06-02T11:59:34.000Z</time>
      </trkpt>
      <trkpt lat="43.77961" lon="5.8768">
        <ele>493.29</ele>
        <time>2021-06-02T11:59:39.000Z</time>
      </trkpt>
      <trkpt lat="43.77947" lon="5.87659">
        <ele>493.31</ele>
        <time>2021-06-02T11:59:44.000Z</time>
      </trkpt>
      <trkpt lat="43.77934" lon="5.87641">
        <ele>493.26</ele>
        <time>2021-06-02T11:59:49.000Z</time>
      </trkpt>
      <trkpt lat="43.7792" lon="5.87619">
        <ele>493.3</ele>
        <time>2021-06-02T11:59:54.000Z</time>
      </trkpt>
      <trkpt lat="43.77908" lon="5.87601">
        <ele>494.06</ele>
        <time>2021-06-02T11:59:59.000Z</time>
      </trkpt>
      <trkpt lat="43.77895" lon="5.87583">
        <ele>493.31</ele>
        <time>2021-06-02T12:00:04.000Z</time>
      </trkpt>
      <trkpt lat="43.77878" lon="5.87558">
        <ele>491.62</ele>
        <time>2021-06-02T12:00:09.000Z</time>
      </trkpt>
      <trkpt lat="43.77851" lon="5.87537">
        <ele>488.39</ele>
        <time>2021-06-02T12:00:14.000Z</time>
      </trkpt>
      <trkpt lat="43.77822" lon="5.87504">
        <ele>483.64</ele>
        <time>2021-06-02T12:00:19.000Z</time>
      </trkpt>
      <trkpt lat="43.778" lon="5.8746">
        <ele>481.62</ele>
        <time>2021-06-02T12:00:24.000Z</time>
      </trkpt>
      <trkpt lat="43.7779" lon="5.8743">
        <ele>485.23</ele>
        <time>2021-06-02T12:00:29.000Z</time>
      </trkpt>
      <trkpt lat="43.77782" lon="5.87415">
        <ele>488.25</ele>
        <time>2021-06-02T12:00:34.000Z</time>
      </trkpt>
      <trkpt lat="43.77773" lon="5.874">
        <ele>490.05</ele>
        <time>2021-06-02T12:00:39.000Z</time>
      </trkpt>
      <trkpt lat="43.77766" lon="5.87385">
        <ele>492.25</ele>
        <time>2021-06-02T12:00:44.000Z</time>
      </trkpt>
      <trkpt lat="43.7776" lon="5.8737">
        <ele>494.3</ele>
        <time>2021-06-02T12:00:49.000Z</time>
      </trkpt>
      <trkpt lat="43.77755" lon="5.87355">
        <ele>495.3</ele>
        <time>2021-06-02T12:00:54.000Z</time>
      </trkpt>
      <trkpt lat="43.77752" lon="5.87339">
        <ele>496.06</ele>
        <time>2021-06-02T12:00:59.000Z</time>
      </trkpt>
      <trkpt lat="43.77764" lon="5.8733">
        <ele>497.08</ele>
        <time>2021-06-02T12:01:04.000Z</time>
      </trkpt>
      <trkpt lat="43.77776" lon="5.87318">
        <ele>499.24</ele>
        <time>2021-06-02T12:01:09.000Z</time>
      </trkpt>
      <trkpt lat="43.77788" lon="5.87303">
        <ele>500.25</ele>
        <time>2021-06-02T12:01:14.000Z</time>
      </trkpt>
      <trkpt lat="43.77802" lon="5.87279">
        <ele>502.05</ele>
        <time>2021-06-02T12:01:19.000Z</time>
      </trkpt>
      <trkpt lat="43.77817" lon="5.87251">
        <ele>501.33</ele>
        <time>2021-06-02T12:01:24.000Z</time>
      </trkpt>
      <trkpt lat="43.77833" lon="5.87222">
        <ele>501.3</ele>
        <time>2021-06-02T12:01:29.000Z</time>
      </trkpt>
      <trkpt lat="43.7785" lon="5.8719">
        <ele>502.06</ele>
        <time>2021-06-02T12:01:34.000Z</time>
      </trkpt>
      <trkpt lat="43.77869" lon="5.87159">
        <ele>502.3</ele>
        <time>2021-06-02T12:01:39.000Z</time>
      </trkpt>
      <trkpt lat="43.77891" lon="5.87129">
        <ele>502.31</ele>
        <time>2021-06-02T12:01:44.000Z</time>
      </trkpt>
      <trkpt lat="43.77912" lon="5.871">
        <ele>503.31</ele>
        <time>2021-06-02T12:01:49.000Z</time>
      </trkpt>
      <trkpt lat="43.77931" lon="5.8707">
        <ele>504.25</ele>
        <time>2021-06-02T12:01:54.000Z</time>
      </trkpt>
      <trkpt lat="43.77948" lon="5.87042">
        <ele>503.38</ele>
        <time>2021-06-02T12:01:59.000Z</time>
      </trkpt>
      <trkpt lat="43.77966" lon="5.87014">
        <ele>503.31</ele>
        <time>2021-06-02T12:02:04.000Z</time>
      </trkpt>
      <trkpt lat="43.77982" lon="5.8698">
        <ele>502.38</ele>
        <time>2021-06-02T12:02:09.000Z</time>
      </trkpt>
      <trkpt lat="43.77994" lon="5.86939">
        <ele>501.32</ele>
        <time>2021-06-02T12:02:14.000Z</time>
      </trkpt>
      <trkpt lat="43.78007" lon="5.86898">
        <ele>501.06</ele>
        <time>2021-06-02T12:02:19.000Z</time>
      </trkpt>
      <trkpt lat="43.78015" lon="5.8686">
        <ele>500.32</ele>
        <time>2021-06-02T12:02:24.000Z</time>
      </trkpt>
      <trkpt lat="43.78027" lon="5.86822">
        <ele>500.26</ele>
        <time>2021-06-02T12:02:29.000Z</time>
      </trkpt>
      <trkpt lat="43.78045" lon="5.86785">
        <ele>498.57</ele>
        <time>2021-06-02T12:02:34.000Z</time>
      </trkpt>
      <trkpt lat="43.7807" lon="5.86746">
        <ele>496.57</ele>
        <time>2021-06-02T12:02:39.000Z</time>
      </trkpt>
      <trkpt lat="43.78079" lon="5.86696">
        <ele>495.33</ele>
        <time>2021-06-02T12:02:44.000Z</time>
      </trkpt>
      <trkpt lat="43.78087" lon="5.8665">
        <ele>495.32</ele>
        <time>2021-06-02T12:02:49.000Z</time>
      </trkpt>
      <trkpt lat="43.78093" lon="5.86606">
        <ele>495.32</ele>
        <time>2021-06-02T12:02:54.000Z</time>
      </trkpt>
      <trkpt lat="43.781" lon="5.86563">
        <ele>493.58</ele>
        <time>2021-06-02T12:02:59.000Z</time>
      </trkpt>
      <trkpt lat="43.7809" lon="5.86521">
        <ele>492.57</ele>
        <time>2021-06-02T12:03:04.000Z</time>
      </trkpt>
      <trkpt lat="43.7808" lon="5.86479">
        <ele>489.4</ele>
        <time>2021-06-02T12:03:09.000Z</time>
      </trkpt>
      <trkpt lat="43.78092" lon="5.86429">
        <ele>486.38</ele>
        <time>2021-06-02T12:03:14.000Z</time>
      </trkpt>
      <trkpt lat="43.78107" lon="5.8639">
        <ele>484.57</ele>
        <time>2021-06-02T12:03:19.000Z</time>
      </trkpt>
      <trkpt lat="43.78123" lon="5.86356">
        <ele>486.35</ele>
        <time>2021-06-02T12:03:24.000Z</time>
      </trkpt>
      <trkpt lat="43.78143" lon="5.86335">
        <ele>487.13</ele>
        <time>2021-06-02T12:03:29.000Z</time>
      </trkpt>
      <trkpt lat="43.78164" lon="5.86316">
        <ele>487.27</ele>
        <time>2021-06-02T12:03:34.000Z</time>
      </trkpt>
      <trkpt lat="43.78187" lon="5.86304">
        <ele>486.38</ele>
        <time>2021-06-02T12:03:39.000Z</time>
      </trkpt>
      <trkpt lat="43.78209" lon="5.86292">
        <ele>487.07</ele>
        <time>2021-06-02T12:03:44.000Z</time>
      </trkpt>
      <trkpt lat="43.7823" lon="5.8627">
        <ele>487.07</ele>
        <time>2021-06-02T12:03:49.000Z</time>
      </trkpt>
      <trkpt lat="43.78247" lon="5.86242">
        <ele>488.07</ele>
        <time>2021-06-02T12:03:54.000Z</time>
      </trkpt>
      <trkpt lat="43.7827" lon="5.86221">
        <ele>488.32</ele>
        <time>2021-06-02T12:03:59.000Z</time>
      </trkpt>
      <trkpt lat="43.78291" lon="5.86193">
        <ele>486.59</ele>
        <time>2021-06-02T12:04:04.000Z</time>
      </trkpt>
      <trkpt lat="43.78316" lon="5.86159">
        <ele>483.46</ele>
        <time>2021-06-02T12:04:09.000Z</time>
      </trkpt>
      <trkpt lat="43.7835" lon="5.86138">
        <ele>478.36</ele>
        <time>2021-06-02T12:04:14.000Z</time>
      </trkpt>
      <trkpt lat="43.78379" lon="5.86121">
        <ele>475.39</ele>
        <time>2021-06-02T12:04:19.000Z</time>
      </trkpt>
      <trkpt lat="43.78406" lon="5.86108">
        <ele>471.64</ele>
        <time>2021-06-02T12:04:24.000Z</time>
      </trkpt>
      <trkpt lat="43.78434" lon="5.86105">
        <ele>466.65</ele>
        <time>2021-06-02T12:04:29.000Z</time>
      </trkpt>
      <trkpt lat="43.78462" lon="5.86098">
        <ele>461.65</ele>
        <time>2021-06-02T12:04:34.000Z</time>
      </trkpt>
      <trkpt lat="43.78491" lon="5.86087">
        <ele>455.7</ele>
        <time>2021-06-02T12:04:39.000Z</time>
      </trkpt>
      <trkpt lat="43.78525" lon="5.86067">
        <ele>452.58</ele>
        <time>2021-06-02T12:04:44.000Z</time>
      </trkpt>
      <trkpt lat="43.78546" lon="5.86055">
        <ele>450.4</ele>
        <time>2021-06-02T12:04:49.000Z</time>
      </trkpt>
      <trkpt lat="43.78547" lon="5.86031">
        <ele>448.33</ele>
        <time>2021-06-02T12:04:54.000Z</time>
      </trkpt>
      <trkpt lat="43.78538" lon="5.86023">
        <ele>445.39</ele>
        <time>2021-06-02T12:04:59.000Z</time>
      </trkpt>
      <trkpt lat="43.78529" lon="5.86018">
        <ele>442.4</ele>
        <time>2021-06-02T12:05:05.000Z</time>
      </trkpt>
      <trkpt lat="43.78511" lon="5.86009">
        <ele>436.59</ele>
        <time>2021-06-02T12:05:10.000Z</time>
      </trkpt>
      <trkpt lat="43.78493" lon="5.85991">
        <ele>435.14</ele>
        <time>2021-06-02T12:05:15.000Z</time>
      </trkpt>
      <trkpt lat="43.78474" lon="5.85968">
        <ele>430.59</ele>
        <time>2021-06-02T12:05:20.000Z</time>
      </trkpt>
      <trkpt lat="43.78456" lon="5.85938">
        <ele>425.59</ele>
        <time>2021-06-02T12:05:25.000Z</time>
      </trkpt>
      <trkpt lat="43.78447" lon="5.85892">
        <ele>422.66</ele>
        <time>2021-06-02T12:05:30.000Z</time>
      </trkpt>
      <trkpt lat="43.78423" lon="5.85857">
        <ele>418.61</ele>
        <time>2021-06-02T12:05:35.000Z</time>
      </trkpt>
      <trkpt lat="43.78393" lon="5.85827">
        <ele>413.67</ele>
        <time>2021-06-02T12:05:40.000Z</time>
      </trkpt>
      <trkpt lat="43.78376" lon="5.85783">
        <ele>408.41</ele>
        <time>2021-06-02T12:05:45.000Z</time>
      </trkpt>
      <trkpt lat="43.78366" lon="5.85728">
        <ele>408.31</ele>
        <time>2021-06-02T12:05:50.000Z</time>
      </trkpt>
      <trkpt lat="43.78359" lon="5.85683">
        <ele>408.38</ele>
        <time>2021-06-02T12:05:55.000Z</time>
      </trkpt>
      <trkpt lat="43.78347" lon="5.85649">
        <ele>406.39</ele>
        <time>2021-06-02T12:06:00.000Z</time>
      </trkpt>
      <trkpt lat="43.78329" lon="5.85626">
        <ele>405.34</ele>
        <time>2021-06-02T12:06:05.000Z</time>
      </trkpt>
      <trkpt lat="43.78314" lon="5.85604">
        <ele>404.33</ele>
        <time>2021-06-02T12:06:10.000Z</time>
      </trkpt>
      <trkpt lat="43.783" lon="5.85585">
        <ele>402.58</ele>
        <time>2021-06-02T12:06:15.000Z</time>
      </trkpt>
      <trkpt lat="43.78284" lon="5.85569">
        <ele>400.59</ele>
        <time>2021-06-02T12:06:20.000Z</time>
      </trkpt>
      <trkpt lat="43.78283" lon="5.85534">
        <ele>398.39</ele>
        <time>2021-06-02T12:06:25.000Z</time>
      </trkpt>
      <trkpt lat="43.78275" lon="5.8549">
        <ele>398.09</ele>
        <time>2021-06-02T12:06:30.000Z</time>
      </trkpt>
      <trkpt lat="43.78267" lon="5.85473">
        <ele>398.39</ele>
        <time>2021-06-02T12:06:35.000Z</time>
      </trkpt>
      <trkpt lat="43.78269" lon="5.85457">
        <ele>398.33</ele>
        <time>2021-06-02T12:06:40.000Z</time>
      </trkpt>
      <trkpt lat="43.78278" lon="5.85437">
        <ele>398.33</ele>
        <time>2021-06-02T12:06:45.000Z</time>
      </trkpt>
      <trkpt lat="43.78295" lon="5.85412">
        <ele>399.33</ele>
        <time>2021-06-02T12:06:50.000Z</time>
      </trkpt>
      <trkpt lat="43.78309" lon="5.85379">
        <ele>400.32</ele>
        <time>2021-06-02T12:06:55.000Z</time>
      </trkpt>
      <trkpt lat="43.78322" lon="5.85348">
        <ele>399.38</ele>
        <time>2021-06-02T12:07:00.000Z</time>
      </trkpt>
      <trkpt lat="43.78331" lon="5.8531">
        <ele>397.58</ele>
        <time>2021-06-02T12:07:05.000Z</time>
      </trkpt>
      <trkpt lat="43.78339" lon="5.85269">
        <ele>395.64</ele>
        <time>2021-06-02T12:07:10.000Z</time>
      </trkpt>
      <trkpt lat="43.78345" lon="5.85229">
        <ele>394.39</ele>
        <time>2021-06-02T12:07:15.000Z</time>
      </trkpt>
      <trkpt lat="43.78355" lon="5.85191">
        <ele>394.33</ele>
        <time>2021-06-02T12:07:20.000Z</time>
      </trkpt>
      <trkpt lat="43.78368" lon="5.85158">
        <ele>393.28</ele>
        <time>2021-06-02T12:07:25.000Z</time>
      </trkpt>
      <trkpt lat="43.78374" lon="5.85126">
        <ele>394.27</ele>
        <time>2021-06-02T12:07:30.000Z</time>
      </trkpt>
      <trkpt lat="43.78386" lon="5.85095">
        <ele>394.33</ele>
        <time>2021-06-02T12:07:35.000Z</time>
      </trkpt>
      <trkpt lat="43.78396" lon="5.85066">
        <ele>393.58</ele>
        <time>2021-06-02T12:07:40.000Z</time>
      </trkpt>
      <trkpt lat="43.78404" lon="5.85028">
        <ele>395.25</ele>
        <time>2021-06-02T12:07:45.000Z</time>
      </trkpt>
      <trkpt lat="43.78415" lon="5.84984">
        <ele>391.41</ele>
        <time>2021-06-02T12:07:50.000Z</time>
      </trkpt>
      <trkpt lat="43.78426" lon="5.84941">
        <ele>391.33</ele>
        <time>2021-06-02T12:07:55.000Z</time>
      </trkpt>
      <trkpt lat="43.78435" lon="5.84893">
        <ele>390.35</ele>
        <time>2021-06-02T12:08:00.000Z</time>
      </trkpt>
      <trkpt lat="43.78441" lon="5.84848">
        <ele>392.58</ele>
        <time>2021-06-02T12:08:05.000Z</time>
      </trkpt>
      <trkpt lat="43.78452" lon="5.84802">
        <ele>391.4</ele>
        <time>2021-06-02T12:08:10.000Z</time>
      </trkpt>
      <trkpt lat="43.78465" lon="5.84757">
        <ele>387.42</ele>
        <time>2021-06-02T12:08:15.000Z</time>
      </trkpt>
      <trkpt lat="43.78479" lon="5.84713">
        <ele>386.33</ele>
        <time>2021-06-02T12:08:20.000Z</time>
      </trkpt>
      <trkpt lat="43.78496" lon="5.84664">
        <ele>384.34</ele>
        <time>2021-06-02T12:08:25.000Z</time>
      </trkpt>
      <trkpt lat="43.78515" lon="5.84619">
        <ele>383.54</ele>
        <time>2021-06-02T12:08:30.000Z</time>
      </trkpt>
      <trkpt lat="43.78534" lon="5.84574">
        <ele>381.4</ele>
        <time>2021-06-02T12:08:35.000Z</time>
      </trkpt>
      <trkpt lat="43.78553" lon="5.84535">
        <ele>381.1</ele>
        <time>2021-06-02T12:08:40.000Z</time>
      </trkpt>
      <trkpt lat="43.78572" lon="5.84499">
        <ele>381.33</ele>
        <time>2021-06-02T12:08:45.000Z</time>
      </trkpt>
      <trkpt lat="43.78592" lon="5.84475">
        <ele>382.33</ele>
        <time>2021-06-02T12:08:50.000Z</time>
      </trkpt>
      <trkpt lat="43.78613" lon="5.84449">
        <ele>382.38</ele>
        <time>2021-06-02T12:08:55.000Z</time>
      </trkpt>
      <trkpt lat="43.78633" lon="5.84419">
        <ele>380.78</ele>
        <time>2021-06-02T12:09:00.000Z</time>
      </trkpt>
      <trkpt lat="43.78656" lon="5.84391">
        <ele>380.33</ele>
        <time>2021-06-02T12:09:05.000Z</time>
      </trkpt>
      <trkpt lat="43.78685" lon="5.84366">
        <ele>378.38</ele>
        <time>2021-06-02T12:09:10.000Z</time>
      </trkpt>
      <trkpt lat="43.78713" lon="5.84339">
        <ele>377.34</ele>
        <time>2021-06-02T12:09:15.000Z</time>
      </trkpt>
      <trkpt lat="43.7874" lon="5.84313">
        <ele>375.65</ele>
        <time>2021-06-02T12:09:20.000Z</time>
      </trkpt>
      <trkpt lat="43.78764" lon="5.84286">
        <ele>374.34</ele>
        <time>2021-06-02T12:09:25.000Z</time>
      </trkpt>
      <trkpt lat="43.78757" lon="5.84267">
        <ele>368.73</ele>
        <time>2021-06-02T12:09:30.000Z</time>
      </trkpt>
      <trkpt lat="43.78741" lon="5.84266">
        <ele>365.6</ele>
        <time>2021-06-02T12:09:35.000Z</time>
      </trkpt>
      <trkpt lat="43.78725" lon="5.84256">
        <ele>365.58</ele>
        <time>2021-06-02T12:09:40.000Z</time>
      </trkpt>
      <trkpt lat="43.78713" lon="5.84246">
        <ele>367.26</ele>
        <time>2021-06-02T12:09:45.000Z</time>
      </trkpt>
      <trkpt lat="43.78697" lon="5.8423">
        <ele>367.34</ele>
        <time>2021-06-02T12:09:50.000Z</time>
      </trkpt>
      <trkpt lat="43.78681" lon="5.84209">
        <ele>365.84</ele>
        <time>2021-06-02T12:09:55.000Z</time>
      </trkpt>
      <trkpt lat="43.78677" lon="5.8417">
        <ele>361.67</ele>
        <time>2021-06-02T12:10:00.000Z</time>
      </trkpt>
      <trkpt lat="43.78675" lon="5.8412">
        <ele>359.42</ele>
        <time>2021-06-02T12:10:05.000Z</time>
      </trkpt>
      <trkpt lat="43.78676" lon="5.84071">
        <ele>358.35</ele>
        <time>2021-06-02T12:10:10.000Z</time>
      </trkpt>
      <trkpt lat="43.78674" lon="5.8402">
        <ele>356.6</ele>
        <time>2021-06-02T12:10:15.000Z</time>
      </trkpt>
      <trkpt lat="43.78673" lon="5.83968">
        <ele>356.34</ele>
        <time>2021-06-02T12:10:20.000Z</time>
      </trkpt>
      <trkpt lat="43.7867" lon="5.83935">
        <ele>356.34</ele>
        <time>2021-06-02T12:10:25.000Z</time>
      </trkpt>
      <trkpt lat="43.78656" lon="5.83927">
        <ele>356.1</ele>
        <time>2021-06-02T12:10:30.000Z</time>
      </trkpt>
      <trkpt lat="43.78639" lon="5.83924">
        <ele>353.65</ele>
        <time>2021-06-02T12:10:35.000Z</time>
      </trkpt>
      <trkpt lat="43.78631" lon="5.83898">
        <ele>355.32</ele>
        <time>2021-06-02T12:10:40.000Z</time>
      </trkpt>
      <trkpt lat="43.7863" lon="5.8387">
        <ele>355.34</ele>
        <time>2021-06-02T12:10:45.000Z</time>
      </trkpt>
      <trkpt lat="43.78622" lon="5.8384">
        <ele>355.34</ele>
        <time>2021-06-02T12:10:50.000Z</time>
      </trkpt>
      <trkpt lat="43.78615" lon="5.8381">
        <ele>354.59</ele>
        <time>2021-06-02T12:10:55.000Z</time>
      </trkpt>
      <trkpt lat="43.78601" lon="5.83782">
        <ele>354.34</ele>
        <time>2021-06-02T12:11:00.000Z</time>
      </trkpt>
      <trkpt lat="43.78588" lon="5.83758">
        <ele>352.42</ele>
        <time>2021-06-02T12:11:05.000Z</time>
      </trkpt>
      <trkpt lat="43.78567" lon="5.83762">
        <ele>350.11</ele>
        <time>2021-06-02T12:11:10.000Z</time>
      </trkpt>
      <trkpt lat="43.78546" lon="5.83779">
        <ele>348.61</ele>
        <time>2021-06-02T12:11:15.000Z</time>
      </trkpt>
      <trkpt lat="43.78526" lon="5.83793">
        <ele>348.34</ele>
        <time>2021-06-02T12:11:20.000Z</time>
      </trkpt>
      <trkpt lat="43.78502" lon="5.83781">
        <ele>349.03</ele>
        <time>2021-06-02T12:11:25.000Z</time>
      </trkpt>
      <trkpt lat="43.78479" lon="5.83766">
        <ele>352.03</ele>
        <time>2021-06-02T12:11:30.000Z</time>
      </trkpt>
      <trkpt lat="43.78459" lon="5.83751">
        <ele>348.75</ele>
        <time>2021-06-02T12:11:35.000Z</time>
      </trkpt>
      <trkpt lat="43.7844" lon="5.83741">
        <ele>348.52</ele>
        <time>2021-06-02T12:11:40.000Z</time>
      </trkpt>
      <trkpt lat="43.7842" lon="5.83737">
        <ele>347.11</ele>
        <time>2021-06-02T12:11:45.000Z</time>
      </trkpt>
      <trkpt lat="43.78404" lon="5.83739">
        <ele>347.15</ele>
        <time>2021-06-02T12:11:50.000Z</time>
      </trkpt>
      <trkpt lat="43.78382" lon="5.83744">
        <ele>345.29</ele>
        <time>2021-06-02T12:11:55.000Z</time>
      </trkpt>
      <trkpt lat="43.78359" lon="5.83747">
        <ele>345.9</ele>
        <time>2021-06-02T12:12:00.000Z</time>
      </trkpt>
      <trkpt lat="43.78336" lon="5.83748">
        <ele>345.42</ele>
        <time>2021-06-02T12:12:05.000Z</time>
      </trkpt>
      <trkpt lat="43.7831" lon="5.83754">
        <ele>347.28</ele>
        <time>2021-06-02T12:12:10.000Z</time>
      </trkpt>
      <trkpt lat="43.78285" lon="5.83767">
        <ele>346.65</ele>
        <time>2021-06-02T12:12:15.000Z</time>
      </trkpt>
      <trkpt lat="43.78258" lon="5.83772">
        <ele>345.85</ele>
        <time>2021-06-02T12:12:20.000Z</time>
      </trkpt>
      <trkpt lat="43.78231" lon="5.83767">
        <ele>343.34</ele>
        <time>2021-06-02T12:12:25.000Z</time>
      </trkpt>
      <trkpt lat="43.78213" lon="5.83756">
        <ele>341.59</ele>
        <time>2021-06-02T12:12:30.000Z</time>
      </trkpt>
      <trkpt lat="43.7819" lon="5.83748">
        <ele>340.35</ele>
        <time>2021-06-02T12:12:35.000Z</time>
      </trkpt>
      <trkpt lat="43.78166" lon="5.83752">
        <ele>341.57</ele>
        <time>2021-06-02T12:12:40.000Z</time>
      </trkpt>
      <trkpt lat="43.78139" lon="5.8377">
        <ele>341.59</ele>
        <time>2021-06-02T12:12:45.000Z</time>
      </trkpt>
      <trkpt lat="43.78107" lon="5.83768">
        <ele>340.41</ele>
        <time>2021-06-02T12:12:50.000Z</time>
      </trkpt>
      <trkpt lat="43.78101" lon="5.83729">
        <ele>343.23</ele>
        <time>2021-06-02T12:12:55.000Z</time>
      </trkpt>
      <trkpt lat="43.78109" lon="5.8369">
        <ele>342.12</ele>
        <time>2021-06-02T12:13:00.000Z</time>
      </trkpt>
      <trkpt lat="43.78095" lon="5.83675">
        <ele>342.77</ele>
        <time>2021-06-02T12:13:05.000Z</time>
      </trkpt>
      <trkpt lat="43.78078" lon="5.83686">
        <ele>342.29</ele>
        <time>2021-06-02T12:13:10.000Z</time>
      </trkpt>
      <trkpt lat="43.78063" lon="5.83702">
        <ele>344.33</ele>
        <time>2021-06-02T12:13:15.000Z</time>
      </trkpt>
      <trkpt lat="43.78055" lon="5.83696">
        <ele>344.3</ele>
        <time>2021-06-02T12:13:20.000Z</time>
      </trkpt>
      <trkpt lat="43.78053" lon="5.83683">
        <ele>344.35</ele>
        <time>2021-06-02T12:13:26.000Z</time>
      </trkpt>
      <trkpt lat="43.78053" lon="5.83696">
        <ele>347.36</ele>
        <time>2021-06-02T12:13:35.000Z</time>
      </trkpt>
      <trkpt lat="43.78035" lon="5.83688">
        <ele>350.26</ele>
        <time>2021-06-02T12:13:40.000Z</time>
      </trkpt>
      <trkpt lat="43.78017" lon="5.83675">
        <ele>350.35</ele>
        <time>2021-06-02T12:13:45.000Z</time>
      </trkpt>
      <trkpt lat="43.77999" lon="5.83664">
        <ele>351.1</ele>
        <time>2021-06-02T12:13:50.000Z</time>
      </trkpt>
      <trkpt lat="43.77981" lon="5.83653">
        <ele>352.1</ele>
        <time>2021-06-02T12:13:55.000Z</time>
      </trkpt>
      <trkpt lat="43.77961" lon="5.83643">
        <ele>352.35</ele>
        <time>2021-06-02T12:14:00.000Z</time>
      </trkpt>
      <trkpt lat="43.77938" lon="5.83629">
        <ele>351.36</ele>
        <time>2021-06-02T12:14:05.000Z</time>
      </trkpt>
      <trkpt lat="43.77914" lon="5.83612">
        <ele>349.66</ele>
        <time>2021-06-02T12:14:10.000Z</time>
      </trkpt>
      <trkpt lat="43.77891" lon="5.83595">
        <ele>349.36</ele>
        <time>2021-06-02T12:14:15.000Z</time>
      </trkpt>
      <trkpt lat="43.77867" lon="5.83578">
        <ele>348.36</ele>
        <time>2021-06-02T12:14:20.000Z</time>
      </trkpt>
      <trkpt lat="43.77844" lon="5.8356">
        <ele>347.37</ele>
        <time>2021-06-02T12:14:25.000Z</time>
      </trkpt>
      <trkpt lat="43.77827" lon="5.83545">
        <ele>347.34</ele>
        <time>2021-06-02T12:14:30.000Z</time>
      </trkpt>
      <trkpt lat="43.77816" lon="5.83544">
        <ele>348.29</ele>
        <time>2021-06-02T12:14:35.000Z</time>
      </trkpt>
      <trkpt lat="43.77805" lon="5.83548">
        <ele>348.37</ele>
        <time>2021-06-02T12:14:44.000Z</time>
      </trkpt>
      <trkpt lat="43.77795" lon="5.83552">
        <ele>352.16</ele>
        <time>2021-06-02T12:14:52.000Z</time>
      </trkpt>
      <trkpt lat="43.77784" lon="5.83552">
        <ele>354.09</ele>
        <time>2021-06-02T12:14:57.000Z</time>
      </trkpt>
      <trkpt lat="43.7777" lon="5.83561">
        <ele>355.1</ele>
        <time>2021-06-02T12:15:02.000Z</time>
      </trkpt>
      <trkpt lat="43.77751" lon="5.83565">
        <ele>355.54</ele>
        <time>2021-06-02T12:15:07.000Z</time>
      </trkpt>
      <trkpt lat="43.77731" lon="5.83568">
        <ele>353.62</ele>
        <time>2021-06-02T12:15:12.000Z</time>
      </trkpt>
      <trkpt lat="43.77712" lon="5.83576">
        <ele>350.67</ele>
        <time>2021-06-02T12:15:17.000Z</time>
      </trkpt>
      <trkpt lat="43.77697" lon="5.83584">
        <ele>350.17</ele>
        <time>2021-06-02T12:15:22.000Z</time>
      </trkpt>
      <trkpt lat="43.77686" lon="5.8359">
        <ele>351.86</ele>
        <time>2021-06-02T12:15:27.000Z</time>
      </trkpt>
      <trkpt lat="43.7767" lon="5.8359">
        <ele>355.09</ele>
        <time>2021-06-02T12:15:32.000Z</time>
      </trkpt>
      <trkpt lat="43.77656" lon="5.83605">
        <ele>356.6</ele>
        <time>2021-06-02T12:15:37.000Z</time>
      </trkpt>
      <trkpt lat="43.77643" lon="5.83632">
        <ele>354.61</ele>
        <time>2021-06-02T12:15:42.000Z</time>
      </trkpt>
      <trkpt lat="43.77627" lon="5.83649">
        <ele>353.56</ele>
        <time>2021-06-02T12:15:47.000Z</time>
      </trkpt>
      <trkpt lat="43.77609" lon="5.83641">
        <ele>353.31</ele>
        <time>2021-06-02T12:15:52.000Z</time>
      </trkpt>
      <trkpt lat="43.77598" lon="5.83634">
        <ele>356.03</ele>
        <time>2021-06-02T12:15:57.000Z</time>
      </trkpt>
      <trkpt lat="43.7758" lon="5.83614">
        <ele>356.65</ele>
        <time>2021-06-02T12:16:02.000Z</time>
      </trkpt>
      <trkpt lat="43.77557" lon="5.83612">
        <ele>356.11</ele>
        <time>2021-06-02T12:16:07.000Z</time>
      </trkpt>
      <trkpt lat="43.77534" lon="5.83603">
        <ele>355.42</ele>
        <time>2021-06-02T12:16:12.000Z</time>
      </trkpt>
      <trkpt lat="43.77516" lon="5.83596">
        <ele>354.42</ele>
        <time>2021-06-02T12:16:17.000Z</time>
      </trkpt>
      <trkpt lat="43.77509" lon="5.83588">
        <ele>354.67</ele>
        <time>2021-06-02T12:16:26.000Z</time>
      </trkpt>
      <trkpt lat="43.77499" lon="5.83587">
        <ele>351.42</ele>
        <time>2021-06-02T12:16:32.000Z</time>
      </trkpt>
      <trkpt lat="43.77488" lon="5.83582">
        <ele>350.99</ele>
        <time>2021-06-02T12:16:38.000Z</time>
      </trkpt>
      <trkpt lat="43.77474" lon="5.8357">
        <ele>358.35</ele>
        <time>2021-06-02T12:16:43.000Z</time>
      </trkpt>
      <trkpt lat="43.77456" lon="5.8356">
        <ele>357.93</ele>
        <time>2021-06-02T12:16:48.000Z</time>
      </trkpt>
      <trkpt lat="43.77436" lon="5.83553">
        <ele>358.31</ele>
        <time>2021-06-02T12:16:53.000Z</time>
      </trkpt>
      <trkpt lat="43.77409" lon="5.83546">
        <ele>357.48</ele>
        <time>2021-06-02T12:16:58.000Z</time>
      </trkpt>
      <trkpt lat="43.77394" lon="5.83532">
        <ele>357.61</ele>
        <time>2021-06-02T12:17:03.000Z</time>
      </trkpt>
      <trkpt lat="43.77377" lon="5.83513">
        <ele>356.48</ele>
        <time>2021-06-02T12:17:08.000Z</time>
      </trkpt>
      <trkpt lat="43.77358" lon="5.83496">
        <ele>356.61</ele>
        <time>2021-06-02T12:17:13.000Z</time>
      </trkpt>
      <trkpt lat="43.77341" lon="5.83482">
        <ele>357.18</ele>
        <time>2021-06-02T12:17:18.000Z</time>
      </trkpt>
      <trkpt lat="43.77325" lon="5.83472">
        <ele>357.18</ele>
        <time>2021-06-02T12:17:23.000Z</time>
      </trkpt>
      <trkpt lat="43.77307" lon="5.83462">
        <ele>357.91</ele>
        <time>2021-06-02T12:17:28.000Z</time>
      </trkpt>
      <trkpt lat="43.77287" lon="5.83454">
        <ele>359.42</ele>
        <time>2021-06-02T12:17:33.000Z</time>
      </trkpt>
      <trkpt lat="43.77266" lon="5.83435">
        <ele>355.91</ele>
        <time>2021-06-02T12:17:38.000Z</time>
      </trkpt>
      <trkpt lat="43.77243" lon="5.83423">
        <ele>353.58</ele>
        <time>2021-06-02T12:17:43.000Z</time>
      </trkpt>
      <trkpt lat="43.7722" lon="5.8343">
        <ele>353.66</ele>
        <time>2021-06-02T12:17:48.000Z</time>
      </trkpt>
      <trkpt lat="43.77193" lon="5.83448">
        <ele>351.38</ele>
        <time>2021-06-02T12:17:53.000Z</time>
      </trkpt>
      <trkpt lat="43.77178" lon="5.83482">
        <ele>351.36</ele>
        <time>2021-06-02T12:17:58.000Z</time>
      </trkpt>
      <trkpt lat="43.77167" lon="5.8351">
        <ele>352.35</ele>
        <time>2021-06-02T12:18:03.000Z</time>
      </trkpt>
      <trkpt lat="43.77149" lon="5.83537">
        <ele>351.37</ele>
        <time>2021-06-02T12:18:08.000Z</time>
      </trkpt>
      <trkpt lat="43.77136" lon="5.83561">
        <ele>353.11</ele>
        <time>2021-06-02T12:18:13.000Z</time>
      </trkpt>
      <trkpt lat="43.7712" lon="5.83581">
        <ele>355.29</ele>
        <time>2021-06-02T12:18:18.000Z</time>
      </trkpt>
      <trkpt lat="43.77102" lon="5.83562">
        <ele>346.42</ele>
        <time>2021-06-02T12:18:23.000Z</time>
      </trkpt>
      <trkpt lat="43.7711" lon="5.83529">
        <ele>347.11</ele>
        <time>2021-06-02T12:18:28.000Z</time>
      </trkpt>
      <trkpt lat="43.77121" lon="5.83492">
        <ele>348.31</ele>
        <time>2021-06-02T12:18:33.000Z</time>
      </trkpt>
      <trkpt lat="43.77126" lon="5.83458">
        <ele>351.97</ele>
        <time>2021-06-02T12:18:38.000Z</time>
      </trkpt>
      <trkpt lat="43.77134" lon="5.83424">
        <ele>351.35</ele>
        <time>2021-06-02T12:18:43.000Z</time>
      </trkpt>
      <trkpt lat="43.77127" lon="5.83402">
        <ele>354.28</ele>
        <time>2021-06-02T12:18:48.000Z</time>
      </trkpt>
      <trkpt lat="43.77116" lon="5.83388">
        <ele>354.43</ele>
        <time>2021-06-02T12:18:53.000Z</time>
      </trkpt>
      <trkpt lat="43.77112" lon="5.83405">
        <ele>355.3</ele>
        <time>2021-06-02T12:18:58.000Z</time>
      </trkpt>
      <trkpt lat="43.77104" lon="5.8343">
        <ele>354.38</ele>
        <time>2021-06-02T12:19:03.000Z</time>
      </trkpt>
      <trkpt lat="43.77094" lon="5.83452">
        <ele>356.11</ele>
        <time>2021-06-02T12:19:08.000Z</time>
      </trkpt>
      <trkpt lat="43.77085" lon="5.83476">
        <ele>355.43</ele>
        <time>2021-06-02T12:19:13.000Z</time>
      </trkpt>
      <trkpt lat="43.77079" lon="5.83502">
        <ele>354.61</ele>
        <time>2021-06-02T12:19:18.000Z</time>
      </trkpt>
      <trkpt lat="43.77074" lon="5.83525">
        <ele>357.05</ele>
        <time>2021-06-02T12:19:23.000Z</time>
      </trkpt>
      <trkpt lat="43.77064" lon="5.83547">
        <ele>357.36</ele>
        <time>2021-06-02T12:19:28.000Z</time>
      </trkpt>
      <trkpt lat="43.77053" lon="5.8357">
        <ele>356.38</ele>
        <time>2021-06-02T12:19:33.000Z</time>
      </trkpt>
      <trkpt lat="43.77046" lon="5.83589">
        <ele>357.31</ele>
        <time>2021-06-02T12:19:38.000Z</time>
      </trkpt>
      <trkpt lat="43.77039" lon="5.8361">
        <ele>359.05</ele>
        <time>2021-06-02T12:19:43.000Z</time>
      </trkpt>
      <trkpt lat="43.77028" lon="5.83631">
        <ele>359.61</ele>
        <time>2021-06-02T12:19:48.000Z</time>
      </trkpt>
      <trkpt lat="43.77019" lon="5.83651">
        <ele>361.11</ele>
        <time>2021-06-02T12:19:53.000Z</time>
      </trkpt>
      <trkpt lat="43.77009" lon="5.83672">
        <ele>360.93</ele>
        <time>2021-06-02T12:19:58.000Z</time>
      </trkpt>
      <trkpt lat="43.76995" lon="5.83693">
        <ele>358</ele>
        <time>2021-06-02T12:20:03.000Z</time>
      </trkpt>
      <trkpt lat="43.76985" lon="5.83713">
        <ele>358.35</ele>
        <time>2021-06-02T12:20:08.000Z</time>
      </trkpt>
      <trkpt lat="43.76977" lon="5.83732">
        <ele>360.35</ele>
        <time>2021-06-02T12:20:13.000Z</time>
      </trkpt>
      <trkpt lat="43.76964" lon="5.8375">
        <ele>360.36</ele>
        <time>2021-06-02T12:20:18.000Z</time>
      </trkpt>
      <trkpt lat="43.76953" lon="5.83769">
        <ele>360.6</ele>
        <time>2021-06-02T12:20:23.000Z</time>
      </trkpt>
      <trkpt lat="43.76943" lon="5.83786">
        <ele>360.55</ele>
        <time>2021-06-02T12:20:28.000Z</time>
      </trkpt>
      <trkpt lat="43.76934" lon="5.83806">
        <ele>362.99</ele>
        <time>2021-06-02T12:20:33.000Z</time>
      </trkpt>
      <trkpt lat="43.76926" lon="5.83822">
        <ele>365.34</ele>
        <time>2021-06-02T12:20:38.000Z</time>
      </trkpt>
      <trkpt lat="43.76914" lon="5.8384">
        <ele>366.36</ele>
        <time>2021-06-02T12:20:43.000Z</time>
      </trkpt>
      <trkpt lat="43.76905" lon="5.83859">
        <ele>368.1</ele>
        <time>2021-06-02T12:20:48.000Z</time>
      </trkpt>
      <trkpt lat="43.76895" lon="5.83878">
        <ele>369.86</ele>
        <time>2021-06-02T12:20:53.000Z</time>
      </trkpt>
      <trkpt lat="43.76883" lon="5.83901">
        <ele>369.37</ele>
        <time>2021-06-02T12:20:58.000Z</time>
      </trkpt>
      <trkpt lat="43.7687" lon="5.83923">
        <ele>369.3</ele>
        <time>2021-06-02T12:21:03.000Z</time>
      </trkpt>
      <trkpt lat="43.7686" lon="5.83945">
        <ele>370.11</ele>
        <time>2021-06-02T12:21:08.000Z</time>
      </trkpt>
      <trkpt lat="43.7685" lon="5.83965">
        <ele>371.31</ele>
        <time>2021-06-02T12:21:13.000Z</time>
      </trkpt>
      <trkpt lat="43.7684" lon="5.83985">
        <ele>374.08</ele>
        <time>2021-06-02T12:21:18.000Z</time>
      </trkpt>
      <trkpt lat="43.76828" lon="5.84003">
        <ele>373.36</ele>
        <time>2021-06-02T12:21:23.000Z</time>
      </trkpt>
      <trkpt lat="43.76814" lon="5.8402">
        <ele>372.36</ele>
        <time>2021-06-02T12:21:28.000Z</time>
      </trkpt>
      <trkpt lat="43.76801" lon="5.8404">
        <ele>372.36</ele>
        <time>2021-06-02T12:21:33.000Z</time>
      </trkpt>
      <trkpt lat="43.7679" lon="5.84058">
        <ele>372.37</ele>
        <time>2021-06-02T12:21:38.000Z</time>
      </trkpt>
      <trkpt lat="43.7678" lon="5.84066">
        <ele>374.11</ele>
        <time>2021-06-02T12:21:43.000Z</time>
      </trkpt>
      <trkpt lat="43.76768" lon="5.84074">
        <ele>377.05</ele>
        <time>2021-06-02T12:21:48.000Z</time>
      </trkpt>
      <trkpt lat="43.76759" lon="5.84088">
        <ele>378.3</ele>
        <time>2021-06-02T12:21:53.000Z</time>
      </trkpt>
      <trkpt lat="43.7675" lon="5.84106">
        <ele>379.11</ele>
        <time>2021-06-02T12:21:58.000Z</time>
      </trkpt>
      <trkpt lat="43.76741" lon="5.84122">
        <ele>379.36</ele>
        <time>2021-06-02T12:22:03.000Z</time>
      </trkpt>
      <trkpt lat="43.76733" lon="5.8414">
        <ele>382.28</ele>
        <time>2021-06-02T12:22:08.000Z</time>
      </trkpt>
      <trkpt lat="43.76725" lon="5.84156">
        <ele>383.16</ele>
        <time>2021-06-02T12:22:13.000Z</time>
      </trkpt>
      <trkpt lat="43.76717" lon="5.84174">
        <ele>384.34</ele>
        <time>2021-06-02T12:22:18.000Z</time>
      </trkpt>
      <trkpt lat="43.76709" lon="5.8419">
        <ele>386.05</ele>
        <time>2021-06-02T12:22:23.000Z</time>
      </trkpt>
      <trkpt lat="43.76699" lon="5.84207">
        <ele>388.11</ele>
        <time>2021-06-02T12:22:28.000Z</time>
      </trkpt>
      <trkpt lat="43.76687" lon="5.84223">
        <ele>388.36</ele>
        <time>2021-06-02T12:22:33.000Z</time>
      </trkpt>
      <trkpt lat="43.76673" lon="5.84241">
        <ele>388.11</ele>
        <time>2021-06-02T12:22:38.000Z</time>
      </trkpt>
      <trkpt lat="43.76664" lon="5.84261">
        <ele>390.05</ele>
        <time>2021-06-02T12:22:43.000Z</time>
      </trkpt>
      <trkpt lat="43.76657" lon="5.8428">
        <ele>391.34</ele>
        <time>2021-06-02T12:22:48.000Z</time>
      </trkpt>
      <trkpt lat="43.76652" lon="5.84301">
        <ele>392.3</ele>
        <time>2021-06-02T12:22:53.000Z</time>
      </trkpt>
      <trkpt lat="43.76646" lon="5.84323">
        <ele>393.34</ele>
        <time>2021-06-02T12:22:58.000Z</time>
      </trkpt>
      <trkpt lat="43.76639" lon="5.84347">
        <ele>394.36</ele>
        <time>2021-06-02T12:23:03.000Z</time>
      </trkpt>
      <trkpt lat="43.76634" lon="5.84367">
        <ele>395.34</ele>
        <time>2021-06-02T12:23:08.000Z</time>
      </trkpt>
      <trkpt lat="43.76629" lon="5.84387">
        <ele>394.41</ele>
        <time>2021-06-02T12:23:13.000Z</time>
      </trkpt>
      <trkpt lat="43.76625" lon="5.84409">
        <ele>395.34</ele>
        <time>2021-06-02T12:23:18.000Z</time>
      </trkpt>
      <trkpt lat="43.76619" lon="5.8443">
        <ele>396.36</ele>
        <time>2021-06-02T12:23:23.000Z</time>
      </trkpt>
      <trkpt lat="43.76615" lon="5.84452">
        <ele>394.73</ele>
        <time>2021-06-02T12:23:28.000Z</time>
      </trkpt>
      <trkpt lat="43.7662" lon="5.84474">
        <ele>397.31</ele>
        <time>2021-06-02T12:23:33.000Z</time>
      </trkpt>
      <trkpt lat="43.7662" lon="5.84499">
        <ele>398.35</ele>
        <time>2021-06-02T12:23:38.000Z</time>
      </trkpt>
      <trkpt lat="43.76617" lon="5.84516">
        <ele>399.34</ele>
        <time>2021-06-02T12:23:43.000Z</time>
      </trkpt>
      <trkpt lat="43.76616" lon="5.84533">
        <ele>400.29</ele>
        <time>2021-06-02T12:23:48.000Z</time>
      </trkpt>
      <trkpt lat="43.76619" lon="5.84547">
        <ele>401.36</ele>
        <time>2021-06-02T12:23:53.000Z</time>
      </trkpt>
      <trkpt lat="43.76625" lon="5.84564">
        <ele>402.17</ele>
        <time>2021-06-02T12:23:58.000Z</time>
      </trkpt>
      <trkpt lat="43.76632" lon="5.84578">
        <ele>404.28</ele>
        <time>2021-06-02T12:24:03.000Z</time>
      </trkpt>
      <trkpt lat="43.76639" lon="5.84592">
        <ele>406.51</ele>
        <time>2021-06-02T12:24:08.000Z</time>
      </trkpt>
      <trkpt lat="43.76647" lon="5.8461">
        <ele>406.59</ele>
        <time>2021-06-02T12:24:13.000Z</time>
      </trkpt>
      <trkpt lat="43.76655" lon="5.84627">
        <ele>403.7</ele>
        <time>2021-06-02T12:24:18.000Z</time>
      </trkpt>
      <trkpt lat="43.76662" lon="5.84648">
        <ele>406.1</ele>
        <time>2021-06-02T12:24:23.000Z</time>
      </trkpt>
      <trkpt lat="43.76666" lon="5.84671">
        <ele>407.28</ele>
        <time>2021-06-02T12:24:28.000Z</time>
      </trkpt>
      <trkpt lat="43.76665" lon="5.84691">
        <ele>409.34</ele>
        <time>2021-06-02T12:24:33.000Z</time>
      </trkpt>
      <trkpt lat="43.76666" lon="5.84711">
        <ele>412.03</ele>
        <time>2021-06-02T12:24:38.000Z</time>
      </trkpt>
      <trkpt lat="43.76667" lon="5.84731">
        <ele>412.4</ele>
        <time>2021-06-02T12:24:43.000Z</time>
      </trkpt>
      <trkpt lat="43.7667" lon="5.8475">
        <ele>413.1</ele>
        <time>2021-06-02T12:24:48.000Z</time>
      </trkpt>
      <trkpt lat="43.76675" lon="5.84767">
        <ele>415.1</ele>
        <time>2021-06-02T12:24:53.000Z</time>
      </trkpt>
      <trkpt lat="43.7668" lon="5.84784">
        <ele>417.23</ele>
        <time>2021-06-02T12:24:58.000Z</time>
      </trkpt>
      <trkpt lat="43.76685" lon="5.84804">
        <ele>417.37</ele>
        <time>2021-06-02T12:25:03.000Z</time>
      </trkpt>
      <trkpt lat="43.76689" lon="5.84824">
        <ele>418.35</ele>
        <time>2021-06-02T12:25:08.000Z</time>
      </trkpt>
      <trkpt lat="43.76694" lon="5.84844">
        <ele>417.35</ele>
        <time>2021-06-02T12:25:13.000Z</time>
      </trkpt>
      <trkpt lat="43.76696" lon="5.84865">
        <ele>418.1</ele>
        <time>2021-06-02T12:25:18.000Z</time>
      </trkpt>
      <trkpt lat="43.76699" lon="5.84886">
        <ele>419.35</ele>
        <time>2021-06-02T12:25:23.000Z</time>
      </trkpt>
      <trkpt lat="43.76701" lon="5.84904">
        <ele>421.34</ele>
        <time>2021-06-02T12:25:28.000Z</time>
      </trkpt>
      <trkpt lat="43.76703" lon="5.84924">
        <ele>423.15</ele>
        <time>2021-06-02T12:25:33.000Z</time>
      </trkpt>
      <trkpt lat="43.76705" lon="5.84943">
        <ele>424.35</ele>
        <time>2021-06-02T12:25:38.000Z</time>
      </trkpt>
      <trkpt lat="43.76708" lon="5.84963">
        <ele>425.22</ele>
        <time>2021-06-02T12:25:43.000Z</time>
      </trkpt>
      <trkpt lat="43.76708" lon="5.84984">
        <ele>423.36</ele>
        <time>2021-06-02T12:25:48.000Z</time>
      </trkpt>
      <trkpt lat="43.76702" lon="5.84994">
        <ele>422.37</ele>
        <time>2021-06-02T12:25:53.000Z</time>
      </trkpt>
      <trkpt lat="43.76695" lon="5.85003">
        <ele>422.35</ele>
        <time>2021-06-02T12:25:58.000Z</time>
      </trkpt>
      <trkpt lat="43.76683" lon="5.85006">
        <ele>420.92</ele>
        <time>2021-06-02T12:26:03.000Z</time>
      </trkpt>
      <trkpt lat="43.76674" lon="5.85001">
        <ele>420.6</ele>
        <time>2021-06-02T12:26:08.000Z</time>
      </trkpt>
      <trkpt lat="43.76664" lon="5.85002">
        <ele>423.1</ele>
        <time>2021-06-02T12:26:16.000Z</time>
      </trkpt>
      <trkpt lat="43.76656" lon="5.85011">
        <ele>427.27</ele>
        <time>2021-06-02T12:26:24.000Z</time>
      </trkpt>
      <trkpt lat="43.76648" lon="5.85017">
        <ele>425.66</ele>
        <time>2021-06-02T12:26:30.000Z</time>
      </trkpt>
      <trkpt lat="43.76639" lon="5.85021">
        <ele>432.43</ele>
        <time>2021-06-02T12:26:41.000Z</time>
      </trkpt>
      <trkpt lat="43.7663" lon="5.85026">
        <ele>438.24</ele>
        <time>2021-06-02T12:26:47.000Z</time>
      </trkpt>
      <trkpt lat="43.7662" lon="5.85033">
        <ele>441.08</ele>
        <time>2021-06-02T12:26:54.000Z</time>
      </trkpt>
      <trkpt lat="43.76606" lon="5.85039">
        <ele>438.37</ele>
        <time>2021-06-02T12:26:59.000Z</time>
      </trkpt>
      <trkpt lat="43.76596" lon="5.85044">
        <ele>438.29</ele>
        <time>2021-06-02T12:27:04.000Z</time>
      </trkpt>
      <trkpt lat="43.76588" lon="5.85054">
        <ele>446.14</ele>
        <time>2021-06-02T12:27:12.000Z</time>
      </trkpt>
      <trkpt lat="43.76576" lon="5.85061">
        <ele>443.45</ele>
        <time>2021-06-02T12:27:17.000Z</time>
      </trkpt>
      <trkpt lat="43.76567" lon="5.85069">
        <ele>445.09</ele>
        <time>2021-06-02T12:27:22.000Z</time>
      </trkpt>
      <trkpt lat="43.76559" lon="5.85078">
        <ele>454</ele>
        <time>2021-06-02T12:27:28.000Z</time>
      </trkpt>
      <trkpt lat="43.76552" lon="5.85086">
        <ele>455.35</ele>
        <time>2021-06-02T12:27:33.000Z</time>
      </trkpt>
      <trkpt lat="43.76545" lon="5.85096">
        <ele>456.34</ele>
        <time>2021-06-02T12:27:39.000Z</time>
      </trkpt>
      <trkpt lat="43.76537" lon="5.85106">
        <ele>458.1</ele>
        <time>2021-06-02T12:27:44.000Z</time>
      </trkpt>
      <trkpt lat="43.76527" lon="5.85115">
        <ele>458.27</ele>
        <time>2021-06-02T12:27:49.000Z</time>
      </trkpt>
      <trkpt lat="43.7652" lon="5.85126">
        <ele>460.28</ele>
        <time>2021-06-02T12:27:55.000Z</time>
      </trkpt>
      <trkpt lat="43.76513" lon="5.85135">
        <ele>462.27</ele>
        <time>2021-06-02T12:28:00.000Z</time>
      </trkpt>
      <trkpt lat="43.76498" lon="5.85142">
        <ele>459.77</ele>
        <time>2021-06-02T12:28:05.000Z</time>
      </trkpt>
      <trkpt lat="43.7649" lon="5.85151">
        <ele>460.33</ele>
        <time>2021-06-02T12:28:10.000Z</time>
      </trkpt>
      <trkpt lat="43.76482" lon="5.85158">
        <ele>463.29</ele>
        <time>2021-06-02T12:28:16.000Z</time>
      </trkpt>
      <trkpt lat="43.76473" lon="5.85165">
        <ele>465.29</ele>
        <time>2021-06-02T12:28:22.000Z</time>
      </trkpt>
      <trkpt lat="43.76457" lon="5.85172">
        <ele>463.1</ele>
        <time>2021-06-02T12:28:28.000Z</time>
      </trkpt>
      <trkpt lat="43.76448" lon="5.85178">
        <ele>460.29</ele>
        <time>2021-06-02T12:28:33.000Z</time>
      </trkpt>
      <trkpt lat="43.76438" lon="5.85184">
        <ele>463.29</ele>
        <time>2021-06-02T12:28:41.000Z</time>
      </trkpt>
      <trkpt lat="43.76429" lon="5.85192">
        <ele>466.1</ele>
        <time>2021-06-02T12:28:46.000Z</time>
      </trkpt>
      <trkpt lat="43.76421" lon="5.852">
        <ele>469.32</ele>
        <time>2021-06-02T12:28:52.000Z</time>
      </trkpt>
      <trkpt lat="43.76412" lon="5.85205">
        <ele>470.29</ele>
        <time>2021-06-02T12:28:57.000Z</time>
      </trkpt>
      <trkpt lat="43.76404" lon="5.85212">
        <ele>471.35</ele>
        <time>2021-06-02T12:29:02.000Z</time>
      </trkpt>
      <trkpt lat="43.76395" lon="5.85218">
        <ele>472.29</ele>
        <time>2021-06-02T12:29:07.000Z</time>
      </trkpt>
      <trkpt lat="43.76388" lon="5.8523">
        <ele>475.34</ele>
        <time>2021-06-02T12:29:14.000Z</time>
      </trkpt>
      <trkpt lat="43.76381" lon="5.85239">
        <ele>476.41</ele>
        <time>2021-06-02T12:29:19.000Z</time>
      </trkpt>
      <trkpt lat="43.76373" lon="5.85252">
        <ele>477.34</ele>
        <time>2021-06-02T12:29:24.000Z</time>
      </trkpt>
      <trkpt lat="43.76363" lon="5.85264">
        <ele>474.42</ele>
        <time>2021-06-02T12:29:29.000Z</time>
      </trkpt>
      <trkpt lat="43.76354" lon="5.85276">
        <ele>475.35</ele>
        <time>2021-06-02T12:29:34.000Z</time>
      </trkpt>
      <trkpt lat="43.76345" lon="5.85288">
        <ele>475.36</ele>
        <time>2021-06-02T12:29:39.000Z</time>
      </trkpt>
      <trkpt lat="43.76339" lon="5.85299">
        <ele>475.35</ele>
        <time>2021-06-02T12:29:44.000Z</time>
      </trkpt>
      <trkpt lat="43.76333" lon="5.85312">
        <ele>477.29</ele>
        <time>2021-06-02T12:29:49.000Z</time>
      </trkpt>
      <trkpt lat="43.76325" lon="5.85325">
        <ele>475.66</ele>
        <time>2021-06-02T12:29:54.000Z</time>
      </trkpt>
      <trkpt lat="43.76324" lon="5.8534">
        <ele>475.35</ele>
        <time>2021-06-02T12:29:59.000Z</time>
      </trkpt>
      <trkpt lat="43.76332" lon="5.85353">
        <ele>474.36</ele>
        <time>2021-06-02T12:30:04.000Z</time>
      </trkpt>
      <trkpt lat="43.76342" lon="5.85366">
        <ele>475.15</ele>
        <time>2021-06-02T12:30:09.000Z</time>
      </trkpt>
      <trkpt lat="43.76353" lon="5.85377">
        <ele>475.35</ele>
        <time>2021-06-02T12:30:14.000Z</time>
      </trkpt>
      <trkpt lat="43.76363" lon="5.85385">
        <ele>476.29</ele>
        <time>2021-06-02T12:30:19.000Z</time>
      </trkpt>
      <trkpt lat="43.76371" lon="5.85396">
        <ele>477.1</ele>
        <time>2021-06-02T12:30:24.000Z</time>
      </trkpt>
      <trkpt lat="43.76381" lon="5.85406">
        <ele>477.16</ele>
        <time>2021-06-02T12:30:29.000Z</time>
      </trkpt>
      <trkpt lat="43.76389" lon="5.85414">
        <ele>478.1</ele>
        <time>2021-06-02T12:30:34.000Z</time>
      </trkpt>
      <trkpt lat="43.764" lon="5.85425">
        <ele>477.35</ele>
        <time>2021-06-02T12:30:39.000Z</time>
      </trkpt>
      <trkpt lat="43.76415" lon="5.85438">
        <ele>476.41</ele>
        <time>2021-06-02T12:30:44.000Z</time>
      </trkpt>
      <trkpt lat="43.76431" lon="5.85449">
        <ele>476.35</ele>
        <time>2021-06-02T12:30:49.000Z</time>
      </trkpt>
      <trkpt lat="43.76454" lon="5.85462">
        <ele>474.65</ele>
        <time>2021-06-02T12:30:54.000Z</time>
      </trkpt>
      <trkpt lat="43.76481" lon="5.85486">
        <ele>474.16</ele>
        <time>2021-06-02T12:30:59.000Z</time>
      </trkpt>
      <trkpt lat="43.76509" lon="5.85501">
        <ele>473.35</ele>
        <time>2021-06-02T12:31:04.000Z</time>
      </trkpt>
      <trkpt lat="43.76535" lon="5.85507">
        <ele>475.04</ele>
        <time>2021-06-02T12:31:09.000Z</time>
      </trkpt>
      <trkpt lat="43.76556" lon="5.85508">
        <ele>475.35</ele>
        <time>2021-06-02T12:31:14.000Z</time>
      </trkpt>
      <trkpt lat="43.76578" lon="5.8551">
        <ele>474.36</ele>
        <time>2021-06-02T12:31:19.000Z</time>
      </trkpt>
      <trkpt lat="43.76603" lon="5.85506">
        <ele>474.35</ele>
        <time>2021-06-02T12:31:24.000Z</time>
      </trkpt>
      <trkpt lat="43.7663" lon="5.85509">
        <ele>473.36</ele>
        <time>2021-06-02T12:31:29.000Z</time>
      </trkpt>
      <trkpt lat="43.76656" lon="5.85528">
        <ele>472.35</ele>
        <time>2021-06-02T12:31:34.000Z</time>
      </trkpt>
      <trkpt lat="43.76677" lon="5.85557">
        <ele>471.36</ele>
        <time>2021-06-02T12:31:39.000Z</time>
      </trkpt>
      <trkpt lat="43.76691" lon="5.85585">
        <ele>474.27</ele>
        <time>2021-06-02T12:31:44.000Z</time>
      </trkpt>
      <trkpt lat="43.76698" lon="5.85616">
        <ele>475.28</ele>
        <time>2021-06-02T12:31:49.000Z</time>
      </trkpt>
      <trkpt lat="43.76704" lon="5.85648">
        <ele>474.35</ele>
        <time>2021-06-02T12:31:54.000Z</time>
      </trkpt>
      <trkpt lat="43.76707" lon="5.85681">
        <ele>474.34</ele>
        <time>2021-06-02T12:31:59.000Z</time>
      </trkpt>
      <trkpt lat="43.76708" lon="5.85717">
        <ele>475.09</ele>
        <time>2021-06-02T12:32:04.000Z</time>
      </trkpt>
      <trkpt lat="43.76704" lon="5.85745">
        <ele>475.34</ele>
        <time>2021-06-02T12:32:09.000Z</time>
      </trkpt>
      <trkpt lat="43.76698" lon="5.8577">
        <ele>476.33</ele>
        <time>2021-06-02T12:32:14.000Z</time>
      </trkpt>
      <trkpt lat="43.76692" lon="5.85793">
        <ele>477.33</ele>
        <time>2021-06-02T12:32:19.000Z</time>
      </trkpt>
      <trkpt lat="43.76687" lon="5.85817">
        <ele>478.34</ele>
        <time>2021-06-02T12:32:24.000Z</time>
      </trkpt>
      <trkpt lat="43.76682" lon="5.85844">
        <ele>478.34</ele>
        <time>2021-06-02T12:32:29.000Z</time>
      </trkpt>
      <trkpt lat="43.76682" lon="5.85877">
        <ele>478.34</ele>
        <time>2021-06-02T12:32:34.000Z</time>
      </trkpt>
      <trkpt lat="43.76686" lon="5.85914">
        <ele>478.34</ele>
        <time>2021-06-02T12:32:39.000Z</time>
      </trkpt>
      <trkpt lat="43.76692" lon="5.85949">
        <ele>479.29</ele>
        <time>2021-06-02T12:32:44.000Z</time>
      </trkpt>
      <trkpt lat="43.76701" lon="5.85975">
        <ele>482.32</ele>
        <time>2021-06-02T12:32:49.000Z</time>
      </trkpt>
      <trkpt lat="43.76712" lon="5.85991">
        <ele>484.27</ele>
        <time>2021-06-02T12:32:54.000Z</time>
      </trkpt>
      <trkpt lat="43.76723" lon="5.8601">
        <ele>485.32</ele>
        <time>2021-06-02T12:32:59.000Z</time>
      </trkpt>
      <trkpt lat="43.76733" lon="5.86033">
        <ele>486.34</ele>
        <time>2021-06-02T12:33:04.000Z</time>
      </trkpt>
      <trkpt lat="43.76743" lon="5.86059">
        <ele>486.34</ele>
        <time>2021-06-02T12:33:09.000Z</time>
      </trkpt>
      <trkpt lat="43.76757" lon="5.86087">
        <ele>485.59</ele>
        <time>2021-06-02T12:33:14.000Z</time>
      </trkpt>
      <trkpt lat="43.76771" lon="5.86114">
        <ele>485.34</ele>
        <time>2021-06-02T12:33:19.000Z</time>
      </trkpt>
      <trkpt lat="43.76783" lon="5.86137">
        <ele>486.33</ele>
        <time>2021-06-02T12:33:24.000Z</time>
      </trkpt>
      <trkpt lat="43.76794" lon="5.86161">
        <ele>487.33</ele>
        <time>2021-06-02T12:33:29.000Z</time>
      </trkpt>
      <trkpt lat="43.76809" lon="5.86186">
        <ele>486.34</ele>
        <time>2021-06-02T12:33:34.000Z</time>
      </trkpt>
      <trkpt lat="43.76826" lon="5.86206">
        <ele>486.34</ele>
        <time>2021-06-02T12:33:39.000Z</time>
      </trkpt>
      <trkpt lat="43.76846" lon="5.86224">
        <ele>487.34</ele>
        <time>2021-06-02T12:33:44.000Z</time>
      </trkpt>
      <trkpt lat="43.7687" lon="5.86238">
        <ele>488.13</ele>
        <time>2021-06-02T12:33:49.000Z</time>
      </trkpt>
      <trkpt lat="43.76896" lon="5.8625">
        <ele>488.29</ele>
        <time>2021-06-02T12:33:54.000Z</time>
      </trkpt>
      <trkpt lat="43.76919" lon="5.86261">
        <ele>489.09</ele>
        <time>2021-06-02T12:33:59.000Z</time>
      </trkpt>
      <trkpt lat="43.76938" lon="5.86272">
        <ele>491.07</ele>
        <time>2021-06-02T12:34:04.000Z</time>
      </trkpt>
      <trkpt lat="43.76957" lon="5.86283">
        <ele>492.33</ele>
        <time>2021-06-02T12:34:09.000Z</time>
      </trkpt>
      <trkpt lat="43.76978" lon="5.86294">
        <ele>494.08</ele>
        <time>2021-06-02T12:34:14.000Z</time>
      </trkpt>
      <trkpt lat="43.77" lon="5.863">
        <ele>494.32</ele>
        <time>2021-06-02T12:34:19.000Z</time>
      </trkpt>
      <trkpt lat="43.77022" lon="5.86306">
        <ele>494.33</ele>
        <time>2021-06-02T12:34:24.000Z</time>
      </trkpt>
      <trkpt lat="43.77046" lon="5.86309">
        <ele>493.4</ele>
        <time>2021-06-02T12:34:29.000Z</time>
      </trkpt>
      <trkpt lat="43.77077" lon="5.86312">
        <ele>490.65</ele>
        <time>2021-06-02T12:34:34.000Z</time>
      </trkpt>
      <trkpt lat="43.77108" lon="5.86309">
        <ele>490.33</ele>
        <time>2021-06-02T12:34:39.000Z</time>
      </trkpt>
      <trkpt lat="43.77138" lon="5.86309">
        <ele>489.34</ele>
        <time>2021-06-02T12:34:44.000Z</time>
      </trkpt>
      <trkpt lat="43.77162" lon="5.86327">
        <ele>489.28</ele>
        <time>2021-06-02T12:34:49.000Z</time>
      </trkpt>
      <trkpt lat="43.77179" lon="5.86349">
        <ele>489.33</ele>
        <time>2021-06-02T12:34:54.000Z</time>
      </trkpt>
      <trkpt lat="43.77197" lon="5.86373">
        <ele>489.32</ele>
        <time>2021-06-02T12:34:59.000Z</time>
      </trkpt>
      <trkpt lat="43.77214" lon="5.86394">
        <ele>489.32</ele>
        <time>2021-06-02T12:35:04.000Z</time>
      </trkpt>
      <trkpt lat="43.77229" lon="5.86415">
        <ele>490.27</ele>
        <time>2021-06-02T12:35:09.000Z</time>
      </trkpt>
      <trkpt lat="43.77247" lon="5.86441">
        <ele>489.59</ele>
        <time>2021-06-02T12:35:14.000Z</time>
      </trkpt>
      <trkpt lat="43.77264" lon="5.86475">
        <ele>489.14</ele>
        <time>2021-06-02T12:35:19.000Z</time>
      </trkpt>
      <trkpt lat="43.77277" lon="5.86512">
        <ele>489.33</ele>
        <time>2021-06-02T12:35:24.000Z</time>
      </trkpt>
      <trkpt lat="43.77291" lon="5.86546">
        <ele>488.58</ele>
        <time>2021-06-02T12:35:29.000Z</time>
      </trkpt>
      <trkpt lat="43.77304" lon="5.86579">
        <ele>487.58</ele>
        <time>2021-06-02T12:35:34.000Z</time>
      </trkpt>
      <trkpt lat="43.77321" lon="5.86614">
        <ele>488.08</ele>
        <time>2021-06-02T12:35:39.000Z</time>
      </trkpt>
      <trkpt lat="43.77334" lon="5.86653">
        <ele>487.37</ele>
        <time>2021-06-02T12:35:44.000Z</time>
      </trkpt>
      <trkpt lat="43.7735" lon="5.8669">
        <ele>489.26</ele>
        <time>2021-06-02T12:35:49.000Z</time>
      </trkpt>
      <trkpt lat="43.77373" lon="5.86709">
        <ele>490.32</ele>
        <time>2021-06-02T12:35:54.000Z</time>
      </trkpt>
      <trkpt lat="43.77392" lon="5.8672">
        <ele>492.06</ele>
        <time>2021-06-02T12:35:59.000Z</time>
      </trkpt>
      <trkpt lat="43.77411" lon="5.86732">
        <ele>493.31</ele>
        <time>2021-06-02T12:36:04.000Z</time>
      </trkpt>
      <trkpt lat="43.77431" lon="5.86739">
        <ele>493.51</ele>
        <time>2021-06-02T12:36:09.000Z</time>
      </trkpt>
      <trkpt lat="43.77458" lon="5.86745">
        <ele>493.32</ele>
        <time>2021-06-02T12:36:14.000Z</time>
      </trkpt>
      <trkpt lat="43.77488" lon="5.86748">
        <ele>494.08</ele>
        <time>2021-06-02T12:36:19.000Z</time>
      </trkpt>
      <trkpt lat="43.77518" lon="5.86755">
        <ele>494.37</ele>
        <time>2021-06-02T12:36:24.000Z</time>
      </trkpt>
      <trkpt lat="43.77541" lon="5.86779">
        <ele>494.32</ele>
        <time>2021-06-02T12:36:29.000Z</time>
      </trkpt>
      <trkpt lat="43.77555" lon="5.86807">
        <ele>495.33</ele>
        <time>2021-06-02T12:36:34.000Z</time>
      </trkpt>
      <trkpt lat="43.77563" lon="5.86836">
        <ele>496.01</ele>
        <time>2021-06-02T12:36:39.000Z</time>
      </trkpt>
      <trkpt lat="43.77567" lon="5.86864">
        <ele>495.26</ele>
        <time>2021-06-02T12:36:44.000Z</time>
      </trkpt>
      <trkpt lat="43.77574" lon="5.86893">
        <ele>495.55</ele>
        <time>2021-06-02T12:36:49.000Z</time>
      </trkpt>
      <trkpt lat="43.77581" lon="5.86925">
        <ele>495.32</ele>
        <time>2021-06-02T12:36:54.000Z</time>
      </trkpt>
      <trkpt lat="43.77589" lon="5.86959">
        <ele>495.32</ele>
        <time>2021-06-02T12:36:59.000Z</time>
      </trkpt>
      <trkpt lat="43.77597" lon="5.86992">
        <ele>496.07</ele>
        <time>2021-06-02T12:37:04.000Z</time>
      </trkpt>
      <trkpt lat="43.77606" lon="5.8703">
        <ele>495.32</ele>
        <time>2021-06-02T12:37:09.000Z</time>
      </trkpt>
      <trkpt lat="43.77617" lon="5.87066">
        <ele>495.3</ele>
        <time>2021-06-02T12:37:14.000Z</time>
      </trkpt>
      <trkpt lat="43.77626" lon="5.87101">
        <ele>495.32</ele>
        <time>2021-06-02T12:37:19.000Z</time>
      </trkpt>
      <trkpt lat="43.77632" lon="5.87132">
        <ele>495.32</ele>
        <time>2021-06-02T12:37:24.000Z</time>
      </trkpt>
      <trkpt lat="43.77638" lon="5.87161">
        <ele>498.19</ele>
        <time>2021-06-02T12:37:29.000Z</time>
      </trkpt>
      <trkpt lat="43.77639" lon="5.87199">
        <ele>498.32</ele>
        <time>2021-06-02T12:37:34.000Z</time>
      </trkpt>
      <trkpt lat="43.77628" lon="5.87239">
        <ele>498.32</ele>
        <time>2021-06-02T12:37:39.000Z</time>
      </trkpt>
      <trkpt lat="43.77618" lon="5.87274">
        <ele>498.32</ele>
        <time>2021-06-02T12:37:44.000Z</time>
      </trkpt>
      <trkpt lat="43.77608" lon="5.87304">
        <ele>498.36</ele>
        <time>2021-06-02T12:37:49.000Z</time>
      </trkpt>
      <trkpt lat="43.77595" lon="5.87337">
        <ele>498.33</ele>
        <time>2021-06-02T12:37:54.000Z</time>
      </trkpt>
      <trkpt lat="43.77581" lon="5.87368">
        <ele>497.32</ele>
        <time>2021-06-02T12:37:59.000Z</time>
      </trkpt>
      <trkpt lat="43.77566" lon="5.8739">
        <ele>497.32</ele>
        <time>2021-06-02T12:38:04.000Z</time>
      </trkpt>
      <trkpt lat="43.77548" lon="5.87397">
        <ele>497.08</ele>
        <time>2021-06-02T12:38:09.000Z</time>
      </trkpt>
      <trkpt lat="43.77528" lon="5.8741">
        <ele>496.32</ele>
        <time>2021-06-02T12:38:14.000Z</time>
      </trkpt>
      <trkpt lat="43.77507" lon="5.87427">
        <ele>496.32</ele>
        <time>2021-06-02T12:38:19.000Z</time>
      </trkpt>
      <trkpt lat="43.77485" lon="5.87442">
        <ele>494.58</ele>
        <time>2021-06-02T12:38:24.000Z</time>
      </trkpt>
      <trkpt lat="43.77461" lon="5.87448">
        <ele>494.32</ele>
        <time>2021-06-02T12:38:29.000Z</time>
      </trkpt>
      <trkpt lat="43.77445" lon="5.87473">
        <ele>494.32</ele>
        <time>2021-06-02T12:38:34.000Z</time>
      </trkpt>
      <trkpt lat="43.77424" lon="5.87495">
        <ele>493.32</ele>
        <time>2021-06-02T12:38:39.000Z</time>
      </trkpt>
      <trkpt lat="43.774" lon="5.87512">
        <ele>493.32</ele>
        <time>2021-06-02T12:38:44.000Z</time>
      </trkpt>
      <trkpt lat="43.77378" lon="5.87532">
        <ele>494.31</ele>
        <time>2021-06-02T12:38:49.000Z</time>
      </trkpt>
      <trkpt lat="43.77357" lon="5.8756">
        <ele>493.33</ele>
        <time>2021-06-02T12:38:54.000Z</time>
      </trkpt>
      <trkpt lat="43.77335" lon="5.87583">
        <ele>493.51</ele>
        <time>2021-06-02T12:38:59.000Z</time>
      </trkpt>
      <trkpt lat="43.7731" lon="5.87605">
        <ele>493.32</ele>
        <time>2021-06-02T12:39:04.000Z</time>
      </trkpt>
      <trkpt lat="43.77279" lon="5.87618">
        <ele>493.32</ele>
        <time>2021-06-02T12:39:09.000Z</time>
      </trkpt>
      <trkpt lat="43.77247" lon="5.87614">
        <ele>493.55</ele>
        <time>2021-06-02T12:39:14.000Z</time>
      </trkpt>
      <trkpt lat="43.77216" lon="5.87611">
        <ele>493.32</ele>
        <time>2021-06-02T12:39:19.000Z</time>
      </trkpt>
      <trkpt lat="43.77184" lon="5.87613">
        <ele>493.26</ele>
        <time>2021-06-02T12:39:24.000Z</time>
      </trkpt>
      <trkpt lat="43.77154" lon="5.87611">
        <ele>491.56</ele>
        <time>2021-06-02T12:39:29.000Z</time>
      </trkpt>
      <trkpt lat="43.77126" lon="5.87599">
        <ele>491.56</ele>
        <time>2021-06-02T12:39:34.000Z</time>
      </trkpt>
      <trkpt lat="43.77101" lon="5.87587">
        <ele>493.11</ele>
        <time>2021-06-02T12:39:39.000Z</time>
      </trkpt>
      <trkpt lat="43.7707" lon="5.87575">
        <ele>492.34</ele>
        <time>2021-06-02T12:39:44.000Z</time>
      </trkpt>
      <trkpt lat="43.77043" lon="5.87577">
        <ele>494.26</ele>
        <time>2021-06-02T12:39:49.000Z</time>
      </trkpt>
      <trkpt lat="43.77012" lon="5.87579">
        <ele>492.57</ele>
        <time>2021-06-02T12:39:54.000Z</time>
      </trkpt>
      <trkpt lat="43.76984" lon="5.8756">
        <ele>491.32</ele>
        <time>2021-06-02T12:39:59.000Z</time>
      </trkpt>
      <trkpt lat="43.76963" lon="5.87528">
        <ele>490.37</ele>
        <time>2021-06-02T12:40:04.000Z</time>
      </trkpt>
      <trkpt lat="43.76944" lon="5.87503">
        <ele>489.38</ele>
        <time>2021-06-02T12:40:09.000Z</time>
      </trkpt>
      <trkpt lat="43.76928" lon="5.87473">
        <ele>489.31</ele>
        <time>2021-06-02T12:40:14.000Z</time>
      </trkpt>
      <trkpt lat="43.76908" lon="5.87446">
        <ele>490.32</ele>
        <time>2021-06-02T12:40:19.000Z</time>
      </trkpt>
      <trkpt lat="43.76886" lon="5.87416">
        <ele>491.32</ele>
        <time>2021-06-02T12:40:24.000Z</time>
      </trkpt>
      <trkpt lat="43.76854" lon="5.87396">
        <ele>491.07</ele>
        <time>2021-06-02T12:40:29.000Z</time>
      </trkpt>
      <trkpt lat="43.76817" lon="5.87374">
        <ele>492</ele>
        <time>2021-06-02T12:40:34.000Z</time>
      </trkpt>
      <trkpt lat="43.76785" lon="5.8737">
        <ele>489.61</ele>
        <time>2021-06-02T12:40:39.000Z</time>
      </trkpt>
      <trkpt lat="43.76766" lon="5.8738">
        <ele>487.83</ele>
        <time>2021-06-02T12:40:44.000Z</time>
      </trkpt>
      <trkpt lat="43.76748" lon="5.87385">
        <ele>487.87</ele>
        <time>2021-06-02T12:40:49.000Z</time>
      </trkpt>
      <trkpt lat="43.76714" lon="5.87388">
        <ele>484.6</ele>
        <time>2021-06-02T12:40:54.000Z</time>
      </trkpt>
      <trkpt lat="43.76687" lon="5.8741">
        <ele>480.61</ele>
        <time>2021-06-02T12:40:59.000Z</time>
      </trkpt>
      <trkpt lat="43.7667" lon="5.87449">
        <ele>477.59</ele>
        <time>2021-06-02T12:41:04.000Z</time>
      </trkpt>
      <trkpt lat="43.76667" lon="5.87497">
        <ele>475.59</ele>
        <time>2021-06-02T12:41:09.000Z</time>
      </trkpt>
      <trkpt lat="43.76651" lon="5.87541">
        <ele>473.4</ele>
        <time>2021-06-02T12:41:14.000Z</time>
      </trkpt>
      <trkpt lat="43.76622" lon="5.87582">
        <ele>469.41</ele>
        <time>2021-06-02T12:41:19.000Z</time>
      </trkpt>
      <trkpt lat="43.76595" lon="5.87621">
        <ele>467.34</ele>
        <time>2021-06-02T12:41:24.000Z</time>
      </trkpt>
      <trkpt lat="43.76566" lon="5.87647">
        <ele>463.41</ele>
        <time>2021-06-02T12:41:29.000Z</time>
      </trkpt>
      <trkpt lat="43.76542" lon="5.87687">
        <ele>459.65</ele>
        <time>2021-06-02T12:41:34.000Z</time>
      </trkpt>
      <trkpt lat="43.76519" lon="5.87735">
        <ele>456.4</ele>
        <time>2021-06-02T12:41:39.000Z</time>
      </trkpt>
      <trkpt lat="43.76494" lon="5.87781">
        <ele>453.34</ele>
        <time>2021-06-02T12:41:44.000Z</time>
      </trkpt>
      <trkpt lat="43.7649" lon="5.87806">
        <ele>454.07</ele>
        <time>2021-06-02T12:41:49.000Z</time>
      </trkpt>
      <trkpt lat="43.7649" lon="5.87823">
        <ele>454.32</ele>
        <time>2021-06-02T12:41:54.000Z</time>
      </trkpt>
      <trkpt lat="43.76489" lon="5.8784">
        <ele>457.24</ele>
        <time>2021-06-02T12:41:59.000Z</time>
      </trkpt>
      <trkpt lat="43.76487" lon="5.87854">
        <ele>459.26</ele>
        <time>2021-06-02T12:42:04.000Z</time>
      </trkpt>
      <trkpt lat="43.76483" lon="5.87883">
        <ele>454.67</ele>
        <time>2021-06-02T12:42:09.000Z</time>
      </trkpt>
      <trkpt lat="43.76485" lon="5.87916">
        <ele>454.33</ele>
        <time>2021-06-02T12:42:14.000Z</time>
      </trkpt>
      <trkpt lat="43.76495" lon="5.87958">
        <ele>454.44</ele>
        <time>2021-06-02T12:42:19.000Z</time>
      </trkpt>
      <trkpt lat="43.76501" lon="5.8801">
        <ele>448.67</ele>
        <time>2021-06-02T12:42:24.000Z</time>
      </trkpt>
      <trkpt lat="43.765" lon="5.88051">
        <ele>442.47</ele>
        <time>2021-06-02T12:42:29.000Z</time>
      </trkpt>
      <trkpt lat="43.76478" lon="5.88069">
        <ele>437.41</ele>
        <time>2021-06-02T12:42:34.000Z</time>
      </trkpt>
      <trkpt lat="43.76457" lon="5.88087">
        <ele>432.65</ele>
        <time>2021-06-02T12:42:39.000Z</time>
      </trkpt>
      <trkpt lat="43.76438" lon="5.88106">
        <ele>426.67</ele>
        <time>2021-06-02T12:42:44.000Z</time>
      </trkpt>
      <trkpt lat="43.76419" lon="5.88124">
        <ele>422.4</ele>
        <time>2021-06-02T12:42:49.000Z</time>
      </trkpt>
      <trkpt lat="43.76393" lon="5.88135">
        <ele>416.66</ele>
        <time>2021-06-02T12:42:54.000Z</time>
      </trkpt>
      <trkpt lat="43.76371" lon="5.88147">
        <ele>412.64</ele>
        <time>2021-06-02T12:42:59.000Z</time>
      </trkpt>
      <trkpt lat="43.76344" lon="5.88162">
        <ele>409.39</ele>
        <time>2021-06-02T12:43:04.000Z</time>
      </trkpt>
      <trkpt lat="43.76318" lon="5.88182">
        <ele>402.9</ele>
        <time>2021-06-02T12:43:09.000Z</time>
      </trkpt>
      <trkpt lat="43.7629" lon="5.88202">
        <ele>398.65</ele>
        <time>2021-06-02T12:43:14.000Z</time>
      </trkpt>
      <trkpt lat="43.76252" lon="5.88223">
        <ele>396.39</ele>
        <time>2021-06-02T12:43:19.000Z</time>
      </trkpt>
      <trkpt lat="43.76216" lon="5.88252">
        <ele>393.64</ele>
        <time>2021-06-02T12:43:24.000Z</time>
      </trkpt>
      <trkpt lat="43.76185" lon="5.88281">
        <ele>393.32</ele>
        <time>2021-06-02T12:43:29.000Z</time>
      </trkpt>
      <trkpt lat="43.76169" lon="5.88302">
        <ele>391.59</ele>
        <time>2021-06-02T12:43:34.000Z</time>
      </trkpt>
      <trkpt lat="43.76162" lon="5.88329">
        <ele>387.58</ele>
        <time>2021-06-02T12:43:39.000Z</time>
      </trkpt>
      <trkpt lat="43.76139" lon="5.88346">
        <ele>386.12</ele>
        <time>2021-06-02T12:43:44.000Z</time>
      </trkpt>
      <trkpt lat="43.76114" lon="5.88355">
        <ele>385.76</ele>
        <time>2021-06-02T12:43:49.000Z</time>
      </trkpt>
      <trkpt lat="43.76106" lon="5.88374">
        <ele>385.32</ele>
        <time>2021-06-02T12:43:54.000Z</time>
      </trkpt>
      <trkpt lat="43.76103" lon="5.88386">
        <ele>384.33</ele>
        <time>2021-06-02T12:43:59.000Z</time>
      </trkpt>
      <trkpt lat="43.76089" lon="5.8841">
        <ele>382.39</ele>
        <time>2021-06-02T12:44:04.000Z</time>
      </trkpt>
      <trkpt lat="43.7607" lon="5.88436">
        <ele>379.4</ele>
        <time>2021-06-02T12:44:09.000Z</time>
      </trkpt>
      <trkpt lat="43.76054" lon="5.8846">
        <ele>376.34</ele>
        <time>2021-06-02T12:44:14.000Z</time>
      </trkpt>
      <trkpt lat="43.76044" lon="5.88477">
        <ele>373.58</ele>
        <time>2021-06-02T12:44:19.000Z</time>
      </trkpt>
      <trkpt lat="43.76043" lon="5.88499">
        <ele>369.46</ele>
        <time>2021-06-02T12:44:24.000Z</time>
      </trkpt>
      <trkpt lat="43.76051" lon="5.88516">
        <ele>369.26</ele>
        <time>2021-06-02T12:44:29.000Z</time>
      </trkpt>
      <trkpt lat="43.7605" lon="5.88531">
        <ele>368.32</ele>
        <time>2021-06-02T12:44:34.000Z</time>
      </trkpt>
      <trkpt lat="43.76051" lon="5.88544">
        <ele>364.4</ele>
        <time>2021-06-02T12:44:40.000Z</time>
      </trkpt>
      <trkpt lat="43.76043" lon="5.88551">
        <ele>362.34</ele>
        <time>2021-06-02T12:44:50.000Z</time>
      </trkpt>
      <trkpt lat="43.76052" lon="5.88554">
        <ele>360.31</ele>
        <time>2021-06-02T12:45:07.000Z</time>
      </trkpt>
      <trkpt lat="43.7605" lon="5.88573">
        <ele>362.3</ele>
        <time>2021-06-02T12:45:12.000Z</time>
      </trkpt>
      <trkpt lat="43.76041" lon="5.88616">
        <ele>361.57</ele>
        <time>2021-06-02T12:45:17.000Z</time>
      </trkpt>
      <trkpt lat="43.76018" lon="5.88657">
        <ele>359.39</ele>
        <time>2021-06-02T12:45:22.000Z</time>
      </trkpt>
      <trkpt lat="43.76004" lon="5.88704">
        <ele>357.34</ele>
        <time>2021-06-02T12:45:27.000Z</time>
      </trkpt>
      <trkpt lat="43.76004" lon="5.88729">
        <ele>356.14</ele>
        <time>2021-06-02T12:45:32.000Z</time>
      </trkpt>
      <trkpt lat="43.75983" lon="5.88762">
        <ele>353.88</ele>
        <time>2021-06-02T12:45:37.000Z</time>
      </trkpt>
      <trkpt lat="43.75947" lon="5.88795">
        <ele>345.97</ele>
        <time>2021-06-02T12:45:42.000Z</time>
      </trkpt>
      <trkpt lat="43.75907" lon="5.88805">
        <ele>343.76</ele>
        <time>2021-06-02T12:45:47.000Z</time>
      </trkpt>
      <trkpt lat="43.75867" lon="5.88807">
        <ele>343.38</ele>
        <time>2021-06-02T12:45:52.000Z</time>
      </trkpt>
      <trkpt lat="43.75843" lon="5.88807">
        <ele>342.32</ele>
        <time>2021-06-02T12:45:57.000Z</time>
      </trkpt>
      <trkpt lat="43.75823" lon="5.88799">
        <ele>340.58</ele>
        <time>2021-06-02T12:46:02.000Z</time>
      </trkpt>
      <trkpt lat="43.75815" lon="5.88789">
        <ele>337.28</ele>
        <time>2021-06-02T12:46:09.000Z</time>
      </trkpt>
      <trkpt lat="43.75807" lon="5.88782">
        <ele>341.4</ele>
        <time>2021-06-02T12:46:25.000Z</time>
      </trkpt>
      <trkpt lat="43.75798" lon="5.88786">
        <ele>338.4</ele>
        <time>2021-06-02T12:46:34.000Z</time>
      </trkpt>
      <trkpt lat="43.75776" lon="5.88809">
        <ele>338.32</ele>
        <time>2021-06-02T12:46:39.000Z</time>
      </trkpt>
      <trkpt lat="43.75755" lon="5.88832">
        <ele>333.6</ele>
        <time>2021-06-02T12:46:44.000Z</time>
      </trkpt>
      <trkpt lat="43.75738" lon="5.88855">
        <ele>330.56</ele>
        <time>2021-06-02T12:46:49.000Z</time>
      </trkpt>
      <trkpt lat="43.75737" lon="5.88892">
        <ele>330.27</ele>
        <time>2021-06-02T12:46:54.000Z</time>
      </trkpt>
      <trkpt lat="43.75712" lon="5.88936">
        <ele>325.77</ele>
        <time>2021-06-02T12:46:59.000Z</time>
      </trkpt>
      <trkpt lat="43.75695" lon="5.88978">
        <ele>325.88</ele>
        <time>2021-06-02T12:47:04.000Z</time>
      </trkpt>
      <trkpt lat="43.7567" lon="5.89014">
        <ele>327.3</ele>
        <time>2021-06-02T12:47:09.000Z</time>
      </trkpt>
      <trkpt lat="43.75625" lon="5.89033">
        <ele>325.29</ele>
        <time>2021-06-02T12:47:14.000Z</time>
      </trkpt>
      <trkpt lat="43.75596" lon="5.89044">
        <ele>323.82</ele>
        <time>2021-06-02T12:47:19.000Z</time>
      </trkpt>
      <trkpt lat="43.7556" lon="5.89055">
        <ele>321.58</ele>
        <time>2021-06-02T12:47:24.000Z</time>
      </trkpt>
      <trkpt lat="43.75524" lon="5.89067">
        <ele>316.35</ele>
        <time>2021-06-02T12:47:29.000Z</time>
      </trkpt>
      <trkpt lat="43.75491" lon="5.89084">
        <ele>315.63</ele>
        <time>2021-06-02T12:47:34.000Z</time>
      </trkpt>
      <trkpt lat="43.75462" lon="5.89082">
        <ele>315.33</ele>
        <time>2021-06-02T12:47:39.000Z</time>
      </trkpt>
      <trkpt lat="43.7545" lon="5.8904">
        <ele>312.78</ele>
        <time>2021-06-02T12:47:44.000Z</time>
      </trkpt>
      <trkpt lat="43.75443" lon="5.89002">
        <ele>312.31</ele>
        <time>2021-06-02T12:47:49.000Z</time>
      </trkpt>
      <trkpt lat="43.7542" lon="5.88988">
        <ele>311.34</ele>
        <time>2021-06-02T12:47:54.000Z</time>
      </trkpt>
      <trkpt lat="43.75389" lon="5.88991">
        <ele>307.58</ele>
        <time>2021-06-02T12:47:59.000Z</time>
      </trkpt>
      <trkpt lat="43.75361" lon="5.88996">
        <ele>308.32</ele>
        <time>2021-06-02T12:48:04.000Z</time>
      </trkpt>
      <trkpt lat="43.75333" lon="5.88993">
        <ele>309.07</ele>
        <time>2021-06-02T12:48:09.000Z</time>
      </trkpt>
      <trkpt lat="43.75317" lon="5.88961">
        <ele>308.34</ele>
        <time>2021-06-02T12:48:14.000Z</time>
      </trkpt>
      <trkpt lat="43.75311" lon="5.88919">
        <ele>307.39</ele>
        <time>2021-06-02T12:48:19.000Z</time>
      </trkpt>
      <trkpt lat="43.75306" lon="5.88875">
        <ele>307.33</ele>
        <time>2021-06-02T12:48:24.000Z</time>
      </trkpt>
      <trkpt lat="43.75304" lon="5.88832">
        <ele>309.06</ele>
        <time>2021-06-02T12:48:29.000Z</time>
      </trkpt>
      <trkpt lat="43.753" lon="5.88792">
        <ele>310.25</ele>
        <time>2021-06-02T12:48:34.000Z</time>
      </trkpt>
      <trkpt lat="43.75291" lon="5.88752">
        <ele>312.07</ele>
        <time>2021-06-02T12:48:39.000Z</time>
      </trkpt>
      <trkpt lat="43.75282" lon="5.88722">
        <ele>314.26</ele>
        <time>2021-06-02T12:48:44.000Z</time>
      </trkpt>
      <trkpt lat="43.75272" lon="5.88686">
        <ele>315.5</ele>
        <time>2021-06-02T12:48:49.000Z</time>
      </trkpt>
      <trkpt lat="43.75261" lon="5.88661">
        <ele>314.63</ele>
        <time>2021-06-02T12:48:54.000Z</time>
      </trkpt>
      <trkpt lat="43.75252" lon="5.88638">
        <ele>314.34</ele>
        <time>2021-06-02T12:48:59.000Z</time>
      </trkpt>
      <trkpt lat="43.75239" lon="5.88621">
        <ele>314.27</ele>
        <time>2021-06-02T12:49:04.000Z</time>
      </trkpt>
      <trkpt lat="43.75227" lon="5.88609">
        <ele>314.33</ele>
        <time>2021-06-02T12:49:09.000Z</time>
      </trkpt>
      <trkpt lat="43.75212" lon="5.88594">
        <ele>311.69</ele>
        <time>2021-06-02T12:49:14.000Z</time>
      </trkpt>
      <trkpt lat="43.75197" lon="5.88585">
        <ele>313.29</ele>
        <time>2021-06-02T12:49:19.000Z</time>
      </trkpt>
      <trkpt lat="43.75181" lon="5.88583">
        <ele>316.01</ele>
        <time>2021-06-02T12:49:24.000Z</time>
      </trkpt>
      <trkpt lat="43.75167" lon="5.88584">
        <ele>317.08</ele>
        <time>2021-06-02T12:49:29.000Z</time>
      </trkpt>
      <trkpt lat="43.75152" lon="5.88588">
        <ele>317.32</ele>
        <time>2021-06-02T12:49:34.000Z</time>
      </trkpt>
      <trkpt lat="43.75138" lon="5.88577">
        <ele>317.34</ele>
        <time>2021-06-02T12:49:39.000Z</time>
      </trkpt>
      <trkpt lat="43.75136" lon="5.88556">
        <ele>318.32</ele>
        <time>2021-06-02T12:49:44.000Z</time>
      </trkpt>
      <trkpt lat="43.7513" lon="5.88535">
        <ele>318.34</ele>
        <time>2021-06-02T12:49:49.000Z</time>
      </trkpt>
      <trkpt lat="43.75119" lon="5.8852">
        <ele>320.32</ele>
        <time>2021-06-02T12:49:54.000Z</time>
      </trkpt>
      <trkpt lat="43.75105" lon="5.88511">
        <ele>326.26</ele>
        <time>2021-06-02T12:49:59.000Z</time>
      </trkpt>
      <trkpt lat="43.75089" lon="5.88504">
        <ele>326.38</ele>
        <time>2021-06-02T12:50:04.000Z</time>
      </trkpt>
      <trkpt lat="43.75072" lon="5.88495">
        <ele>328.5</ele>
        <time>2021-06-02T12:50:09.000Z</time>
      </trkpt>
      <trkpt lat="43.75056" lon="5.88484">
        <ele>329.56</ele>
        <time>2021-06-02T12:50:14.000Z</time>
      </trkpt>
      <trkpt lat="43.75044" lon="5.88493">
        <ele>326.4</ele>
        <time>2021-06-02T12:50:19.000Z</time>
      </trkpt>
      <trkpt lat="43.75038" lon="5.88502">
        <ele>330.13</ele>
        <time>2021-06-02T12:50:27.000Z</time>
      </trkpt>
      <trkpt lat="43.75027" lon="5.88505">
        <ele>330.32</ele>
        <time>2021-06-02T12:50:33.000Z</time>
      </trkpt>
      <trkpt lat="43.75017" lon="5.88506">
        <ele>332.32</ele>
        <time>2021-06-02T12:50:39.000Z</time>
      </trkpt>
      <trkpt lat="43.75006" lon="5.88506">
        <ele>331.58</ele>
        <time>2021-06-02T12:50:44.000Z</time>
      </trkpt>
      <trkpt lat="43.74992" lon="5.88505">
        <ele>331.39</ele>
        <time>2021-06-02T12:50:49.000Z</time>
      </trkpt>
      <trkpt lat="43.74981" lon="5.88502">
        <ele>335.31</ele>
        <time>2021-06-02T12:50:54.000Z</time>
      </trkpt>
      <trkpt lat="43.7497" lon="5.88503">
        <ele>337.27</ele>
        <time>2021-06-02T12:50:59.000Z</time>
      </trkpt>
      <trkpt lat="43.74959" lon="5.88506">
        <ele>337.57</ele>
        <time>2021-06-02T12:51:04.000Z</time>
      </trkpt>
      <trkpt lat="43.7495" lon="5.88511">
        <ele>336.35</ele>
        <time>2021-06-02T12:51:09.000Z</time>
      </trkpt>
      <trkpt lat="43.74938" lon="5.88516">
        <ele>336.15</ele>
        <time>2021-06-02T12:51:14.000Z</time>
      </trkpt>
      <trkpt lat="43.74928" lon="5.88523">
        <ele>336.09</ele>
        <time>2021-06-02T12:51:19.000Z</time>
      </trkpt>
      <trkpt lat="43.74919" lon="5.88531">
        <ele>337.33</ele>
        <time>2021-06-02T12:51:24.000Z</time>
      </trkpt>
      <trkpt lat="43.74906" lon="5.88539">
        <ele>337.34</ele>
        <time>2021-06-02T12:51:29.000Z</time>
      </trkpt>
      <trkpt lat="43.74896" lon="5.88546">
        <ele>339.27</ele>
        <time>2021-06-02T12:51:34.000Z</time>
      </trkpt>
      <trkpt lat="43.74886" lon="5.88553">
        <ele>340.33</ele>
        <time>2021-06-02T12:51:39.000Z</time>
      </trkpt>
      <trkpt lat="43.74876" lon="5.88561">
        <ele>340.34</ele>
        <time>2021-06-02T12:51:44.000Z</time>
      </trkpt>
      <trkpt lat="43.74866" lon="5.88569">
        <ele>341.09</ele>
        <time>2021-06-02T12:51:49.000Z</time>
      </trkpt>
      <trkpt lat="43.74857" lon="5.88579">
        <ele>341.34</ele>
        <time>2021-06-02T12:51:54.000Z</time>
      </trkpt>
      <trkpt lat="43.74848" lon="5.88589">
        <ele>341.34</ele>
        <time>2021-06-02T12:51:59.000Z</time>
      </trkpt>
      <trkpt lat="43.74841" lon="5.88599">
        <ele>342.09</ele>
        <time>2021-06-02T12:52:04.000Z</time>
      </trkpt>
      <trkpt lat="43.74834" lon="5.88609">
        <ele>344.32</ele>
        <time>2021-06-02T12:52:09.000Z</time>
      </trkpt>
      <trkpt lat="43.74829" lon="5.88619">
        <ele>346.07</ele>
        <time>2021-06-02T12:52:14.000Z</time>
      </trkpt>
      <trkpt lat="43.74821" lon="5.88632">
        <ele>347.07</ele>
        <time>2021-06-02T12:52:19.000Z</time>
      </trkpt>
      <trkpt lat="43.7481" lon="5.88648">
        <ele>345.39</ele>
        <time>2021-06-02T12:52:24.000Z</time>
      </trkpt>
      <trkpt lat="43.74802" lon="5.88659">
        <ele>346.09</ele>
        <time>2021-06-02T12:52:29.000Z</time>
      </trkpt>
      <trkpt lat="43.74786" lon="5.88662">
        <ele>345.33</ele>
        <time>2021-06-02T12:52:34.000Z</time>
      </trkpt>
      <trkpt lat="43.74773" lon="5.88652">
        <ele>344.59</ele>
        <time>2021-06-02T12:52:39.000Z</time>
      </trkpt>
      <trkpt lat="43.74765" lon="5.88641">
        <ele>346.27</ele>
        <time>2021-06-02T12:52:44.000Z</time>
      </trkpt>
      <trkpt lat="43.74757" lon="5.88628">
        <ele>348.09</ele>
        <time>2021-06-02T12:52:49.000Z</time>
      </trkpt>
      <trkpt lat="43.74754" lon="5.88613">
        <ele>349.32</ele>
        <time>2021-06-02T12:52:54.000Z</time>
      </trkpt>
      <trkpt lat="43.74749" lon="5.88597">
        <ele>350.09</ele>
        <time>2021-06-02T12:52:59.000Z</time>
      </trkpt>
      <trkpt lat="43.74746" lon="5.8858">
        <ele>350.34</ele>
        <time>2021-06-02T12:53:04.000Z</time>
      </trkpt>
      <trkpt lat="43.7474" lon="5.88566">
        <ele>352.09</ele>
        <time>2021-06-02T12:53:09.000Z</time>
      </trkpt>
      <trkpt lat="43.74729" lon="5.88555">
        <ele>351.51</ele>
        <time>2021-06-02T12:53:14.000Z</time>
      </trkpt>
      <trkpt lat="43.74716" lon="5.88557">
        <ele>352.1</ele>
        <time>2021-06-02T12:53:19.000Z</time>
      </trkpt>
      <trkpt lat="43.74703" lon="5.88559">
        <ele>352.34</ele>
        <time>2021-06-02T12:53:24.000Z</time>
      </trkpt>
      <trkpt lat="43.74691" lon="5.88558">
        <ele>353.33</ele>
        <time>2021-06-02T12:53:29.000Z</time>
      </trkpt>
      <trkpt lat="43.74681" lon="5.88555">
        <ele>354.33</ele>
        <time>2021-06-02T12:53:34.000Z</time>
      </trkpt>
      <trkpt lat="43.74669" lon="5.88554">
        <ele>354.34</ele>
        <time>2021-06-02T12:53:39.000Z</time>
      </trkpt>
      <trkpt lat="43.74659" lon="5.88558">
        <ele>354.34</ele>
        <time>2021-06-02T12:53:44.000Z</time>
      </trkpt>
      <trkpt lat="43.7465" lon="5.88567">
        <ele>355.32</ele>
        <time>2021-06-02T12:53:49.000Z</time>
      </trkpt>
      <trkpt lat="43.74642" lon="5.88578">
        <ele>356.33</ele>
        <time>2021-06-02T12:53:54.000Z</time>
      </trkpt>
      <trkpt lat="43.74632" lon="5.88588">
        <ele>357.32</ele>
        <time>2021-06-02T12:53:59.000Z</time>
      </trkpt>
      <trkpt lat="43.7462" lon="5.88589">
        <ele>355.59</ele>
        <time>2021-06-02T12:54:04.000Z</time>
      </trkpt>
      <trkpt lat="43.7461" lon="5.88587">
        <ele>356.34</ele>
        <time>2021-06-02T12:54:09.000Z</time>
      </trkpt>
      <trkpt lat="43.74599" lon="5.88582">
        <ele>357.28</ele>
        <time>2021-06-02T12:54:14.000Z</time>
      </trkpt>
      <trkpt lat="43.74588" lon="5.88575">
        <ele>361.01</ele>
        <time>2021-06-02T12:54:19.000Z</time>
      </trkpt>
      <trkpt lat="43.74578" lon="5.88566">
        <ele>362.35</ele>
        <time>2021-06-02T12:54:24.000Z</time>
      </trkpt>
      <trkpt lat="43.74566" lon="5.88557">
        <ele>364.15</ele>
        <time>2021-06-02T12:54:29.000Z</time>
      </trkpt>
      <trkpt lat="43.74553" lon="5.88553">
        <ele>361.36</ele>
        <time>2021-06-02T12:54:34.000Z</time>
      </trkpt>
      <trkpt lat="43.74541" lon="5.88554">
        <ele>365.02</ele>
        <time>2021-06-02T12:54:39.000Z</time>
      </trkpt>
      <trkpt lat="43.74525" lon="5.88551">
        <ele>366.08</ele>
        <time>2021-06-02T12:54:44.000Z</time>
      </trkpt>
      <trkpt lat="43.7451" lon="5.88545">
        <ele>365.36</ele>
        <time>2021-06-02T12:54:49.000Z</time>
      </trkpt>
      <trkpt lat="43.74498" lon="5.88541">
        <ele>370.25</ele>
        <time>2021-06-02T12:54:54.000Z</time>
      </trkpt>
      <trkpt lat="43.74486" lon="5.88542">
        <ele>369.3</ele>
        <time>2021-06-02T12:54:59.000Z</time>
      </trkpt>
      <trkpt lat="43.74476" lon="5.88547">
        <ele>370.4</ele>
        <time>2021-06-02T12:55:04.000Z</time>
      </trkpt>
      <trkpt lat="43.74465" lon="5.88553">
        <ele>372.09</ele>
        <time>2021-06-02T12:55:09.000Z</time>
      </trkpt>
      <trkpt lat="43.7445" lon="5.8856">
        <ele>371.79</ele>
        <time>2021-06-02T12:55:14.000Z</time>
      </trkpt>
      <trkpt lat="43.74436" lon="5.88568">
        <ele>371.36</ele>
        <time>2021-06-02T12:55:19.000Z</time>
      </trkpt>
      <trkpt lat="43.74425" lon="5.88552">
        <ele>369.3</ele>
        <time>2021-06-02T12:55:24.000Z</time>
      </trkpt>
      <trkpt lat="43.74432" lon="5.88539">
        <ele>372.32</ele>
        <time>2021-06-02T12:55:29.000Z</time>
      </trkpt>
      <trkpt lat="43.74438" lon="5.88527">
        <ele>377.07</ele>
        <time>2021-06-02T12:55:34.000Z</time>
      </trkpt>
      <trkpt lat="43.74447" lon="5.88515">
        <ele>380.26</ele>
        <time>2021-06-02T12:55:39.000Z</time>
      </trkpt>
      <trkpt lat="43.74456" lon="5.88503">
        <ele>382.34</ele>
        <time>2021-06-02T12:55:44.000Z</time>
      </trkpt>
      <trkpt lat="43.74467" lon="5.88492">
        <ele>385.03</ele>
        <time>2021-06-02T12:55:49.000Z</time>
      </trkpt>
      <trkpt lat="43.74479" lon="5.88482">
        <ele>386.33</ele>
        <time>2021-06-02T12:55:54.000Z</time>
      </trkpt>
      <trkpt lat="43.7449" lon="5.88477">
        <ele>387.34</ele>
        <time>2021-06-02T12:55:59.000Z</time>
      </trkpt>
      <trkpt lat="43.74505" lon="5.88473">
        <ele>387.28</ele>
        <time>2021-06-02T12:56:04.000Z</time>
      </trkpt>
      <trkpt lat="43.74518" lon="5.88466">
        <ele>388.14</ele>
        <time>2021-06-02T12:56:09.000Z</time>
      </trkpt>
      <trkpt lat="43.7453" lon="5.88459">
        <ele>390.26</ele>
        <time>2021-06-02T12:56:14.000Z</time>
      </trkpt>
      <trkpt lat="43.74544" lon="5.88452">
        <ele>389.33</ele>
        <time>2021-06-02T12:56:19.000Z</time>
      </trkpt>
      <trkpt lat="43.74558" lon="5.88447">
        <ele>392.32</ele>
        <time>2021-06-02T12:56:24.000Z</time>
      </trkpt>
      <trkpt lat="43.7457" lon="5.88435">
        <ele>393.59</ele>
        <time>2021-06-02T12:56:29.000Z</time>
      </trkpt>
      <trkpt lat="43.74572" lon="5.88414">
        <ele>391.35</ele>
        <time>2021-06-02T12:56:34.000Z</time>
      </trkpt>
      <trkpt lat="43.74568" lon="5.88399">
        <ele>391.34</ele>
        <time>2021-06-02T12:56:39.000Z</time>
      </trkpt>
      <trkpt lat="43.74565" lon="5.8838">
        <ele>391.34</ele>
        <time>2021-06-02T12:56:44.000Z</time>
      </trkpt>
      <trkpt lat="43.74564" lon="5.88366">
        <ele>391.53</ele>
        <time>2021-06-02T12:56:49.000Z</time>
      </trkpt>
      <trkpt lat="43.74565" lon="5.88349">
        <ele>392.28</ele>
        <time>2021-06-02T12:56:54.000Z</time>
      </trkpt>
      <trkpt lat="43.74562" lon="5.88332">
        <ele>392.4</ele>
        <time>2021-06-02T12:56:59.000Z</time>
      </trkpt>
      <trkpt lat="43.74559" lon="5.88315">
        <ele>393.34</ele>
        <time>2021-06-02T12:57:04.000Z</time>
      </trkpt>
      <trkpt lat="43.74556" lon="5.88297">
        <ele>394.33</ele>
        <time>2021-06-02T12:57:09.000Z</time>
      </trkpt>
      <trkpt lat="43.74552" lon="5.88275">
        <ele>396.22</ele>
        <time>2021-06-02T12:57:14.000Z</time>
      </trkpt>
      <trkpt lat="43.74541" lon="5.88261">
        <ele>391.52</ele>
        <time>2021-06-02T12:57:19.000Z</time>
      </trkpt>
      <trkpt lat="43.74528" lon="5.88267">
        <ele>390.34</ele>
        <time>2021-06-02T12:57:24.000Z</time>
      </trkpt>
      <trkpt lat="43.74517" lon="5.88274">
        <ele>392.09</ele>
        <time>2021-06-02T12:57:29.000Z</time>
      </trkpt>
      <trkpt lat="43.74507" lon="5.88279">
        <ele>395.03</ele>
        <time>2021-06-02T12:57:34.000Z</time>
      </trkpt>
      <trkpt lat="43.74497" lon="5.88285">
        <ele>398.26</ele>
        <time>2021-06-02T12:57:39.000Z</time>
      </trkpt>
      <trkpt lat="43.74488" lon="5.88292">
        <ele>401.07</ele>
        <time>2021-06-02T12:57:44.000Z</time>
      </trkpt>
      <trkpt lat="43.74478" lon="5.88301">
        <ele>403.33</ele>
        <time>2021-06-02T12:57:49.000Z</time>
      </trkpt>
      <trkpt lat="43.74468" lon="5.88308">
        <ele>407.09</ele>
        <time>2021-06-02T12:57:54.000Z</time>
      </trkpt>
      <trkpt lat="43.74452" lon="5.88318">
        <ele>405.28</ele>
        <time>2021-06-02T12:57:59.000Z</time>
      </trkpt>
      <trkpt lat="43.74436" lon="5.88327">
        <ele>402.66</ele>
        <time>2021-06-02T12:58:04.000Z</time>
      </trkpt>
      <trkpt lat="43.74421" lon="5.8834">
        <ele>402.05</ele>
        <time>2021-06-02T12:58:09.000Z</time>
      </trkpt>
      <trkpt lat="43.74413" lon="5.88356">
        <ele>402.34</ele>
        <time>2021-06-02T12:58:14.000Z</time>
      </trkpt>
      <trkpt lat="43.74399" lon="5.88372">
        <ele>400.35</ele>
        <time>2021-06-02T12:58:19.000Z</time>
      </trkpt>
      <trkpt lat="43.74389" lon="5.88388">
        <ele>399.36</ele>
        <time>2021-06-02T12:58:24.000Z</time>
      </trkpt>
      <trkpt lat="43.7438" lon="5.88405">
        <ele>401.03</ele>
        <time>2021-06-02T12:58:29.000Z</time>
      </trkpt>
      <trkpt lat="43.74371" lon="5.88416">
        <ele>403.08</ele>
        <time>2021-06-02T12:58:34.000Z</time>
      </trkpt>
      <trkpt lat="43.7436" lon="5.88429">
        <ele>404.97</ele>
        <time>2021-06-02T12:58:39.000Z</time>
      </trkpt>
      <trkpt lat="43.74348" lon="5.88439">
        <ele>406.34</ele>
        <time>2021-06-02T12:58:44.000Z</time>
      </trkpt>
      <trkpt lat="43.74337" lon="5.88448">
        <ele>407.04</ele>
        <time>2021-06-02T12:58:49.000Z</time>
      </trkpt>
      <trkpt lat="43.74322" lon="5.88459">
        <ele>406.16</ele>
        <time>2021-06-02T12:58:54.000Z</time>
      </trkpt>
      <trkpt lat="43.74309" lon="5.88473">
        <ele>404.6</ele>
        <time>2021-06-02T12:58:59.000Z</time>
      </trkpt>
      <trkpt lat="43.74299" lon="5.88488">
        <ele>404.33</ele>
        <time>2021-06-02T12:59:04.000Z</time>
      </trkpt>
      <trkpt lat="43.74295" lon="5.88505">
        <ele>405.33</ele>
        <time>2021-06-02T12:59:09.000Z</time>
      </trkpt>
      <trkpt lat="43.74293" lon="5.88522">
        <ele>405.34</ele>
        <time>2021-06-02T12:59:14.000Z</time>
      </trkpt>
      <trkpt lat="43.74291" lon="5.8854">
        <ele>406.33</ele>
        <time>2021-06-02T12:59:19.000Z</time>
      </trkpt>
      <trkpt lat="43.74289" lon="5.88557">
        <ele>409.28</ele>
        <time>2021-06-02T12:59:24.000Z</time>
      </trkpt>
      <trkpt lat="43.74286" lon="5.88576">
        <ele>411.09</ele>
        <time>2021-06-02T12:59:29.000Z</time>
      </trkpt>
      <trkpt lat="43.74278" lon="5.88596">
        <ele>407.37</ele>
        <time>2021-06-02T12:59:34.000Z</time>
      </trkpt>
      <trkpt lat="43.74266" lon="5.88607">
        <ele>410.09</ele>
        <time>2021-06-02T12:59:39.000Z</time>
      </trkpt>
      <trkpt lat="43.74258" lon="5.88619">
        <ele>414.06</ele>
        <time>2021-06-02T12:59:44.000Z</time>
      </trkpt>
      <trkpt lat="43.74248" lon="5.88636">
        <ele>414.33</ele>
        <time>2021-06-02T12:59:49.000Z</time>
      </trkpt>
      <trkpt lat="43.74239" lon="5.88649">
        <ele>417.08</ele>
        <time>2021-06-02T12:59:54.000Z</time>
      </trkpt>
      <trkpt lat="43.74231" lon="5.88661">
        <ele>420.07</ele>
        <time>2021-06-02T12:59:59.000Z</time>
      </trkpt>
      <trkpt lat="43.74224" lon="5.88673">
        <ele>424.01</ele>
        <time>2021-06-02T13:00:04.000Z</time>
      </trkpt>
      <trkpt lat="43.74209" lon="5.88692">
        <ele>420.71</ele>
        <time>2021-06-02T13:00:09.000Z</time>
      </trkpt>
      <trkpt lat="43.74194" lon="5.88707">
        <ele>417.6</ele>
        <time>2021-06-02T13:00:14.000Z</time>
      </trkpt>
      <trkpt lat="43.74181" lon="5.8872">
        <ele>417.34</ele>
        <time>2021-06-02T13:00:19.000Z</time>
      </trkpt>
      <trkpt lat="43.74165" lon="5.88728">
        <ele>417.3</ele>
        <time>2021-06-02T13:00:24.000Z</time>
      </trkpt>
      <trkpt lat="43.74152" lon="5.88733">
        <ele>417.34</ele>
        <time>2021-06-02T13:00:29.000Z</time>
      </trkpt>
      <trkpt lat="43.74137" lon="5.88737">
        <ele>418.34</ele>
        <time>2021-06-02T13:00:34.000Z</time>
      </trkpt>
      <trkpt lat="43.74123" lon="5.88741">
        <ele>419.34</ele>
        <time>2021-06-02T13:00:39.000Z</time>
      </trkpt>
      <trkpt lat="43.74109" lon="5.88745">
        <ele>418.41</ele>
        <time>2021-06-02T13:00:44.000Z</time>
      </trkpt>
      <trkpt lat="43.74095" lon="5.88749">
        <ele>420.09</ele>
        <time>2021-06-02T13:00:49.000Z</time>
      </trkpt>
      <trkpt lat="43.74085" lon="5.88752">
        <ele>423.32</ele>
        <time>2021-06-02T13:00:54.000Z</time>
      </trkpt>
      <trkpt lat="43.7407" lon="5.88753">
        <ele>423.35</ele>
        <time>2021-06-02T13:00:59.000Z</time>
      </trkpt>
      <trkpt lat="43.74056" lon="5.8875">
        <ele>425.28</ele>
        <time>2021-06-02T13:01:04.000Z</time>
      </trkpt>
      <trkpt lat="43.74047" lon="5.88744">
        <ele>427.34</ele>
        <time>2021-06-02T13:01:09.000Z</time>
      </trkpt>
      <trkpt lat="43.74035" lon="5.88733">
        <ele>428.33</ele>
        <time>2021-06-02T13:01:14.000Z</time>
      </trkpt>
      <trkpt lat="43.7403" lon="5.8871">
        <ele>428.53</ele>
        <time>2021-06-02T13:01:19.000Z</time>
      </trkpt>
      <trkpt lat="43.74028" lon="5.88696">
        <ele>430.59</ele>
        <time>2021-06-02T13:01:24.000Z</time>
      </trkpt>
      <trkpt lat="43.74023" lon="5.88676">
        <ele>430.35</ele>
        <time>2021-06-02T13:01:29.000Z</time>
      </trkpt>
      <trkpt lat="43.74014" lon="5.88661">
        <ele>432.1</ele>
        <time>2021-06-02T13:01:34.000Z</time>
      </trkpt>
      <trkpt lat="43.74002" lon="5.88648">
        <ele>431.42</ele>
        <time>2021-06-02T13:01:39.000Z</time>
      </trkpt>
      <trkpt lat="43.73987" lon="5.88641">
        <ele>432.1</ele>
        <time>2021-06-02T13:01:44.000Z</time>
      </trkpt>
      <trkpt lat="43.73974" lon="5.88636">
        <ele>431.35</ele>
        <time>2021-06-02T13:01:49.000Z</time>
      </trkpt>
      <trkpt lat="43.73959" lon="5.88637">
        <ele>431.09</ele>
        <time>2021-06-02T13:01:54.000Z</time>
      </trkpt>
      <trkpt lat="43.73946" lon="5.88645">
        <ele>432.29</ele>
        <time>2021-06-02T13:01:59.000Z</time>
      </trkpt>
      <trkpt lat="43.73935" lon="5.88659">
        <ele>434.09</ele>
        <time>2021-06-02T13:02:04.000Z</time>
      </trkpt>
      <trkpt lat="43.73925" lon="5.88674">
        <ele>436.33</ele>
        <time>2021-06-02T13:02:09.000Z</time>
      </trkpt>
      <trkpt lat="43.73915" lon="5.88689">
        <ele>435.84</ele>
        <time>2021-06-02T13:02:14.000Z</time>
      </trkpt>
      <trkpt lat="43.73909" lon="5.8871">
        <ele>434.41</ele>
        <time>2021-06-02T13:02:19.000Z</time>
      </trkpt>
      <trkpt lat="43.73907" lon="5.88729">
        <ele>436.02</ele>
        <time>2021-06-02T13:02:24.000Z</time>
      </trkpt>
      <trkpt lat="43.73909" lon="5.88748">
        <ele>438.33</ele>
        <time>2021-06-02T13:02:29.000Z</time>
      </trkpt>
      <trkpt lat="43.7391" lon="5.88766">
        <ele>438.35</ele>
        <time>2021-06-02T13:02:34.000Z</time>
      </trkpt>
      <trkpt lat="43.7391" lon="5.88784">
        <ele>439.77</ele>
        <time>2021-06-02T13:02:39.000Z</time>
      </trkpt>
      <trkpt lat="43.73907" lon="5.88797">
        <ele>446.77</ele>
        <time>2021-06-02T13:02:45.000Z</time>
      </trkpt>
      <trkpt lat="43.73908" lon="5.88818">
        <ele>446.33</ele>
        <time>2021-06-02T13:02:50.000Z</time>
      </trkpt>
      <trkpt lat="43.73908" lon="5.88833">
        <ele>450.02</ele>
        <time>2021-06-02T13:02:55.000Z</time>
      </trkpt>
      <trkpt lat="43.73908" lon="5.88854">
        <ele>452.28</ele>
        <time>2021-06-02T13:03:00.000Z</time>
      </trkpt>
      <trkpt lat="43.73906" lon="5.88882">
        <ele>447.68</ele>
        <time>2021-06-02T13:03:05.000Z</time>
      </trkpt>
      <trkpt lat="43.73893" lon="5.88893">
        <ele>446.19</ele>
        <time>2021-06-02T13:03:10.000Z</time>
      </trkpt>
      <trkpt lat="43.7388" lon="5.88904">
        <ele>448.1</ele>
        <time>2021-06-02T13:03:15.000Z</time>
      </trkpt>
      <trkpt lat="43.73868" lon="5.88914">
        <ele>451.25</ele>
        <time>2021-06-02T13:03:20.000Z</time>
      </trkpt>
      <trkpt lat="43.73858" lon="5.88916">
        <ele>451.29</ele>
        <time>2021-06-02T13:03:25.000Z</time>
      </trkpt>
      <trkpt lat="43.73846" lon="5.88919">
        <ele>452.34</ele>
        <time>2021-06-02T13:03:30.000Z</time>
      </trkpt>
      <trkpt lat="43.73829" lon="5.88913">
        <ele>450.6</ele>
        <time>2021-06-02T13:03:35.000Z</time>
      </trkpt>
      <trkpt lat="43.73817" lon="5.88899">
        <ele>453.07</ele>
        <time>2021-06-02T13:03:40.000Z</time>
      </trkpt>
      <trkpt lat="43.73801" lon="5.88889">
        <ele>452.64</ele>
        <time>2021-06-02T13:03:45.000Z</time>
      </trkpt>
      <trkpt lat="43.73786" lon="5.88886">
        <ele>452.54</ele>
        <time>2021-06-02T13:03:50.000Z</time>
      </trkpt>
      <trkpt lat="43.73778" lon="5.88897">
        <ele>455.84</ele>
        <time>2021-06-02T13:03:55.000Z</time>
      </trkpt>
      <trkpt lat="43.73766" lon="5.8891">
        <ele>456.35</ele>
        <time>2021-06-02T13:04:00.000Z</time>
      </trkpt>
      <trkpt lat="43.73749" lon="5.88913">
        <ele>456.3</ele>
        <time>2021-06-02T13:04:05.000Z</time>
      </trkpt>
      <trkpt lat="43.73732" lon="5.88907">
        <ele>456.1</ele>
        <time>2021-06-02T13:04:10.000Z</time>
      </trkpt>
      <trkpt lat="43.7372" lon="5.88894">
        <ele>457.35</ele>
        <time>2021-06-02T13:04:15.000Z</time>
      </trkpt>
      <trkpt lat="43.73709" lon="5.88879">
        <ele>458.1</ele>
        <time>2021-06-02T13:04:20.000Z</time>
      </trkpt>
      <trkpt lat="43.73694" lon="5.88874">
        <ele>458.4</ele>
        <time>2021-06-02T13:04:25.000Z</time>
      </trkpt>
      <trkpt lat="43.73679" lon="5.88878">
        <ele>459.29</ele>
        <time>2021-06-02T13:04:30.000Z</time>
      </trkpt>
      <trkpt lat="43.73665" lon="5.88883">
        <ele>460.33</ele>
        <time>2021-06-02T13:04:35.000Z</time>
      </trkpt>
      <trkpt lat="43.73653" lon="5.8889">
        <ele>461.35</ele>
        <time>2021-06-02T13:04:40.000Z</time>
      </trkpt>
      <trkpt lat="43.73642" lon="5.889">
        <ele>462.35</ele>
        <time>2021-06-02T13:04:45.000Z</time>
      </trkpt>
      <trkpt lat="43.73629" lon="5.88912">
        <ele>463.33</ele>
        <time>2021-06-02T13:04:50.000Z</time>
      </trkpt>
      <trkpt lat="43.73619" lon="5.88925">
        <ele>464.33</ele>
        <time>2021-06-02T13:04:55.000Z</time>
      </trkpt>
      <trkpt lat="43.73607" lon="5.88941">
        <ele>464.35</ele>
        <time>2021-06-02T13:05:00.000Z</time>
      </trkpt>
      <trkpt lat="43.73592" lon="5.8895">
        <ele>465.1</ele>
        <time>2021-06-02T13:05:05.000Z</time>
      </trkpt>
      <trkpt lat="43.73577" lon="5.88957">
        <ele>465.36</ele>
        <time>2021-06-02T13:05:10.000Z</time>
      </trkpt>
      <trkpt lat="43.73564" lon="5.88969">
        <ele>466.35</ele>
        <time>2021-06-02T13:05:15.000Z</time>
      </trkpt>
      <trkpt lat="43.73553" lon="5.88983">
        <ele>467.29</ele>
        <time>2021-06-02T13:05:20.000Z</time>
      </trkpt>
      <trkpt lat="43.73545" lon="5.88999">
        <ele>468.35</ele>
        <time>2021-06-02T13:05:25.000Z</time>
      </trkpt>
      <trkpt lat="43.73537" lon="5.89016">
        <ele>470.35</ele>
        <time>2021-06-02T13:05:30.000Z</time>
      </trkpt>
      <trkpt lat="43.73528" lon="5.89034">
        <ele>471.35</ele>
        <time>2021-06-02T13:05:35.000Z</time>
      </trkpt>
      <trkpt lat="43.73514" lon="5.8905">
        <ele>471.16</ele>
        <time>2021-06-02T13:05:40.000Z</time>
      </trkpt>
      <trkpt lat="43.73501" lon="5.89061">
        <ele>472.1</ele>
        <time>2021-06-02T13:05:45.000Z</time>
      </trkpt>
      <trkpt lat="43.73488" lon="5.89072">
        <ele>473.35</ele>
        <time>2021-06-02T13:05:50.000Z</time>
      </trkpt>
      <trkpt lat="43.73475" lon="5.89083">
        <ele>473.35</ele>
        <time>2021-06-02T13:05:55.000Z</time>
      </trkpt>
      <trkpt lat="43.73464" lon="5.8909">
        <ele>474.3</ele>
        <time>2021-06-02T13:06:00.000Z</time>
      </trkpt>
      <trkpt lat="43.73454" lon="5.89092">
        <ele>475.35</ele>
        <time>2021-06-02T13:06:06.000Z</time>
      </trkpt>
      <trkpt lat="43.73445" lon="5.89087">
        <ele>476.29</ele>
        <time>2021-06-02T13:06:11.000Z</time>
      </trkpt>
      <trkpt lat="43.73433" lon="5.89075">
        <ele>476.41</ele>
        <time>2021-06-02T13:06:16.000Z</time>
      </trkpt>
      <trkpt lat="43.73418" lon="5.89057">
        <ele>476.15</ele>
        <time>2021-06-02T13:06:21.000Z</time>
      </trkpt>
      <trkpt lat="43.73401" lon="5.89042">
        <ele>476.17</ele>
        <time>2021-06-02T13:06:26.000Z</time>
      </trkpt>
      <trkpt lat="43.73383" lon="5.8903">
        <ele>477.35</ele>
        <time>2021-06-02T13:06:31.000Z</time>
      </trkpt>
      <trkpt lat="43.73364" lon="5.89022">
        <ele>478.29</ele>
        <time>2021-06-02T13:06:36.000Z</time>
      </trkpt>
      <trkpt lat="43.73342" lon="5.89022">
        <ele>474.44</ele>
        <time>2021-06-02T13:06:41.000Z</time>
      </trkpt>
      <trkpt lat="43.73327" lon="5.89016">
        <ele>476.15</ele>
        <time>2021-06-02T13:06:46.000Z</time>
      </trkpt>
      <trkpt lat="43.73316" lon="5.89007">
        <ele>480.03</ele>
        <time>2021-06-02T13:06:51.000Z</time>
      </trkpt>
      <trkpt lat="43.7331" lon="5.88997">
        <ele>481.35</ele>
        <time>2021-06-02T13:06:57.000Z</time>
      </trkpt>
      <trkpt lat="43.73309" lon="5.88983">
        <ele>482.35</ele>
        <time>2021-06-02T13:07:04.000Z</time>
      </trkpt>
      <trkpt lat="43.73309" lon="5.88968">
        <ele>481.36</ele>
        <time>2021-06-02T13:07:11.000Z</time>
      </trkpt>
      <trkpt lat="43.73309" lon="5.88954">
        <ele>481.35</ele>
        <time>2021-06-02T13:07:18.000Z</time>
      </trkpt>
      <trkpt lat="43.73309" lon="5.88939">
        <ele>480.61</ele>
        <time>2021-06-02T13:07:25.000Z</time>
      </trkpt>
      <trkpt lat="43.73313" lon="5.88927">
        <ele>483.35</ele>
        <time>2021-06-02T13:07:34.000Z</time>
      </trkpt>
      <trkpt lat="43.73318" lon="5.88917">
        <ele>485.35</ele>
        <time>2021-06-02T13:07:42.000Z</time>
      </trkpt>
      <trkpt lat="43.7332" lon="5.88902">
        <ele>486.35</ele>
        <time>2021-06-02T13:07:49.000Z</time>
      </trkpt>
      <trkpt lat="43.73319" lon="5.88888">
        <ele>489.09</ele>
        <time>2021-06-02T13:07:55.000Z</time>
      </trkpt>
      <trkpt lat="43.73317" lon="5.88874">
        <ele>489.34</ele>
        <time>2021-06-02T13:08:00.000Z</time>
      </trkpt>
      <trkpt lat="43.73318" lon="5.88859">
        <ele>489.35</ele>
        <time>2021-06-02T13:08:05.000Z</time>
      </trkpt>
      <trkpt lat="43.73322" lon="5.88847">
        <ele>489.56</ele>
        <time>2021-06-02T13:08:10.000Z</time>
      </trkpt>
      <trkpt lat="43.73324" lon="5.88825">
        <ele>490.42</ele>
        <time>2021-06-02T13:08:15.000Z</time>
      </trkpt>
      <trkpt lat="43.73323" lon="5.88792">
        <ele>487.61</ele>
        <time>2021-06-02T13:08:20.000Z</time>
      </trkpt>
      <trkpt lat="43.73323" lon="5.88756">
        <ele>485.38</ele>
        <time>2021-06-02T13:08:25.000Z</time>
      </trkpt>
      <trkpt lat="43.73323" lon="5.88728">
        <ele>482.69</ele>
        <time>2021-06-02T13:08:30.000Z</time>
      </trkpt>
      <trkpt lat="43.73323" lon="5.88711">
        <ele>481.36</ele>
        <time>2021-06-02T13:08:35.000Z</time>
      </trkpt>
      <trkpt lat="43.73323" lon="5.88698">
        <ele>479.42</ele>
        <time>2021-06-02T13:08:40.000Z</time>
      </trkpt>
      <trkpt lat="43.73324" lon="5.88682">
        <ele>477.62</ele>
        <time>2021-06-02T13:08:45.000Z</time>
      </trkpt>
      <trkpt lat="43.73325" lon="5.88662">
        <ele>475.42</ele>
        <time>2021-06-02T13:08:50.000Z</time>
      </trkpt>
      <trkpt lat="43.73329" lon="5.88626">
        <ele>472.62</ele>
        <time>2021-06-02T13:08:55.000Z</time>
      </trkpt>
      <trkpt lat="43.73339" lon="5.88587">
        <ele>472.36</ele>
        <time>2021-06-02T13:09:00.000Z</time>
      </trkpt>
      <trkpt lat="43.73336" lon="5.88558">
        <ele>472.36</ele>
        <time>2021-06-02T13:09:05.000Z</time>
      </trkpt>
      <trkpt lat="43.73338" lon="5.88545">
        <ele>471.42</ele>
        <time>2021-06-02T13:09:11.000Z</time>
      </trkpt>
      <trkpt lat="43.73346" lon="5.88533">
        <ele>467.7</ele>
        <time>2021-06-02T13:09:16.000Z</time>
      </trkpt>
      <trkpt lat="43.73357" lon="5.88531">
        <ele>464.63</ele>
        <time>2021-06-02T13:09:21.000Z</time>
      </trkpt>
      <trkpt lat="43.73369" lon="5.88525">
        <ele>462.44</ele>
        <time>2021-06-02T13:09:26.000Z</time>
      </trkpt>
      <trkpt lat="43.73388" lon="5.88517">
        <ele>457.69</ele>
        <time>2021-06-02T13:09:31.000Z</time>
      </trkpt>
      <trkpt lat="43.7341" lon="5.88499">
        <ele>455.62</ele>
        <time>2021-06-02T13:09:36.000Z</time>
      </trkpt>
      <trkpt lat="43.73421" lon="5.88481">
        <ele>454.61</ele>
        <time>2021-06-02T13:09:41.000Z</time>
      </trkpt>
      <trkpt lat="43.73432" lon="5.88471">
        <ele>454.36</ele>
        <time>2021-06-02T13:09:46.000Z</time>
      </trkpt>
      <trkpt lat="43.7344" lon="5.88461">
        <ele>453.36</ele>
        <time>2021-06-02T13:09:51.000Z</time>
      </trkpt>
      <trkpt lat="43.73449" lon="5.88443">
        <ele>453.17</ele>
        <time>2021-06-02T13:09:56.000Z</time>
      </trkpt>
      <trkpt lat="43.73456" lon="5.88429">
        <ele>450.36</ele>
        <time>2021-06-02T13:10:01.000Z</time>
      </trkpt>
      <trkpt lat="43.73466" lon="5.88428">
        <ele>450.59</ele>
        <time>2021-06-02T13:10:07.000Z</time>
      </trkpt>
      <trkpt lat="43.73476" lon="5.88421">
        <ele>451.3</ele>
        <time>2021-06-02T13:10:12.000Z</time>
      </trkpt>
      <trkpt lat="43.73487" lon="5.88417">
        <ele>451.36</ele>
        <time>2021-06-02T13:10:17.000Z</time>
      </trkpt>
      <trkpt lat="43.735" lon="5.88412">
        <ele>451.34</ele>
        <time>2021-06-02T13:10:22.000Z</time>
      </trkpt>
      <trkpt lat="43.73512" lon="5.88405">
        <ele>453.15</ele>
        <time>2021-06-02T13:10:27.000Z</time>
      </trkpt>
      <trkpt lat="43.73523" lon="5.88395">
        <ele>453.79</ele>
        <time>2021-06-02T13:10:32.000Z</time>
      </trkpt>
      <trkpt lat="43.7354" lon="5.88384">
        <ele>452.37</ele>
        <time>2021-06-02T13:10:37.000Z</time>
      </trkpt>
      <trkpt lat="43.73562" lon="5.88374">
        <ele>454.29</ele>
        <time>2021-06-02T13:10:42.000Z</time>
      </trkpt>
      <trkpt lat="43.73591" lon="5.88367">
        <ele>450.38</ele>
        <time>2021-06-02T13:10:47.000Z</time>
      </trkpt>
      <trkpt lat="43.73613" lon="5.88367">
        <ele>450.16</ele>
        <time>2021-06-02T13:10:52.000Z</time>
      </trkpt>
      <trkpt lat="43.7363" lon="5.88358">
        <ele>451.05</ele>
        <time>2021-06-02T13:10:57.000Z</time>
      </trkpt>
      <trkpt lat="43.73652" lon="5.88335">
        <ele>452.3</ele>
        <time>2021-06-02T13:11:02.000Z</time>
      </trkpt>
      <trkpt lat="43.73676" lon="5.88311">
        <ele>454.56</ele>
        <time>2021-06-02T13:11:07.000Z</time>
      </trkpt>
      <trkpt lat="43.73705" lon="5.88289">
        <ele>450.37</ele>
        <time>2021-06-02T13:11:12.000Z</time>
      </trkpt>
      <trkpt lat="43.73722" lon="5.88284">
        <ele>452.28</ele>
        <time>2021-06-02T13:11:17.000Z</time>
      </trkpt>
      <trkpt lat="43.73737" lon="5.88278">
        <ele>446.32</ele>
        <time>2021-06-02T13:11:22.000Z</time>
      </trkpt>
      <trkpt lat="43.73751" lon="5.88274">
        <ele>442.66</ele>
        <time>2021-06-02T13:11:27.000Z</time>
      </trkpt>
      <trkpt lat="43.7376" lon="5.88276">
        <ele>438.45</ele>
        <time>2021-06-02T13:11:32.000Z</time>
      </trkpt>
      <trkpt lat="43.7377" lon="5.88277">
        <ele>437.12</ele>
        <time>2021-06-02T13:11:40.000Z</time>
      </trkpt>
      <trkpt lat="43.73779" lon="5.88272">
        <ele>432.51</ele>
        <time>2021-06-02T13:11:45.000Z</time>
      </trkpt>
      <trkpt lat="43.7379" lon="5.88267">
        <ele>431.61</ele>
        <time>2021-06-02T13:11:50.000Z</time>
      </trkpt>
      <trkpt lat="43.738" lon="5.88264">
        <ele>430.62</ele>
        <time>2021-06-02T13:11:57.000Z</time>
      </trkpt>
      <trkpt lat="43.7381" lon="5.88262">
        <ele>429.37</ele>
        <time>2021-06-02T13:12:44.000Z</time>
      </trkpt>
      <trkpt lat="43.73802" lon="5.88253">
        <ele>427.34</ele>
        <time>2021-06-02T13:12:52.000Z</time>
      </trkpt>
      <trkpt lat="43.73795" lon="5.88244">
        <ele>428.34</ele>
        <time>2021-06-02T13:12:57.000Z</time>
      </trkpt>
      <trkpt lat="43.73785" lon="5.88234">
        <ele>428.12</ele>
        <time>2021-06-02T13:13:02.000Z</time>
      </trkpt>
      <trkpt lat="43.73776" lon="5.88223">
        <ele>428.36</ele>
        <time>2021-06-02T13:13:07.000Z</time>
      </trkpt>
      <trkpt lat="43.73768" lon="5.88204">
        <ele>429.34</ele>
        <time>2021-06-02T13:13:12.000Z</time>
      </trkpt>
      <trkpt lat="43.73761" lon="5.88184">
        <ele>429.36</ele>
        <time>2021-06-02T13:13:17.000Z</time>
      </trkpt>
      <trkpt lat="43.73754" lon="5.88166">
        <ele>432.35</ele>
        <time>2021-06-02T13:13:22.000Z</time>
      </trkpt>
      <trkpt lat="43.7375" lon="5.88137">
        <ele>428.86</ele>
        <time>2021-06-02T13:13:27.000Z</time>
      </trkpt>
      <trkpt lat="43.73745" lon="5.88099">
        <ele>425.61</ele>
        <time>2021-06-02T13:13:32.000Z</time>
      </trkpt>
      <trkpt lat="43.73743" lon="5.88069">
        <ele>423.48</ele>
        <time>2021-06-02T13:13:37.000Z</time>
      </trkpt>
      <trkpt lat="43.73734" lon="5.88045">
        <ele>421.37</ele>
        <time>2021-06-02T13:13:42.000Z</time>
      </trkpt>
      <trkpt lat="43.73727" lon="5.88021">
        <ele>418.38</ele>
        <time>2021-06-02T13:13:47.000Z</time>
      </trkpt>
      <trkpt lat="43.73718" lon="5.87987">
        <ele>418.59</ele>
        <time>2021-06-02T13:13:52.000Z</time>
      </trkpt>
      <trkpt lat="43.7372" lon="5.87967">
        <ele>416.63</ele>
        <time>2021-06-02T13:13:57.000Z</time>
      </trkpt>
      <trkpt lat="43.7372" lon="5.87951">
        <ele>416.36</ele>
        <time>2021-06-02T13:14:02.000Z</time>
      </trkpt>
      <trkpt lat="43.73718" lon="5.87932">
        <ele>416.36</ele>
        <time>2021-06-02T13:14:07.000Z</time>
      </trkpt>
      <trkpt lat="43.73712" lon="5.87909">
        <ele>416.36</ele>
        <time>2021-06-02T13:14:12.000Z</time>
      </trkpt>
      <trkpt lat="43.73707" lon="5.87893">
        <ele>414.38</ele>
        <time>2021-06-02T13:14:17.000Z</time>
      </trkpt>
      <trkpt lat="43.73701" lon="5.87882">
        <ele>413.61</ele>
        <time>2021-06-02T13:14:22.000Z</time>
      </trkpt>
      <trkpt lat="43.73696" lon="5.87871">
        <ele>408.6</ele>
        <time>2021-06-02T13:14:41.000Z</time>
      </trkpt>
      <trkpt lat="43.73696" lon="5.87858">
        <ele>403.41</ele>
        <time>2021-06-02T13:18:29.000Z</time>
      </trkpt>
      <trkpt lat="43.73683" lon="5.87845">
        <ele>398.69</ele>
        <time>2021-06-02T13:18:34.000Z</time>
      </trkpt>
      <trkpt lat="43.73677" lon="5.87836">
        <ele>396.43</ele>
        <time>2021-06-02T13:18:39.000Z</time>
      </trkpt>
      <trkpt lat="43.7367" lon="5.87828">
        <ele>393.68</ele>
        <time>2021-06-02T13:18:44.000Z</time>
      </trkpt>
      <trkpt lat="43.73666" lon="5.87815">
        <ele>389.88</ele>
        <time>2021-06-02T13:18:49.000Z</time>
      </trkpt>
      <trkpt lat="43.73669" lon="5.87802">
        <ele>386.68</ele>
        <time>2021-06-02T13:18:54.000Z</time>
      </trkpt>
      <trkpt lat="43.73671" lon="5.87788">
        <ele>383.44</ele>
        <time>2021-06-02T13:18:59.000Z</time>
      </trkpt>
      <trkpt lat="43.73668" lon="5.87776">
        <ele>380.68</ele>
        <time>2021-06-02T13:19:05.000Z</time>
      </trkpt>
      <trkpt lat="43.73665" lon="5.87759">
        <ele>377.62</ele>
        <time>2021-06-02T13:19:10.000Z</time>
      </trkpt>
      <trkpt lat="43.73662" lon="5.87738">
        <ele>372.74</ele>
        <time>2021-06-02T13:19:15.000Z</time>
      </trkpt>
      <trkpt lat="43.73664" lon="5.87713">
        <ele>370.62</ele>
        <time>2021-06-02T13:19:20.000Z</time>
      </trkpt>
      <trkpt lat="43.73667" lon="5.87691">
        <ele>368.63</ele>
        <time>2021-06-02T13:19:25.000Z</time>
      </trkpt>
      <trkpt lat="43.73671" lon="5.87665">
        <ele>366.62</ele>
        <time>2021-06-02T13:19:30.000Z</time>
      </trkpt>
      <trkpt lat="43.73672" lon="5.87636">
        <ele>362.69</ele>
        <time>2021-06-02T13:19:35.000Z</time>
      </trkpt>
      <trkpt lat="43.73677" lon="5.8761">
        <ele>360.63</ele>
        <time>2021-06-02T13:19:40.000Z</time>
      </trkpt>
      <trkpt lat="43.73685" lon="5.8758">
        <ele>357.69</ele>
        <time>2021-06-02T13:19:45.000Z</time>
      </trkpt>
      <trkpt lat="43.73692" lon="5.87567">
        <ele>356.43</ele>
        <time>2021-06-02T13:19:50.000Z</time>
      </trkpt>
      <trkpt lat="43.73697" lon="5.87557">
        <ele>352.62</ele>
        <time>2021-06-02T13:20:31.000Z</time>
      </trkpt>
      <trkpt lat="43.73703" lon="5.87546">
        <ele>352.37</ele>
        <time>2021-06-02T13:20:41.000Z</time>
      </trkpt>
      <trkpt lat="43.73707" lon="5.87532">
        <ele>351.61</ele>
        <time>2021-06-02T13:20:51.000Z</time>
      </trkpt>
      <trkpt lat="43.73712" lon="5.87519">
        <ele>349.37</ele>
        <time>2021-06-02T13:20:56.000Z</time>
      </trkpt>
      <trkpt lat="43.73725" lon="5.87518">
        <ele>347.43</ele>
        <time>2021-06-02T13:21:01.000Z</time>
      </trkpt>
      <trkpt lat="43.73728" lon="5.87498">
        <ele>347.36</ele>
        <time>2021-06-02T13:21:06.000Z</time>
      </trkpt>
      <trkpt lat="43.73733" lon="5.87486">
        <ele>347.11</ele>
        <time>2021-06-02T13:21:56.000Z</time>
      </trkpt>
      <trkpt lat="43.73741" lon="5.87472">
        <ele>347.11</ele>
        <time>2021-06-02T13:22:01.000Z</time>
      </trkpt>
      <trkpt lat="43.73747" lon="5.87455">
        <ele>344.58</ele>
        <time>2021-06-02T13:22:06.000Z</time>
      </trkpt>
      <trkpt lat="43.73741" lon="5.87441">
        <ele>341.37</ele>
        <time>2021-06-02T13:22:11.000Z</time>
      </trkpt>
      <trkpt lat="43.73725" lon="5.87451">
        <ele>342.3</ele>
        <time>2021-06-02T13:22:16.000Z</time>
      </trkpt>
      <trkpt lat="43.73708" lon="5.87467">
        <ele>341.38</ele>
        <time>2021-06-02T13:22:21.000Z</time>
      </trkpt>
      <trkpt lat="43.73688" lon="5.87477">
        <ele>342.36</ele>
        <time>2021-06-02T13:22:26.000Z</time>
      </trkpt>
      <trkpt lat="43.73671" lon="5.87495">
        <ele>343.36</ele>
        <time>2021-06-02T13:22:31.000Z</time>
      </trkpt>
      <trkpt lat="43.73654" lon="5.87508">
        <ele>343.37</ele>
        <time>2021-06-02T13:22:36.000Z</time>
      </trkpt>
      <trkpt lat="43.73642" lon="5.87512">
        <ele>345.3</ele>
        <time>2021-06-02T13:22:41.000Z</time>
      </trkpt>
      <trkpt lat="43.73638" lon="5.87524">
        <ele>349.1</ele>
        <time>2021-06-02T13:22:49.000Z</time>
      </trkpt>
      <trkpt lat="43.73634" lon="5.87536">
        <ele>353.28</ele>
        <time>2021-06-02T13:22:56.000Z</time>
      </trkpt>
      <trkpt lat="43.7363" lon="5.87549">
        <ele>355.3</ele>
        <time>2021-06-02T13:23:03.000Z</time>
      </trkpt>
      <trkpt lat="43.73625" lon="5.87561">
        <ele>358.36</ele>
        <time>2021-06-02T13:23:11.000Z</time>
      </trkpt>
      <trkpt lat="43.73621" lon="5.87574">
        <ele>357.42</ele>
        <time>2021-06-02T13:23:16.000Z</time>
      </trkpt>
      <trkpt lat="43.73616" lon="5.87585">
        <ele>358.36</ele>
        <time>2021-06-02T13:23:23.000Z</time>
      </trkpt>
      <trkpt lat="43.73612" lon="5.87598">
        <ele>358.36</ele>
        <time>2021-06-02T13:23:29.000Z</time>
      </trkpt>
      <trkpt lat="43.73605" lon="5.87607">
        <ele>361.35</ele>
        <time>2021-06-02T13:23:37.000Z</time>
      </trkpt>
      <trkpt lat="43.73598" lon="5.87618">
        <ele>362.35</ele>
        <time>2021-06-02T13:23:44.000Z</time>
      </trkpt>
      <trkpt lat="43.7359" lon="5.87626">
        <ele>364.11</ele>
        <time>2021-06-02T13:23:51.000Z</time>
      </trkpt>
      <trkpt lat="43.73583" lon="5.87636">
        <ele>367.29</ele>
        <time>2021-06-02T13:24:01.000Z</time>
      </trkpt>
      <trkpt lat="43.73575" lon="5.87643">
        <ele>368.35</ele>
        <time>2021-06-02T13:24:07.000Z</time>
      </trkpt>
      <trkpt lat="43.73568" lon="5.87652">
        <ele>368.6</ele>
        <time>2021-06-02T13:24:13.000Z</time>
      </trkpt>
      <trkpt lat="43.7356" lon="5.8766">
        <ele>370.3</ele>
        <time>2021-06-02T13:24:19.000Z</time>
      </trkpt>
      <trkpt lat="43.73555" lon="5.8767">
        <ele>371.36</ele>
        <time>2021-06-02T13:24:25.000Z</time>
      </trkpt>
      <trkpt lat="43.73547" lon="5.8768">
        <ele>373.36</ele>
        <time>2021-06-02T13:24:33.000Z</time>
      </trkpt>
      <trkpt lat="43.73541" lon="5.87692">
        <ele>371.87</ele>
        <time>2021-06-02T13:24:39.000Z</time>
      </trkpt>
      <trkpt lat="43.73538" lon="5.87704">
        <ele>373.11</ele>
        <time>2021-06-02T13:24:46.000Z</time>
      </trkpt>
      <trkpt lat="43.73541" lon="5.87718">
        <ele>374.36</ele>
        <time>2021-06-02T13:24:51.000Z</time>
      </trkpt>
      <trkpt lat="43.73545" lon="5.87731">
        <ele>375.3</ele>
        <time>2021-06-02T13:24:56.000Z</time>
      </trkpt>
      <trkpt lat="43.73551" lon="5.87742">
        <ele>376.35</ele>
        <time>2021-06-02T13:25:01.000Z</time>
      </trkpt>
      <trkpt lat="43.73557" lon="5.87752">
        <ele>377.11</ele>
        <time>2021-06-02T13:25:06.000Z</time>
      </trkpt>
      <trkpt lat="43.73561" lon="5.87765">
        <ele>377.36</ele>
        <time>2021-06-02T13:25:12.000Z</time>
      </trkpt>
      <trkpt lat="43.73559" lon="5.87778">
        <ele>380.11</ele>
        <time>2021-06-02T13:25:18.000Z</time>
      </trkpt>
      <trkpt lat="43.7356" lon="5.87792">
        <ele>381.35</ele>
        <time>2021-06-02T13:25:25.000Z</time>
      </trkpt>
      <trkpt lat="43.73557" lon="5.87805">
        <ele>383.36</ele>
        <time>2021-06-02T13:25:33.000Z</time>
      </trkpt>
      <trkpt lat="43.73557" lon="5.8782">
        <ele>383.6</ele>
        <time>2021-06-02T13:25:40.000Z</time>
      </trkpt>
      <trkpt lat="43.73557" lon="5.87833">
        <ele>385.3</ele>
        <time>2021-06-02T13:25:48.000Z</time>
      </trkpt>
      <trkpt lat="43.73555" lon="5.87847">
        <ele>388.41</ele>
        <time>2021-06-02T13:25:57.000Z</time>
      </trkpt>
      <trkpt lat="43.73554" lon="5.87861">
        <ele>389.36</ele>
        <time>2021-06-02T13:26:04.000Z</time>
      </trkpt>
      <trkpt lat="43.73554" lon="5.87874">
        <ele>389.35</ele>
        <time>2021-06-02T13:26:11.000Z</time>
      </trkpt>
      <trkpt lat="43.73554" lon="5.87887">
        <ele>389.36</ele>
        <time>2021-06-02T13:26:17.000Z</time>
      </trkpt>
      <trkpt lat="43.73555" lon="5.879">
        <ele>388.42</ele>
        <time>2021-06-02T13:26:23.000Z</time>
      </trkpt>
      <trkpt lat="43.73553" lon="5.87913">
        <ele>391.35</ele>
        <time>2021-06-02T13:26:31.000Z</time>
      </trkpt>
      <trkpt lat="43.73553" lon="5.87925">
        <ele>392.41</ele>
        <time>2021-06-02T13:26:37.000Z</time>
      </trkpt>
      <trkpt lat="43.73551" lon="5.87939">
        <ele>396.11</ele>
        <time>2021-06-02T13:26:45.000Z</time>
      </trkpt>
      <trkpt lat="43.73549" lon="5.87952">
        <ele>397.36</ele>
        <time>2021-06-02T13:26:51.000Z</time>
      </trkpt>
      <trkpt lat="43.73546" lon="5.87964">
        <ele>397.36</ele>
        <time>2021-06-02T13:26:58.000Z</time>
      </trkpt>
      <trkpt lat="43.73545" lon="5.87977">
        <ele>399.06</ele>
        <time>2021-06-02T13:27:03.000Z</time>
      </trkpt>
      <trkpt lat="43.73544" lon="5.8799">
        <ele>400.36</ele>
        <time>2021-06-02T13:27:10.000Z</time>
      </trkpt>
      <trkpt lat="43.73542" lon="5.88002">
        <ele>402.34</ele>
        <time>2021-06-02T13:27:16.000Z</time>
      </trkpt>
      <trkpt lat="43.73537" lon="5.88014">
        <ele>406.09</ele>
        <time>2021-06-02T13:27:24.000Z</time>
      </trkpt>
      <trkpt lat="43.73536" lon="5.88028">
        <ele>409.09</ele>
        <time>2021-06-02T13:27:32.000Z</time>
      </trkpt>
      <trkpt lat="43.73533" lon="5.88042">
        <ele>410.36</ele>
        <time>2021-06-02T13:27:40.000Z</time>
      </trkpt>
      <trkpt lat="43.73533" lon="5.88055">
        <ele>410.36</ele>
        <time>2021-06-02T13:27:46.000Z</time>
      </trkpt>
      <trkpt lat="43.73527" lon="5.88067">
        <ele>412.59</ele>
        <time>2021-06-02T13:27:55.000Z</time>
      </trkpt>
      <trkpt lat="43.73523" lon="5.88079">
        <ele>413.36</ele>
        <time>2021-06-02T13:28:02.000Z</time>
      </trkpt>
      <trkpt lat="43.7352" lon="5.88091">
        <ele>414.16</ele>
        <time>2021-06-02T13:28:10.000Z</time>
      </trkpt>
      <trkpt lat="43.73519" lon="5.88104">
        <ele>413.35</ele>
        <time>2021-06-02T13:28:16.000Z</time>
      </trkpt>
      <trkpt lat="43.73518" lon="5.88118">
        <ele>413.36</ele>
        <time>2021-06-02T13:28:39.000Z</time>
      </trkpt>
      <trkpt lat="43.73521" lon="5.8813">
        <ele>415.59</ele>
        <time>2021-06-02T13:28:46.000Z</time>
      </trkpt>
      <trkpt lat="43.73523" lon="5.88144">
        <ele>418.34</ele>
        <time>2021-06-02T13:28:53.000Z</time>
      </trkpt>
      <trkpt lat="43.73524" lon="5.88157">
        <ele>421.29</ele>
        <time>2021-06-02T13:29:01.000Z</time>
      </trkpt>
      <trkpt lat="43.73526" lon="5.88169">
        <ele>419.31</ele>
        <time>2021-06-02T13:29:10.000Z</time>
      </trkpt>
      <trkpt lat="43.73525" lon="5.88182">
        <ele>420.34</ele>
        <time>2021-06-02T13:29:21.000Z</time>
      </trkpt>
      <trkpt lat="43.73525" lon="5.88195">
        <ele>424.29</ele>
        <time>2021-06-02T13:29:35.000Z</time>
      </trkpt>
      <trkpt lat="43.73515" lon="5.88194">
        <ele>422.35</ele>
        <time>2021-06-02T13:30:02.000Z</time>
      </trkpt>
      <trkpt lat="43.73508" lon="5.88185">
        <ele>423.11</ele>
        <time>2021-06-02T13:30:09.000Z</time>
      </trkpt>
      <trkpt lat="43.73499" lon="5.88178">
        <ele>424.31</ele>
        <time>2021-06-02T13:30:17.000Z</time>
      </trkpt>
      <trkpt lat="43.7349" lon="5.88181">
        <ele>425.36</ele>
        <time>2021-06-02T13:30:22.000Z</time>
      </trkpt>
      <trkpt lat="43.7348" lon="5.88187">
        <ele>427.11</ele>
        <time>2021-06-02T13:30:27.000Z</time>
      </trkpt>
      <trkpt lat="43.7347" lon="5.8819">
        <ele>429.11</ele>
        <time>2021-06-02T13:30:32.000Z</time>
      </trkpt>
      <trkpt lat="43.73462" lon="5.88184">
        <ele>431.09</ele>
        <time>2021-06-02T13:30:37.000Z</time>
      </trkpt>
      <trkpt lat="43.73454" lon="5.88175">
        <ele>432.11</ele>
        <time>2021-06-02T13:30:44.000Z</time>
      </trkpt>
      <trkpt lat="43.7345" lon="5.88164">
        <ele>434.05</ele>
        <time>2021-06-02T13:30:50.000Z</time>
      </trkpt>
      <trkpt lat="43.73441" lon="5.88169">
        <ele>435.3</ele>
        <time>2021-06-02T13:30:58.000Z</time>
      </trkpt>
      <trkpt lat="43.73437" lon="5.88181">
        <ele>437.3</ele>
        <time>2021-06-02T13:31:04.000Z</time>
      </trkpt>
      <trkpt lat="43.73432" lon="5.88192">
        <ele>441.36</ele>
        <time>2021-06-02T13:31:12.000Z</time>
      </trkpt>
      <trkpt lat="43.73429" lon="5.88206">
        <ele>441.41</ele>
        <time>2021-06-02T13:31:18.000Z</time>
      </trkpt>
      <trkpt lat="43.73422" lon="5.88218">
        <ele>442.61</ele>
        <time>2021-06-02T13:31:25.000Z</time>
      </trkpt>
      <trkpt lat="43.73417" lon="5.88229">
        <ele>443.36</ele>
        <time>2021-06-02T13:31:30.000Z</time>
      </trkpt>
      <trkpt lat="43.73417" lon="5.88242">
        <ele>446.3</ele>
        <time>2021-06-02T13:31:38.000Z</time>
      </trkpt>
      <trkpt lat="43.73418" lon="5.88255">
        <ele>447.36</ele>
        <time>2021-06-02T13:31:44.000Z</time>
      </trkpt>
      <trkpt lat="43.73421" lon="5.88267">
        <ele>449.11</ele>
        <time>2021-06-02T13:31:50.000Z</time>
      </trkpt>
      <trkpt lat="43.73421" lon="5.88281">
        <ele>450.36</ele>
        <time>2021-06-02T13:31:57.000Z</time>
      </trkpt>
      <trkpt lat="43.73423" lon="5.88294">
        <ele>452.34</ele>
        <time>2021-06-02T13:32:04.000Z</time>
      </trkpt>
      <trkpt lat="43.73428" lon="5.88305">
        <ele>454.11</ele>
        <time>2021-06-02T13:32:10.000Z</time>
      </trkpt>
      <trkpt lat="43.73435" lon="5.88312">
        <ele>456.3</ele>
        <time>2021-06-02T13:32:16.000Z</time>
      </trkpt>
      <trkpt lat="43.73443" lon="5.88322">
        <ele>459.36</ele>
        <time>2021-06-02T13:32:24.000Z</time>
      </trkpt>
      <trkpt lat="43.73449" lon="5.88332">
        <ele>461.3</ele>
        <time>2021-06-02T13:32:32.000Z</time>
      </trkpt>
      <trkpt lat="43.73453" lon="5.88344">
        <ele>462.36</ele>
        <time>2021-06-02T13:32:40.000Z</time>
      </trkpt>
      <trkpt lat="43.73457" lon="5.88358">
        <ele>464.3</ele>
        <time>2021-06-02T13:32:48.000Z</time>
      </trkpt>
      <trkpt lat="43.73459" lon="5.88372">
        <ele>466.3</ele>
        <time>2021-06-02T13:32:56.000Z</time>
      </trkpt>
      <trkpt lat="43.7346" lon="5.88386">
        <ele>465.61</ele>
        <time>2021-06-02T13:33:03.000Z</time>
      </trkpt>
      <trkpt lat="43.73461" lon="5.88399">
        <ele>465.37</ele>
        <time>2021-06-02T13:33:08.000Z</time>
      </trkpt>
      <trkpt lat="43.73456" lon="5.8842">
        <ele>461.64</ele>
        <time>2021-06-02T13:33:13.000Z</time>
      </trkpt>
      <trkpt lat="43.73446" lon="5.88422">
        <ele>457.44</ele>
        <time>2021-06-02T13:33:21.000Z</time>
      </trkpt>
      <trkpt lat="43.73438" lon="5.88414">
        <ele>455.61</ele>
        <time>2021-06-02T13:33:26.000Z</time>
      </trkpt>
      <trkpt lat="43.73428" lon="5.88408">
        <ele>453.43</ele>
        <time>2021-06-02T13:33:31.000Z</time>
      </trkpt>
      <trkpt lat="43.73419" lon="5.88395">
        <ele>449.44</ele>
        <time>2021-06-02T13:33:36.000Z</time>
      </trkpt>
      <trkpt lat="43.73407" lon="5.88381">
        <ele>446.63</ele>
        <time>2021-06-02T13:33:41.000Z</time>
      </trkpt>
      <trkpt lat="43.7339" lon="5.88376">
        <ele>441.69</ele>
        <time>2021-06-02T13:33:46.000Z</time>
      </trkpt>
      <trkpt lat="43.73374" lon="5.88368">
        <ele>438.63</ele>
        <time>2021-06-02T13:33:51.000Z</time>
      </trkpt>
      <trkpt lat="43.73354" lon="5.8835">
        <ele>435.44</ele>
        <time>2021-06-02T13:33:56.000Z</time>
      </trkpt>
      <trkpt lat="43.73339" lon="5.8837">
        <ele>433.43</ele>
        <time>2021-06-02T13:34:01.000Z</time>
      </trkpt>
      <trkpt lat="43.73326" lon="5.88385">
        <ele>431.38</ele>
        <time>2021-06-02T13:34:06.000Z</time>
      </trkpt>
      <trkpt lat="43.7331" lon="5.88385">
        <ele>428.62</ele>
        <time>2021-06-02T13:34:11.000Z</time>
      </trkpt>
      <trkpt lat="43.73292" lon="5.88383">
        <ele>425.63</ele>
        <time>2021-06-02T13:34:16.000Z</time>
      </trkpt>
      <trkpt lat="43.7328" lon="5.88375">
        <ele>421.49</ele>
        <time>2021-06-02T13:34:21.000Z</time>
      </trkpt>
      <trkpt lat="43.7327" lon="5.88355">
        <ele>416.46</ele>
        <time>2021-06-02T13:34:26.000Z</time>
      </trkpt>
      <trkpt lat="43.73254" lon="5.88346">
        <ele>412.51</ele>
        <time>2021-06-02T13:34:31.000Z</time>
      </trkpt>
      <trkpt lat="43.73241" lon="5.88344">
        <ele>409.68</ele>
        <time>2021-06-02T13:34:36.000Z</time>
      </trkpt>
      <trkpt lat="43.73222" lon="5.88338">
        <ele>405.68</ele>
        <time>2021-06-02T13:34:41.000Z</time>
      </trkpt>
      <trkpt lat="43.73205" lon="5.88334">
        <ele>402.68</ele>
        <time>2021-06-02T13:34:46.000Z</time>
      </trkpt>
      <trkpt lat="43.73193" lon="5.88321">
        <ele>399.63</ele>
        <time>2021-06-02T13:34:51.000Z</time>
      </trkpt>
      <trkpt lat="43.73183" lon="5.88298">
        <ele>396.44</ele>
        <time>2021-06-02T13:34:56.000Z</time>
      </trkpt>
      <trkpt lat="43.7317" lon="5.88275">
        <ele>392.69</ele>
        <time>2021-06-02T13:35:01.000Z</time>
      </trkpt>
      <trkpt lat="43.7315" lon="5.88263">
        <ele>389.44</ele>
        <time>2021-06-02T13:35:06.000Z</time>
      </trkpt>
      <trkpt lat="43.73139" lon="5.8823">
        <ele>385.68</ele>
        <time>2021-06-02T13:35:11.000Z</time>
      </trkpt>
      <trkpt lat="43.73144" lon="5.88184">
        <ele>381.68</ele>
        <time>2021-06-02T13:35:16.000Z</time>
      </trkpt>
      <trkpt lat="43.73137" lon="5.88148">
        <ele>377.64</ele>
        <time>2021-06-02T13:35:21.000Z</time>
      </trkpt>
      <trkpt lat="43.73121" lon="5.88111">
        <ele>375.62</ele>
        <time>2021-06-02T13:35:26.000Z</time>
      </trkpt>
      <trkpt lat="43.73104" lon="5.88094">
        <ele>372.45</ele>
        <time>2021-06-02T13:35:31.000Z</time>
      </trkpt>
      <trkpt lat="43.73094" lon="5.88095">
        <ele>374.11</ele>
        <time>2021-06-02T13:35:36.000Z</time>
      </trkpt>
      <trkpt lat="43.73091" lon="5.88107">
        <ele>374.55</ele>
        <time>2021-06-02T13:35:43.000Z</time>
      </trkpt>
      <trkpt lat="43.73091" lon="5.88119">
        <ele>375.37</ele>
        <time>2021-06-02T13:35:49.000Z</time>
      </trkpt>
      <trkpt lat="43.73092" lon="5.88132">
        <ele>376.37</ele>
        <time>2021-06-02T13:35:55.000Z</time>
      </trkpt>
      <trkpt lat="43.73095" lon="5.88146">
        <ele>379.3</ele>
        <time>2021-06-02T13:36:02.000Z</time>
      </trkpt>
      <trkpt lat="43.73092" lon="5.88158">
        <ele>382.32</ele>
        <time>2021-06-02T13:36:10.000Z</time>
      </trkpt>
      <trkpt lat="43.7309" lon="5.88171">
        <ele>383.32</ele>
        <time>2021-06-02T13:36:17.000Z</time>
      </trkpt>
      <trkpt lat="43.73089" lon="5.88184">
        <ele>386.11</ele>
        <time>2021-06-02T13:36:25.000Z</time>
      </trkpt>
      <trkpt lat="43.73089" lon="5.88197">
        <ele>386.37</ele>
        <time>2021-06-02T13:36:31.000Z</time>
      </trkpt>
      <trkpt lat="43.73089" lon="5.8821">
        <ele>388.11</ele>
        <time>2021-06-02T13:36:38.000Z</time>
      </trkpt>
      <trkpt lat="43.73089" lon="5.88223">
        <ele>389.35</ele>
        <time>2021-06-02T13:36:46.000Z</time>
      </trkpt>
      <trkpt lat="43.73082" lon="5.88233">
        <ele>390.42</ele>
        <time>2021-06-02T13:36:54.000Z</time>
      </trkpt>
      <trkpt lat="43.73073" lon="5.88228">
        <ele>390.12</ele>
        <time>2021-06-02T13:37:01.000Z</time>
      </trkpt>
      <trkpt lat="43.73063" lon="5.88225">
        <ele>391.37</ele>
        <time>2021-06-02T13:37:07.000Z</time>
      </trkpt>
      <trkpt lat="43.73051" lon="5.88225">
        <ele>392.36</ele>
        <time>2021-06-02T13:37:12.000Z</time>
      </trkpt>
      <trkpt lat="43.73038" lon="5.88227">
        <ele>391.62</ele>
        <time>2021-06-02T13:37:17.000Z</time>
      </trkpt>
      <trkpt lat="43.73018" lon="5.88232">
        <ele>389.62</ele>
        <time>2021-06-02T13:37:22.000Z</time>
      </trkpt>
      <trkpt lat="43.72989" lon="5.88228">
        <ele>386.68</ele>
        <time>2021-06-02T13:37:27.000Z</time>
      </trkpt>
      <trkpt lat="43.72966" lon="5.8821">
        <ele>382.64</ele>
        <time>2021-06-02T13:37:32.000Z</time>
      </trkpt>
      <trkpt lat="43.72944" lon="5.882">
        <ele>379.39</ele>
        <time>2021-06-02T13:37:37.000Z</time>
      </trkpt>
      <trkpt lat="43.72927" lon="5.882">
        <ele>380.37</ele>
        <time>2021-06-02T13:37:42.000Z</time>
      </trkpt>
      <trkpt lat="43.72907" lon="5.88195">
        <ele>380.37</ele>
        <time>2021-06-02T13:37:47.000Z</time>
      </trkpt>
      <trkpt lat="43.72885" lon="5.88192">
        <ele>379.42</ele>
        <time>2021-06-02T13:37:52.000Z</time>
      </trkpt>
      <trkpt lat="43.72861" lon="5.88194">
        <ele>377.37</ele>
        <time>2021-06-02T13:37:57.000Z</time>
      </trkpt>
      <trkpt lat="43.72841" lon="5.88208">
        <ele>377.37</ele>
        <time>2021-06-02T13:38:02.000Z</time>
      </trkpt>
      <trkpt lat="43.72821" lon="5.88217">
        <ele>376.39</ele>
        <time>2021-06-02T13:38:07.000Z</time>
      </trkpt>
      <trkpt lat="43.72807" lon="5.88239">
        <ele>378.31</ele>
        <time>2021-06-02T13:38:12.000Z</time>
      </trkpt>
      <trkpt lat="43.72794" lon="5.88263">
        <ele>378.37</ele>
        <time>2021-06-02T13:38:17.000Z</time>
      </trkpt>
      <trkpt lat="43.72781" lon="5.88283">
        <ele>380.31</ele>
        <time>2021-06-02T13:38:22.000Z</time>
      </trkpt>
      <trkpt lat="43.72773" lon="5.88299">
        <ele>381.35</ele>
        <time>2021-06-02T13:38:27.000Z</time>
      </trkpt>
      <trkpt lat="43.72767" lon="5.88316">
        <ele>382.55</ele>
        <time>2021-06-02T13:38:32.000Z</time>
      </trkpt>
      <trkpt lat="43.72761" lon="5.88333">
        <ele>383.41</ele>
        <time>2021-06-02T13:38:37.000Z</time>
      </trkpt>
      <trkpt lat="43.72756" lon="5.88352">
        <ele>384.37</ele>
        <time>2021-06-02T13:38:42.000Z</time>
      </trkpt>
      <trkpt lat="43.72749" lon="5.88373">
        <ele>384.17</ele>
        <time>2021-06-02T13:38:47.000Z</time>
      </trkpt>
      <trkpt lat="43.72741" lon="5.88393">
        <ele>383.62</ele>
        <time>2021-06-02T13:38:52.000Z</time>
      </trkpt>
      <trkpt lat="43.72736" lon="5.88414">
        <ele>384.35</ele>
        <time>2021-06-02T13:38:57.000Z</time>
      </trkpt>
      <trkpt lat="43.72734" lon="5.88438">
        <ele>386.1</ele>
        <time>2021-06-02T13:39:02.000Z</time>
      </trkpt>
      <trkpt lat="43.72734" lon="5.88453">
        <ele>387.35</ele>
        <time>2021-06-02T13:39:07.000Z</time>
      </trkpt>
      <trkpt lat="43.72726" lon="5.88469">
        <ele>387.37</ele>
        <time>2021-06-02T13:39:12.000Z</time>
      </trkpt>
      <trkpt lat="43.72719" lon="5.88495">
        <ele>387.17</ele>
        <time>2021-06-02T13:39:17.000Z</time>
      </trkpt>
      <trkpt lat="43.72716" lon="5.88518">
        <ele>386.37</ele>
        <time>2021-06-02T13:39:22.000Z</time>
      </trkpt>
      <trkpt lat="43.72712" lon="5.88533">
        <ele>384.57</ele>
        <time>2021-06-02T13:39:27.000Z</time>
      </trkpt>
      <trkpt lat="43.72703" lon="5.88542">
        <ele>385.42</ele>
        <time>2021-06-02T13:40:39.000Z</time>
      </trkpt>
      <trkpt lat="43.72695" lon="5.88576">
        <ele>381.45</ele>
        <time>2021-06-02T13:40:44.000Z</time>
      </trkpt>
      <trkpt lat="43.7269" lon="5.886">
        <ele>381.37</ele>
        <time>2021-06-02T13:40:49.000Z</time>
      </trkpt>
      <trkpt lat="43.72693" lon="5.88624">
        <ele>382.35</ele>
        <time>2021-06-02T13:40:54.000Z</time>
      </trkpt>
      <trkpt lat="43.72699" lon="5.88647">
        <ele>382.37</ele>
        <time>2021-06-02T13:40:59.000Z</time>
      </trkpt>
      <trkpt lat="43.72702" lon="5.8867">
        <ele>383.12</ele>
        <time>2021-06-02T13:41:04.000Z</time>
      </trkpt>
      <trkpt lat="43.72703" lon="5.88692">
        <ele>382.56</ele>
        <time>2021-06-02T13:41:09.000Z</time>
      </trkpt>
      <trkpt lat="43.72705" lon="5.88715">
        <ele>383.37</ele>
        <time>2021-06-02T13:41:14.000Z</time>
      </trkpt>
      <trkpt lat="43.72707" lon="5.88739">
        <ele>384.3</ele>
        <time>2021-06-02T13:41:19.000Z</time>
      </trkpt>
      <trkpt lat="43.72708" lon="5.88763">
        <ele>385.12</ele>
        <time>2021-06-02T13:41:24.000Z</time>
      </trkpt>
      <trkpt lat="43.72707" lon="5.88787">
        <ele>386.12</ele>
        <time>2021-06-02T13:41:29.000Z</time>
      </trkpt>
      <trkpt lat="43.72703" lon="5.88811">
        <ele>386.37</ele>
        <time>2021-06-02T13:41:34.000Z</time>
      </trkpt>
      <trkpt lat="43.72705" lon="5.88833">
        <ele>387.87</ele>
        <time>2021-06-02T13:41:39.000Z</time>
      </trkpt>
      <trkpt lat="43.72708" lon="5.88853">
        <ele>388.36</ele>
        <time>2021-06-02T13:41:44.000Z</time>
      </trkpt>
      <trkpt lat="43.72702" lon="5.88865">
        <ele>388.37</ele>
        <time>2021-06-02T13:41:49.000Z</time>
      </trkpt>
      <trkpt lat="43.72704" lon="5.88877">
        <ele>390.11</ele>
        <time>2021-06-02T13:41:54.000Z</time>
      </trkpt>
      <trkpt lat="43.72708" lon="5.88888">
        <ele>390.36</ele>
        <time>2021-06-02T13:41:59.000Z</time>
      </trkpt>
      <trkpt lat="43.72707" lon="5.88905">
        <ele>390.12</ele>
        <time>2021-06-02T13:42:04.000Z</time>
      </trkpt>
      <trkpt lat="43.72707" lon="5.88921">
        <ele>391.3</ele>
        <time>2021-06-02T13:42:09.000Z</time>
      </trkpt>
      <trkpt lat="43.72699" lon="5.88939">
        <ele>391.36</ele>
        <time>2021-06-02T13:42:14.000Z</time>
      </trkpt>
      <trkpt lat="43.72695" lon="5.88965">
        <ele>392.36</ele>
        <time>2021-06-02T13:42:19.000Z</time>
      </trkpt>
      <trkpt lat="43.72695" lon="5.88993">
        <ele>392.36</ele>
        <time>2021-06-02T13:42:24.000Z</time>
      </trkpt>
      <trkpt lat="43.72697" lon="5.89017">
        <ele>392.35</ele>
        <time>2021-06-02T13:42:29.000Z</time>
      </trkpt>
      <trkpt lat="43.72706" lon="5.89029">
        <ele>394.3</ele>
        <time>2021-06-02T13:42:34.000Z</time>
      </trkpt>
      <trkpt lat="43.72713" lon="5.89038">
        <ele>396.11</ele>
        <time>2021-06-02T13:42:39.000Z</time>
      </trkpt>
      <trkpt lat="43.72718" lon="5.8905">
        <ele>399.05</ele>
        <time>2021-06-02T13:42:45.000Z</time>
      </trkpt>
      <trkpt lat="43.72724" lon="5.89062">
        <ele>399.36</ele>
        <time>2021-06-02T13:42:50.000Z</time>
      </trkpt>
      <trkpt lat="43.72729" lon="5.89073">
        <ele>402.3</ele>
        <time>2021-06-02T13:42:57.000Z</time>
      </trkpt>
      <trkpt lat="43.72738" lon="5.89079">
        <ele>405.11</ele>
        <time>2021-06-02T13:43:04.000Z</time>
      </trkpt>
      <trkpt lat="43.72747" lon="5.89077">
        <ele>401.36</ele>
        <time>2021-06-02T13:43:22.000Z</time>
      </trkpt>
      <trkpt lat="43.72757" lon="5.89076">
        <ele>399.42</ele>
        <time>2021-06-02T13:43:42.000Z</time>
      </trkpt>
      <trkpt lat="43.72762" lon="5.89087">
        <ele>401.11</ele>
        <time>2021-06-02T13:43:50.000Z</time>
      </trkpt>
      <trkpt lat="43.72762" lon="5.891">
        <ele>404.09</ele>
        <time>2021-06-02T13:43:56.000Z</time>
      </trkpt>
      <trkpt lat="43.72762" lon="5.89113">
        <ele>407.1</ele>
        <time>2021-06-02T13:44:02.000Z</time>
      </trkpt>
      <trkpt lat="43.72764" lon="5.89127">
        <ele>409.34</ele>
        <time>2021-06-02T13:44:08.000Z</time>
      </trkpt>
      <trkpt lat="43.72766" lon="5.89141">
        <ele>411.11</ele>
        <time>2021-06-02T13:44:14.000Z</time>
      </trkpt>
      <trkpt lat="43.72765" lon="5.89154">
        <ele>413.11</ele>
        <time>2021-06-02T13:44:20.000Z</time>
      </trkpt>
      <trkpt lat="43.72768" lon="5.89167">
        <ele>414.3</ele>
        <time>2021-06-02T13:44:26.000Z</time>
      </trkpt>
      <trkpt lat="43.72776" lon="5.89176">
        <ele>416.11</ele>
        <time>2021-06-02T13:44:32.000Z</time>
      </trkpt>
      <trkpt lat="43.72785" lon="5.89178">
        <ele>417.11</ele>
        <time>2021-06-02T13:44:37.000Z</time>
      </trkpt>
      <trkpt lat="43.72795" lon="5.8918">
        <ele>418.12</ele>
        <time>2021-06-02T13:44:43.000Z</time>
      </trkpt>
      <trkpt lat="43.72804" lon="5.89182">
        <ele>419.36</ele>
        <time>2021-06-02T13:44:48.000Z</time>
      </trkpt>
      <trkpt lat="43.72814" lon="5.89186">
        <ele>419.37</ele>
        <time>2021-06-02T13:44:53.000Z</time>
      </trkpt>
      <trkpt lat="43.72826" lon="5.89189">
        <ele>419.36</ele>
        <time>2021-06-02T13:44:58.000Z</time>
      </trkpt>
      <trkpt lat="43.72839" lon="5.89193">
        <ele>418.36</ele>
        <time>2021-06-02T13:45:03.000Z</time>
      </trkpt>
      <trkpt lat="43.72853" lon="5.89196">
        <ele>418.36</ele>
        <time>2021-06-02T13:45:08.000Z</time>
      </trkpt>
      <trkpt lat="43.72866" lon="5.89199">
        <ele>418.31</ele>
        <time>2021-06-02T13:45:13.000Z</time>
      </trkpt>
      <trkpt lat="43.72879" lon="5.89204">
        <ele>418.36</ele>
        <time>2021-06-02T13:45:18.000Z</time>
      </trkpt>
      <trkpt lat="43.72892" lon="5.89209">
        <ele>419.35</ele>
        <time>2021-06-02T13:45:23.000Z</time>
      </trkpt>
      <trkpt lat="43.72905" lon="5.89213">
        <ele>420.11</ele>
        <time>2021-06-02T13:45:28.000Z</time>
      </trkpt>
      <trkpt lat="43.72919" lon="5.89217">
        <ele>420.36</ele>
        <time>2021-06-02T13:45:33.000Z</time>
      </trkpt>
      <trkpt lat="43.72933" lon="5.89219">
        <ele>420.36</ele>
        <time>2021-06-02T13:45:38.000Z</time>
      </trkpt>
      <trkpt lat="43.72947" lon="5.89221">
        <ele>420.59</ele>
        <time>2021-06-02T13:45:43.000Z</time>
      </trkpt>
      <trkpt lat="43.72961" lon="5.8922">
        <ele>421.12</ele>
        <time>2021-06-02T13:45:48.000Z</time>
      </trkpt>
      <trkpt lat="43.72975" lon="5.89221">
        <ele>421.36</ele>
        <time>2021-06-02T13:45:53.000Z</time>
      </trkpt>
      <trkpt lat="43.72987" lon="5.89223">
        <ele>422.35</ele>
        <time>2021-06-02T13:45:58.000Z</time>
      </trkpt>
      <trkpt lat="43.73" lon="5.89224">
        <ele>423.34</ele>
        <time>2021-06-02T13:46:03.000Z</time>
      </trkpt>
      <trkpt lat="43.73012" lon="5.89227">
        <ele>425.34</ele>
        <time>2021-06-02T13:46:08.000Z</time>
      </trkpt>
      <trkpt lat="43.73024" lon="5.89235">
        <ele>426.34</ele>
        <time>2021-06-02T13:46:13.000Z</time>
      </trkpt>
      <trkpt lat="43.73035" lon="5.89244">
        <ele>426.3</ele>
        <time>2021-06-02T13:46:18.000Z</time>
      </trkpt>
      <trkpt lat="43.73045" lon="5.89251">
        <ele>427.29</ele>
        <time>2021-06-02T13:46:23.000Z</time>
      </trkpt>
      <trkpt lat="43.73056" lon="5.89255">
        <ele>429.29</ele>
        <time>2021-06-02T13:46:28.000Z</time>
      </trkpt>
      <trkpt lat="43.73065" lon="5.89262">
        <ele>431.3</ele>
        <time>2021-06-02T13:46:35.000Z</time>
      </trkpt>
      <trkpt lat="43.73074" lon="5.89268">
        <ele>432.29</ele>
        <time>2021-06-02T13:46:42.000Z</time>
      </trkpt>
      <trkpt lat="43.73085" lon="5.89272">
        <ele>434.34</ele>
        <time>2021-06-02T13:46:48.000Z</time>
      </trkpt>
      <trkpt lat="43.73095" lon="5.89271">
        <ele>435.29</ele>
        <time>2021-06-02T13:46:53.000Z</time>
      </trkpt>
      <trkpt lat="43.73105" lon="5.89267">
        <ele>437.1</ele>
        <time>2021-06-02T13:46:58.000Z</time>
      </trkpt>
      <trkpt lat="43.73118" lon="5.8926">
        <ele>438.1</ele>
        <time>2021-06-02T13:47:03.000Z</time>
      </trkpt>
      <trkpt lat="43.73131" lon="5.89257">
        <ele>438.35</ele>
        <time>2021-06-02T13:47:08.000Z</time>
      </trkpt>
      <trkpt lat="43.73143" lon="5.89254">
        <ele>439.54</ele>
        <time>2021-06-02T13:47:13.000Z</time>
      </trkpt>
      <trkpt lat="43.73155" lon="5.89252">
        <ele>439.6</ele>
        <time>2021-06-02T13:47:18.000Z</time>
      </trkpt>
      <trkpt lat="43.73167" lon="5.89254">
        <ele>441.1</ele>
        <time>2021-06-02T13:47:23.000Z</time>
      </trkpt>
      <trkpt lat="43.73181" lon="5.89251">
        <ele>442.34</ele>
        <time>2021-06-02T13:47:28.000Z</time>
      </trkpt>
      <trkpt lat="43.73195" lon="5.89246">
        <ele>443.29</ele>
        <time>2021-06-02T13:47:33.000Z</time>
      </trkpt>
      <trkpt lat="43.73209" lon="5.89239">
        <ele>444.29</ele>
        <time>2021-06-02T13:47:38.000Z</time>
      </trkpt>
      <trkpt lat="43.73225" lon="5.89233">
        <ele>444.35</ele>
        <time>2021-06-02T13:47:43.000Z</time>
      </trkpt>
      <trkpt lat="43.7324" lon="5.89226">
        <ele>445.35</ele>
        <time>2021-06-02T13:47:48.000Z</time>
      </trkpt>
      <trkpt lat="43.73255" lon="5.89218">
        <ele>446.35</ele>
        <time>2021-06-02T13:47:53.000Z</time>
      </trkpt>
      <trkpt lat="43.73269" lon="5.8921">
        <ele>447.35</ele>
        <time>2021-06-02T13:47:58.000Z</time>
      </trkpt>
      <trkpt lat="43.73284" lon="5.89204">
        <ele>448.3</ele>
        <time>2021-06-02T13:48:03.000Z</time>
      </trkpt>
      <trkpt lat="43.73302" lon="5.89196">
        <ele>448.35</ele>
        <time>2021-06-02T13:48:08.000Z</time>
      </trkpt>
      <trkpt lat="43.73318" lon="5.89187">
        <ele>449.34</ele>
        <time>2021-06-02T13:48:13.000Z</time>
      </trkpt>
      <trkpt lat="43.73331" lon="5.8918">
        <ele>450.34</ele>
        <time>2021-06-02T13:48:18.000Z</time>
      </trkpt>
      <trkpt lat="43.73344" lon="5.89172">
        <ele>450.35</ele>
        <time>2021-06-02T13:48:23.000Z</time>
      </trkpt>
      <trkpt lat="43.73356" lon="5.89163">
        <ele>450.35</ele>
        <time>2021-06-02T13:48:28.000Z</time>
      </trkpt>
      <trkpt lat="43.73365" lon="5.89158">
        <ele>450.35</ele>
        <time>2021-06-02T13:48:33.000Z</time>
      </trkpt>
      <trkpt lat="43.73374" lon="5.89154">
        <ele>452.33</ele>
        <time>2021-06-02T13:48:38.000Z</time>
      </trkpt>
      <trkpt lat="43.73383" lon="5.8915">
        <ele>454.29</ele>
        <time>2021-06-02T13:48:43.000Z</time>
      </trkpt>
      <trkpt lat="43.73392" lon="5.89147">
        <ele>456.34</ele>
        <time>2021-06-02T13:48:49.000Z</time>
      </trkpt>
      <trkpt lat="43.73402" lon="5.89145">
        <ele>458.29</ele>
        <time>2021-06-02T13:48:55.000Z</time>
      </trkpt>
      <trkpt lat="43.73411" lon="5.89143">
        <ele>460.29</ele>
        <time>2021-06-02T13:49:01.000Z</time>
      </trkpt>
      <trkpt lat="43.7342" lon="5.89137">
        <ele>462.29</ele>
        <time>2021-06-02T13:49:07.000Z</time>
      </trkpt>
      <trkpt lat="43.73429" lon="5.8913">
        <ele>463.34</ele>
        <time>2021-06-02T13:49:12.000Z</time>
      </trkpt>
      <trkpt lat="43.73437" lon="5.89122">
        <ele>465.1</ele>
        <time>2021-06-02T13:49:17.000Z</time>
      </trkpt>
      <trkpt lat="43.73444" lon="5.89113">
        <ele>466.34</ele>
        <time>2021-06-02T13:49:22.000Z</time>
      </trkpt>
      <trkpt lat="43.73452" lon="5.89103">
        <ele>467.34</ele>
        <time>2021-06-02T13:49:27.000Z</time>
      </trkpt>
      <trkpt lat="43.73461" lon="5.891">
        <ele>468.35</ele>
        <time>2021-06-02T13:49:32.000Z</time>
      </trkpt>
      <trkpt lat="43.73472" lon="5.89104">
        <ele>467.35</ele>
        <time>2021-06-02T13:49:38.000Z</time>
      </trkpt>
      <trkpt lat="43.73483" lon="5.89106">
        <ele>467.35</ele>
        <time>2021-06-02T13:49:43.000Z</time>
      </trkpt>
      <trkpt lat="43.73493" lon="5.89111">
        <ele>468.85</ele>
        <time>2021-06-02T13:49:48.000Z</time>
      </trkpt>
      <trkpt lat="43.73502" lon="5.89118">
        <ele>471.1</ele>
        <time>2021-06-02T13:49:54.000Z</time>
      </trkpt>
      <trkpt lat="43.73508" lon="5.89127">
        <ele>472.35</ele>
        <time>2021-06-02T13:49:59.000Z</time>
      </trkpt>
      <trkpt lat="43.73512" lon="5.89139">
        <ele>475.28</ele>
        <time>2021-06-02T13:50:06.000Z</time>
      </trkpt>
      <trkpt lat="43.7352" lon="5.89147">
        <ele>477.33</ele>
        <time>2021-06-02T13:50:12.000Z</time>
      </trkpt>
      <trkpt lat="43.73524" lon="5.89158">
        <ele>479.1</ele>
        <time>2021-06-02T13:50:18.000Z</time>
      </trkpt>
      <trkpt lat="43.73531" lon="5.89169">
        <ele>482.09</ele>
        <time>2021-06-02T13:50:25.000Z</time>
      </trkpt>
      <trkpt lat="43.7354" lon="5.89172">
        <ele>484.1</ele>
        <time>2021-06-02T13:50:32.000Z</time>
      </trkpt>
      <trkpt lat="43.73549" lon="5.89178">
        <ele>486.34</ele>
        <time>2021-06-02T13:50:40.000Z</time>
      </trkpt>
      <trkpt lat="43.73557" lon="5.89183">
        <ele>488.1</ele>
        <time>2021-06-02T13:50:48.000Z</time>
      </trkpt>
      <trkpt lat="43.73565" lon="5.89189">
        <ele>489.34</ele>
        <time>2021-06-02T13:51:01.000Z</time>
      </trkpt>
      <trkpt lat="43.73573" lon="5.89196">
        <ele>492.35</ele>
        <time>2021-06-02T13:51:18.000Z</time>
      </trkpt>
      <trkpt lat="43.73581" lon="5.89202">
        <ele>495.34</ele>
        <time>2021-06-02T13:51:31.000Z</time>
      </trkpt>
      <trkpt lat="43.7359" lon="5.89208">
        <ele>497.29</ele>
        <time>2021-06-02T13:51:39.000Z</time>
      </trkpt>
      <trkpt lat="43.73598" lon="5.89214">
        <ele>499.34</ele>
        <time>2021-06-02T13:51:48.000Z</time>
      </trkpt>
      <trkpt lat="43.73607" lon="5.89217">
        <ele>501.28</ele>
        <time>2021-06-02T13:51:59.000Z</time>
      </trkpt>
      <trkpt lat="43.73617" lon="5.89218">
        <ele>500.41</ele>
        <time>2021-06-02T13:52:09.000Z</time>
      </trkpt>
      <trkpt lat="43.73626" lon="5.89222">
        <ele>500.35</ele>
        <time>2021-06-02T13:52:16.000Z</time>
      </trkpt>
      <trkpt lat="43.73633" lon="5.89231">
        <ele>502.08</ele>
        <time>2021-06-02T13:52:26.000Z</time>
      </trkpt>
      <trkpt lat="43.73635" lon="5.89244">
        <ele>503.35</ele>
        <time>2021-06-02T13:52:34.000Z</time>
      </trkpt>
      <trkpt lat="43.73634" lon="5.89257">
        <ele>505.3</ele>
        <time>2021-06-02T13:52:43.000Z</time>
      </trkpt>
      <trkpt lat="43.7363" lon="5.8927">
        <ele>505.35</ele>
        <time>2021-06-02T13:52:56.000Z</time>
      </trkpt>
      <trkpt lat="43.73628" lon="5.89283">
        <ele>508.28</ele>
        <time>2021-06-02T13:53:02.000Z</time>
      </trkpt>
      <trkpt lat="43.73628" lon="5.89296">
        <ele>510.27</ele>
        <time>2021-06-02T13:53:07.000Z</time>
      </trkpt>
      <trkpt lat="43.73635" lon="5.89309">
        <ele>511.34</ele>
        <time>2021-06-02T13:53:12.000Z</time>
      </trkpt>
      <trkpt lat="43.73641" lon="5.89323">
        <ele>512.1</ele>
        <time>2021-06-02T13:53:17.000Z</time>
      </trkpt>
      <trkpt lat="43.73645" lon="5.89336">
        <ele>513.1</ele>
        <time>2021-06-02T13:53:22.000Z</time>
      </trkpt>
      <trkpt lat="43.73654" lon="5.89343">
        <ele>514.33</ele>
        <time>2021-06-02T13:53:27.000Z</time>
      </trkpt>
      <trkpt lat="43.73655" lon="5.89357">
        <ele>517.09</ele>
        <time>2021-06-02T13:53:33.000Z</time>
      </trkpt>
      <trkpt lat="43.73656" lon="5.89371">
        <ele>518.34</ele>
        <time>2021-06-02T13:53:39.000Z</time>
      </trkpt>
      <trkpt lat="43.73662" lon="5.89384">
        <ele>519.34</ele>
        <time>2021-06-02T13:53:44.000Z</time>
      </trkpt>
      <trkpt lat="43.73666" lon="5.89396">
        <ele>520.55</ele>
        <time>2021-06-02T13:55:05.000Z</time>
      </trkpt>
      <trkpt lat="43.73677" lon="5.89403">
        <ele>521.52</ele>
        <time>2021-06-02T13:55:10.000Z</time>
      </trkpt>
      <trkpt lat="43.73693" lon="5.894">
        <ele>519.36</ele>
        <time>2021-06-02T13:55:15.000Z</time>
      </trkpt>
      <trkpt lat="43.73708" lon="5.89396">
        <ele>517.35</ele>
        <time>2021-06-02T13:55:20.000Z</time>
      </trkpt>
      <trkpt lat="43.73719" lon="5.89391">
        <ele>517.34</ele>
        <time>2021-06-02T13:55:25.000Z</time>
      </trkpt>
      <trkpt lat="43.73727" lon="5.89396">
        <ele>514.55</ele>
        <time>2021-06-02T13:55:47.000Z</time>
      </trkpt>
      <trkpt lat="43.73737" lon="5.89395">
        <ele>513.08</ele>
        <time>2021-06-02T13:55:54.000Z</time>
      </trkpt>
      <trkpt lat="43.73747" lon="5.89389">
        <ele>511.59</ele>
        <time>2021-06-02T13:56:52.000Z</time>
      </trkpt>
      <trkpt lat="43.73757" lon="5.89386">
        <ele>510.35</ele>
        <time>2021-06-02T13:56:57.000Z</time>
      </trkpt>
      <trkpt lat="43.73766" lon="5.89386">
        <ele>510.65</ele>
        <time>2021-06-02T13:57:12.000Z</time>
      </trkpt>
      <trkpt lat="43.73776" lon="5.8938">
        <ele>509.36</ele>
        <time>2021-06-02T13:57:18.000Z</time>
      </trkpt>
      <trkpt lat="43.73784" lon="5.89373">
        <ele>506.2</ele>
        <time>2021-06-02T13:57:26.000Z</time>
      </trkpt>
      <trkpt lat="43.73794" lon="5.89369">
        <ele>505.59</ele>
        <time>2021-06-02T13:57:54.000Z</time>
      </trkpt>
      <trkpt lat="43.73809" lon="5.89362">
        <ele>504.61</ele>
        <time>2021-06-02T13:57:59.000Z</time>
      </trkpt>
      <trkpt lat="43.73823" lon="5.89356">
        <ele>499.92</ele>
        <time>2021-06-02T13:58:04.000Z</time>
      </trkpt>
      <trkpt lat="43.73831" lon="5.89362">
        <ele>495.61</ele>
        <time>2021-06-02T13:58:09.000Z</time>
      </trkpt>
      <trkpt lat="43.73839" lon="5.8937">
        <ele>496.32</ele>
        <time>2021-06-02T13:58:15.000Z</time>
      </trkpt>
      <trkpt lat="43.73848" lon="5.89374">
        <ele>489.97</ele>
        <time>2021-06-02T13:58:21.000Z</time>
      </trkpt>
      <trkpt lat="43.73858" lon="5.89384">
        <ele>487.41</ele>
        <time>2021-06-02T13:58:26.000Z</time>
      </trkpt>
      <trkpt lat="43.73868" lon="5.89391">
        <ele>483.61</ele>
        <time>2021-06-02T13:58:31.000Z</time>
      </trkpt>
      <trkpt lat="43.73875" lon="5.89402">
        <ele>480.44</ele>
        <time>2021-06-02T13:58:36.000Z</time>
      </trkpt>
      <trkpt lat="43.73888" lon="5.89408">
        <ele>477.41</ele>
        <time>2021-06-02T13:58:41.000Z</time>
      </trkpt>
      <trkpt lat="43.739" lon="5.894">
        <ele>473.61</ele>
        <time>2021-06-02T13:58:46.000Z</time>
      </trkpt>
      <trkpt lat="43.73917" lon="5.89395">
        <ele>471.6</ele>
        <time>2021-06-02T13:58:51.000Z</time>
      </trkpt>
      <trkpt lat="43.73926" lon="5.89389">
        <ele>469.32</ele>
        <time>2021-06-02T13:59:37.000Z</time>
      </trkpt>
      <trkpt lat="43.73936" lon="5.89385">
        <ele>466.34</ele>
        <time>2021-06-02T13:59:49.000Z</time>
      </trkpt>
      <trkpt lat="43.73945" lon="5.8938">
        <ele>465.59</ele>
        <time>2021-06-02T13:59:54.000Z</time>
      </trkpt>
      <trkpt lat="43.73953" lon="5.89372">
        <ele>466.34</ele>
        <time>2021-06-02T14:00:00.000Z</time>
      </trkpt>
      <trkpt lat="43.73961" lon="5.89364">
        <ele>464.4</ele>
        <time>2021-06-02T14:00:07.000Z</time>
      </trkpt>
      <trkpt lat="43.73967" lon="5.89351">
        <ele>464.34</ele>
        <time>2021-06-02T14:00:53.000Z</time>
      </trkpt>
      <trkpt lat="43.73978" lon="5.89341">
        <ele>463.41</ele>
        <time>2021-06-02T14:00:58.000Z</time>
      </trkpt>
      <trkpt lat="43.73988" lon="5.8934">
        <ele>461.35</ele>
        <time>2021-06-02T14:01:04.000Z</time>
      </trkpt>
      <trkpt lat="43.73998" lon="5.89338">
        <ele>458.41</ele>
        <time>2021-06-02T14:01:09.000Z</time>
      </trkpt>
      <trkpt lat="43.74016" lon="5.89341">
        <ele>454.48</ele>
        <time>2021-06-02T14:01:14.000Z</time>
      </trkpt>
      <trkpt lat="43.7404" lon="5.89339">
        <ele>453.65</ele>
        <time>2021-06-02T14:01:19.000Z</time>
      </trkpt>
      <trkpt lat="43.74058" lon="5.89334">
        <ele>453.34</ele>
        <time>2021-06-02T14:01:24.000Z</time>
      </trkpt>
      <trkpt lat="43.74072" lon="5.89335">
        <ele>452.4</ele>
        <time>2021-06-02T14:01:29.000Z</time>
      </trkpt>
      <trkpt lat="43.7409" lon="5.8934">
        <ele>448.66</ele>
        <time>2021-06-02T14:01:34.000Z</time>
      </trkpt>
      <trkpt lat="43.74105" lon="5.89343">
        <ele>446.41</ele>
        <time>2021-06-02T14:01:39.000Z</time>
      </trkpt>
      <trkpt lat="43.74113" lon="5.89316">
        <ele>444.42</ele>
        <time>2021-06-02T14:01:44.000Z</time>
      </trkpt>
      <trkpt lat="43.7412" lon="5.89304">
        <ele>441.59</ele>
        <time>2021-06-02T14:01:49.000Z</time>
      </trkpt>
      <trkpt lat="43.74125" lon="5.89279">
        <ele>442.15</ele>
        <time>2021-06-02T14:01:54.000Z</time>
      </trkpt>
      <trkpt lat="43.74125" lon="5.89264">
        <ele>440.65</ele>
        <time>2021-06-02T14:01:59.000Z</time>
      </trkpt>
      <trkpt lat="43.74132" lon="5.89254">
        <ele>437.35</ele>
        <time>2021-06-02T14:02:54.000Z</time>
      </trkpt>
      <trkpt lat="43.74149" lon="5.89245">
        <ele>435.36</ele>
        <time>2021-06-02T14:02:59.000Z</time>
      </trkpt>
      <trkpt lat="43.74169" lon="5.89237">
        <ele>436.34</ele>
        <time>2021-06-02T14:03:04.000Z</time>
      </trkpt>
      <trkpt lat="43.74189" lon="5.89218">
        <ele>437.09</ele>
        <time>2021-06-02T14:03:09.000Z</time>
      </trkpt>
      <trkpt lat="43.74209" lon="5.892">
        <ele>436.46</ele>
        <time>2021-06-02T14:03:14.000Z</time>
      </trkpt>
      <trkpt lat="43.74235" lon="5.89191">
        <ele>429.82</ele>
        <time>2021-06-02T14:03:19.000Z</time>
      </trkpt>
      <trkpt lat="43.74259" lon="5.89177">
        <ele>429.59</ele>
        <time>2021-06-02T14:03:24.000Z</time>
      </trkpt>
      <trkpt lat="43.74279" lon="5.89173">
        <ele>429.59</ele>
        <time>2021-06-02T14:03:29.000Z</time>
      </trkpt>
      <trkpt lat="43.74294" lon="5.89166">
        <ele>429.11</ele>
        <time>2021-06-02T14:03:34.000Z</time>
      </trkpt>
      <trkpt lat="43.74307" lon="5.89154">
        <ele>430.09</ele>
        <time>2021-06-02T14:03:39.000Z</time>
      </trkpt>
      <trkpt lat="43.74316" lon="5.89147">
        <ele>425.84</ele>
        <time>2021-06-02T14:03:56.000Z</time>
      </trkpt>
      <trkpt lat="43.74313" lon="5.89159">
        <ele>428.26</ele>
        <time>2021-06-02T14:04:05.000Z</time>
      </trkpt>
      <trkpt lat="43.74309" lon="5.89173">
        <ele>429.32</ele>
        <time>2021-06-02T14:04:10.000Z</time>
      </trkpt>
      <trkpt lat="43.74304" lon="5.89185">
        <ele>432.26</ele>
        <time>2021-06-02T14:04:15.000Z</time>
      </trkpt>
      <trkpt lat="43.74302" lon="5.89199">
        <ele>434.26</ele>
        <time>2021-06-02T14:04:20.000Z</time>
      </trkpt>
      <trkpt lat="43.74298" lon="5.89212">
        <ele>437.02</ele>
        <time>2021-06-02T14:04:26.000Z</time>
      </trkpt>
      <trkpt lat="43.74296" lon="5.89227">
        <ele>440.07</ele>
        <time>2021-06-02T14:04:33.000Z</time>
      </trkpt>
      <trkpt lat="43.74295" lon="5.89241">
        <ele>443.08</ele>
        <time>2021-06-02T14:04:41.000Z</time>
      </trkpt>
      <trkpt lat="43.74293" lon="5.89254">
        <ele>447.27</ele>
        <time>2021-06-02T14:04:50.000Z</time>
      </trkpt>
      <trkpt lat="43.74291" lon="5.89268">
        <ele>451.27</ele>
        <time>2021-06-02T14:04:58.000Z</time>
      </trkpt>
      <trkpt lat="43.74289" lon="5.89282">
        <ele>455.02</ele>
        <time>2021-06-02T14:05:07.000Z</time>
      </trkpt>
      <trkpt lat="43.74287" lon="5.89295">
        <ele>456.27</ele>
        <time>2021-06-02T14:05:14.000Z</time>
      </trkpt>
      <trkpt lat="43.74286" lon="5.89308">
        <ele>457.32</ele>
        <time>2021-06-02T14:05:20.000Z</time>
      </trkpt>
      <trkpt lat="43.74287" lon="5.89321">
        <ele>458.34</ele>
        <time>2021-06-02T14:05:26.000Z</time>
      </trkpt>
      <trkpt lat="43.7429" lon="5.89334">
        <ele>457.59</ele>
        <time>2021-06-02T14:05:31.000Z</time>
      </trkpt>
      <trkpt lat="43.74299" lon="5.89339">
        <ele>457.34</ele>
        <time>2021-06-02T14:05:36.000Z</time>
      </trkpt>
      <trkpt lat="43.7431" lon="5.89342">
        <ele>457.34</ele>
        <time>2021-06-02T14:05:41.000Z</time>
      </trkpt>
      <trkpt lat="43.7432" lon="5.89342">
        <ele>456.36</ele>
        <time>2021-06-02T14:05:46.000Z</time>
      </trkpt>
      <trkpt lat="43.74329" lon="5.89342">
        <ele>457.09</ele>
        <time>2021-06-02T14:05:52.000Z</time>
      </trkpt>
      <trkpt lat="43.74339" lon="5.89345">
        <ele>459.07</ele>
        <time>2021-06-02T14:05:58.000Z</time>
      </trkpt>
      <trkpt lat="43.74348" lon="5.89347">
        <ele>459.58</ele>
        <time>2021-06-02T14:06:05.000Z</time>
      </trkpt>
      <trkpt lat="43.7436" lon="5.8934">
        <ele>458.35</ele>
        <time>2021-06-02T14:06:10.000Z</time>
      </trkpt>
      <trkpt lat="43.74375" lon="5.89325">
        <ele>456.4</ele>
        <time>2021-06-02T14:06:15.000Z</time>
      </trkpt>
      <trkpt lat="43.74387" lon="5.89303">
        <ele>456.32</ele>
        <time>2021-06-02T14:06:20.000Z</time>
      </trkpt>
      <trkpt lat="43.74393" lon="5.89289">
        <ele>456.41</ele>
        <time>2021-06-02T14:06:25.000Z</time>
      </trkpt>
      <trkpt lat="43.74399" lon="5.89268">
        <ele>454.65</ele>
        <time>2021-06-02T14:06:30.000Z</time>
      </trkpt>
      <trkpt lat="43.74414" lon="5.89249">
        <ele>452.4</ele>
        <time>2021-06-02T14:06:35.000Z</time>
      </trkpt>
      <trkpt lat="43.74424" lon="5.89237">
        <ele>449.59</ele>
        <time>2021-06-02T14:06:40.000Z</time>
      </trkpt>
      <trkpt lat="43.7444" lon="5.89215">
        <ele>446.48</ele>
        <time>2021-06-02T14:06:45.000Z</time>
      </trkpt>
      <trkpt lat="43.7445" lon="5.89182">
        <ele>446.34</ele>
        <time>2021-06-02T14:06:50.000Z</time>
      </trkpt>
      <trkpt lat="43.74462" lon="5.89159">
        <ele>441.67</ele>
        <time>2021-06-02T14:06:55.000Z</time>
      </trkpt>
      <trkpt lat="43.7447" lon="5.89147">
        <ele>439.59</ele>
        <time>2021-06-02T14:07:00.000Z</time>
      </trkpt>
      <trkpt lat="43.74475" lon="5.89126">
        <ele>438.39</ele>
        <time>2021-06-02T14:07:05.000Z</time>
      </trkpt>
      <trkpt lat="43.74487" lon="5.89109">
        <ele>436.6</ele>
        <time>2021-06-02T14:07:10.000Z</time>
      </trkpt>
      <trkpt lat="43.74497" lon="5.89091">
        <ele>432.65</ele>
        <time>2021-06-02T14:07:15.000Z</time>
      </trkpt>
      <trkpt lat="43.74502" lon="5.8907">
        <ele>429.6</ele>
        <time>2021-06-02T14:07:20.000Z</time>
      </trkpt>
      <trkpt lat="43.74507" lon="5.8906">
        <ele>427.63</ele>
        <time>2021-06-02T14:07:25.000Z</time>
      </trkpt>
      <trkpt lat="43.74512" lon="5.8905">
        <ele>425.65</ele>
        <time>2021-06-02T14:08:05.000Z</time>
      </trkpt>
      <trkpt lat="43.74514" lon="5.89032">
        <ele>422.14</ele>
        <time>2021-06-02T14:08:10.000Z</time>
      </trkpt>
      <trkpt lat="43.7452" lon="5.89013">
        <ele>418.65</ele>
        <time>2021-06-02T14:08:15.000Z</time>
      </trkpt>
      <trkpt lat="43.74525" lon="5.89001">
        <ele>416.35</ele>
        <time>2021-06-02T14:08:20.000Z</time>
      </trkpt>
      <trkpt lat="43.74529" lon="5.88986">
        <ele>417.28</ele>
        <time>2021-06-02T14:08:25.000Z</time>
      </trkpt>
      <trkpt lat="43.74534" lon="5.88975">
        <ele>414.39</ele>
        <time>2021-06-02T14:08:32.000Z</time>
      </trkpt>
      <trkpt lat="43.74535" lon="5.88962">
        <ele>409.73</ele>
        <time>2021-06-02T14:08:38.000Z</time>
      </trkpt>
      <trkpt lat="43.74545" lon="5.88957">
        <ele>404.43</ele>
        <time>2021-06-02T14:08:43.000Z</time>
      </trkpt>
      <trkpt lat="43.74559" lon="5.88952">
        <ele>400.73</ele>
        <time>2021-06-02T14:08:48.000Z</time>
      </trkpt>
      <trkpt lat="43.74571" lon="5.88964">
        <ele>392.94</ele>
        <time>2021-06-02T14:08:53.000Z</time>
      </trkpt>
      <trkpt lat="43.74585" lon="5.88971">
        <ele>389.61</ele>
        <time>2021-06-02T14:08:58.000Z</time>
      </trkpt>
      <trkpt lat="43.74611" lon="5.88957">
        <ele>386.6</ele>
        <time>2021-06-02T14:09:03.000Z</time>
      </trkpt>
      <trkpt lat="43.74631" lon="5.88951">
        <ele>383.65</ele>
        <time>2021-06-02T14:09:08.000Z</time>
      </trkpt>
      <trkpt lat="43.74644" lon="5.88953">
        <ele>380.4</ele>
        <time>2021-06-02T14:09:13.000Z</time>
      </trkpt>
      <trkpt lat="43.74658" lon="5.88936">
        <ele>380.33</ele>
        <time>2021-06-02T14:09:18.000Z</time>
      </trkpt>
      <trkpt lat="43.74676" lon="5.8893">
        <ele>380.4</ele>
        <time>2021-06-02T14:09:23.000Z</time>
      </trkpt>
      <trkpt lat="43.747" lon="5.88934">
        <ele>375.91</ele>
        <time>2021-06-02T14:09:28.000Z</time>
      </trkpt>
      <trkpt lat="43.74724" lon="5.88939">
        <ele>371.43</ele>
        <time>2021-06-02T14:09:33.000Z</time>
      </trkpt>
      <trkpt lat="43.74745" lon="5.88938">
        <ele>370.6</ele>
        <time>2021-06-02T14:09:38.000Z</time>
      </trkpt>
      <trkpt lat="43.74766" lon="5.88932">
        <ele>369.58</ele>
        <time>2021-06-02T14:09:43.000Z</time>
      </trkpt>
      <trkpt lat="43.74785" lon="5.88921">
        <ele>368.35</ele>
        <time>2021-06-02T14:09:48.000Z</time>
      </trkpt>
      <trkpt lat="43.74793" lon="5.88905">
        <ele>368.33</ele>
        <time>2021-06-02T14:09:53.000Z</time>
      </trkpt>
      <trkpt lat="43.74802" lon="5.88897">
        <ele>368.33</ele>
        <time>2021-06-02T14:10:23.000Z</time>
      </trkpt>
      <trkpt lat="43.74821" lon="5.88891">
        <ele>361.38</ele>
        <time>2021-06-02T14:10:28.000Z</time>
      </trkpt>
      <trkpt lat="43.7484" lon="5.88894">
        <ele>362.27</ele>
        <time>2021-06-02T14:10:33.000Z</time>
      </trkpt>
      <trkpt lat="43.7486" lon="5.88898">
        <ele>360.6</ele>
        <time>2021-06-02T14:10:38.000Z</time>
      </trkpt>
      <trkpt lat="43.74878" lon="5.88908">
        <ele>356.48</ele>
        <time>2021-06-02T14:10:43.000Z</time>
      </trkpt>
      <trkpt lat="43.74901" lon="5.8891">
        <ele>355.58</ele>
        <time>2021-06-02T14:10:48.000Z</time>
      </trkpt>
      <trkpt lat="43.74929" lon="5.88908">
        <ele>354.57</ele>
        <time>2021-06-02T14:10:53.000Z</time>
      </trkpt>
      <trkpt lat="43.74954" lon="5.88907">
        <ele>351.59</ele>
        <time>2021-06-02T14:10:58.000Z</time>
      </trkpt>
      <trkpt lat="43.74975" lon="5.88919">
        <ele>349.58</ele>
        <time>2021-06-02T14:11:03.000Z</time>
      </trkpt>
      <trkpt lat="43.74993" lon="5.88921">
        <ele>349.63</ele>
        <time>2021-06-02T14:11:08.000Z</time>
      </trkpt>
      <trkpt lat="43.75013" lon="5.88929">
        <ele>348.39</ele>
        <time>2021-06-02T14:11:13.000Z</time>
      </trkpt>
      <trkpt lat="43.75034" lon="5.88937">
        <ele>347.29</ele>
        <time>2021-06-02T14:11:18.000Z</time>
      </trkpt>
      <trkpt lat="43.75046" lon="5.88953">
        <ele>344.41</ele>
        <time>2021-06-02T14:11:23.000Z</time>
      </trkpt>
      <trkpt lat="43.75067" lon="5.88967">
        <ele>341.6</ele>
        <time>2021-06-02T14:11:28.000Z</time>
      </trkpt>
      <trkpt lat="43.75083" lon="5.88989">
        <ele>339.58</ele>
        <time>2021-06-02T14:11:33.000Z</time>
      </trkpt>
      <trkpt lat="43.75101" lon="5.8901">
        <ele>336.83</ele>
        <time>2021-06-02T14:11:38.000Z</time>
      </trkpt>
      <trkpt lat="43.75118" lon="5.89021">
        <ele>335.33</ele>
        <time>2021-06-02T14:11:43.000Z</time>
      </trkpt>
      <trkpt lat="43.75137" lon="5.89035">
        <ele>330.41</ele>
        <time>2021-06-02T14:11:48.000Z</time>
      </trkpt>
      <trkpt lat="43.75156" lon="5.89041">
        <ele>331.33</ele>
        <time>2021-06-02T14:11:53.000Z</time>
      </trkpt>
      <trkpt lat="43.75173" lon="5.89067">
        <ele>331.31</ele>
        <time>2021-06-02T14:11:58.000Z</time>
      </trkpt>
      <trkpt lat="43.7519" lon="5.89099">
        <ele>326.65</ele>
        <time>2021-06-02T14:12:03.000Z</time>
      </trkpt>
      <trkpt lat="43.75208" lon="5.89116">
        <ele>325.33</ele>
        <time>2021-06-02T14:12:08.000Z</time>
      </trkpt>
      <trkpt lat="43.75226" lon="5.89103">
        <ele>325.57</ele>
        <time>2021-06-02T14:12:13.000Z</time>
      </trkpt>
      <trkpt lat="43.75248" lon="5.89084">
        <ele>324.33</ele>
        <time>2021-06-02T14:12:18.000Z</time>
      </trkpt>
      <trkpt lat="43.75263" lon="5.89081">
        <ele>325.26</ele>
        <time>2021-06-02T14:12:23.000Z</time>
      </trkpt>
      <trkpt lat="43.75272" lon="5.89085">
        <ele>322.56</ele>
        <time>2021-06-02T14:15:22.000Z</time>
      </trkpt>
      <trkpt lat="43.75281" lon="5.89089">
        <ele>322.4</ele>
        <time>2021-06-02T14:15:31.000Z</time>
      </trkpt>
      <trkpt lat="43.7529" lon="5.89089">
        <ele>315.43</ele>
        <time>2021-06-02T14:15:37.000Z</time>
      </trkpt>
      <trkpt lat="43.75292" lon="5.89102">
        <ele>314.34</ele>
        <time>2021-06-02T14:15:45.000Z</time>
      </trkpt>
      <trkpt lat="43.75292" lon="5.89118">
        <ele>310.39</ele>
        <time>2021-06-02T14:15:51.000Z</time>
      </trkpt>
      <trkpt lat="43.75288" lon="5.89133">
        <ele>308.57</ele>
        <time>2021-06-02T14:15:56.000Z</time>
      </trkpt>
      <trkpt lat="43.75282" lon="5.89144">
        <ele>308.37</ele>
        <time>2021-06-02T14:16:04.000Z</time>
      </trkpt>
      <trkpt lat="43.75289" lon="5.89136">
        <ele>312.12</ele>
        <time>2021-06-02T14:16:20.000Z</time>
      </trkpt>
      <trkpt lat="43.753" lon="5.89121">
        <ele>310.39</ele>
        <time>2021-06-02T14:16:25.000Z</time>
      </trkpt>
      <trkpt lat="43.75309" lon="5.89101">
        <ele>308.58</ele>
        <time>2021-06-02T14:16:30.000Z</time>
      </trkpt>
      <trkpt lat="43.75319" lon="5.89074">
        <ele>309.07</ele>
        <time>2021-06-02T14:16:35.000Z</time>
      </trkpt>
      <trkpt lat="43.75325" lon="5.89057">
        <ele>310.03</ele>
        <time>2021-06-02T14:16:40.000Z</time>
      </trkpt>
      <trkpt lat="43.75329" lon="5.89043">
        <ele>311.07</ele>
        <time>2021-06-02T14:16:45.000Z</time>
      </trkpt>
      <trkpt lat="43.75335" lon="5.89026">
        <ele>310.34</ele>
        <time>2021-06-02T14:16:50.000Z</time>
      </trkpt>
      <trkpt lat="43.75337" lon="5.89007">
        <ele>309.57</ele>
        <time>2021-06-02T14:16:55.000Z</time>
      </trkpt>
      <trkpt lat="43.75351" lon="5.89002">
        <ele>311.25</ele>
        <time>2021-06-02T14:17:00.000Z</time>
      </trkpt>
      <trkpt lat="43.75364" lon="5.89001">
        <ele>311.32</ele>
        <time>2021-06-02T14:17:05.000Z</time>
      </trkpt>
      <trkpt lat="43.75378" lon="5.88999">
        <ele>311.26</ele>
        <time>2021-06-02T14:17:10.000Z</time>
      </trkpt>
      <trkpt lat="43.75393" lon="5.88994">
        <ele>308.37</ele>
        <time>2021-06-02T14:17:15.000Z</time>
      </trkpt>
      <trkpt lat="43.75406" lon="5.88993">
        <ele>307.34</ele>
        <time>2021-06-02T14:17:20.000Z</time>
      </trkpt>
      <trkpt lat="43.75419" lon="5.88993">
        <ele>308.32</ele>
        <time>2021-06-02T14:17:25.000Z</time>
      </trkpt>
      <trkpt lat="43.75429" lon="5.88995">
        <ele>308.31</ele>
        <time>2021-06-02T14:17:30.000Z</time>
      </trkpt>
      <trkpt lat="43.75436" lon="5.89004">
        <ele>309.27</ele>
        <time>2021-06-02T14:17:37.000Z</time>
      </trkpt>
      <trkpt lat="43.7544" lon="5.89016">
        <ele>310.07</ele>
        <time>2021-06-02T14:17:59.000Z</time>
      </trkpt>
      <trkpt lat="43.75444" lon="5.89032">
        <ele>311.26</ele>
        <time>2021-06-02T14:18:04.000Z</time>
      </trkpt>
      <trkpt lat="43.75446" lon="5.89049">
        <ele>311.32</ele>
        <time>2021-06-02T14:18:09.000Z</time>
      </trkpt>
      <trkpt lat="43.75449" lon="5.89065">
        <ele>311.32</ele>
        <time>2021-06-02T14:18:14.000Z</time>
      </trkpt>
      <trkpt lat="43.75455" lon="5.89075">
        <ele>314.3</ele>
        <time>2021-06-02T14:18:20.000Z</time>
      </trkpt>
      <trkpt lat="43.75464" lon="5.89084">
        <ele>313.62</ele>
        <time>2021-06-02T14:18:26.000Z</time>
      </trkpt>
      <trkpt lat="43.75473" lon="5.89087">
        <ele>313.28</ele>
        <time>2021-06-02T14:18:31.000Z</time>
      </trkpt>
      <trkpt lat="43.75483" lon="5.89086">
        <ele>312.35</ele>
        <time>2021-06-02T14:18:36.000Z</time>
      </trkpt>
      <trkpt lat="43.75493" lon="5.89082">
        <ele>313.32</ele>
        <time>2021-06-02T14:18:42.000Z</time>
      </trkpt>
      <trkpt lat="43.75503" lon="5.89081">
        <ele>313.38</ele>
        <time>2021-06-02T14:18:48.000Z</time>
      </trkpt>
      <trkpt lat="43.75512" lon="5.8908">
        <ele>315.04</ele>
        <time>2021-06-02T14:18:54.000Z</time>
      </trkpt>
      <trkpt lat="43.75501" lon="5.89086">
        <ele>319.99</ele>
        <time>2021-06-02T14:19:07.000Z</time>
      </trkpt>
      <trkpt lat="43.75484" lon="5.89087">
        <ele>319.83</ele>
        <time>2021-06-02T14:19:12.000Z</time>
      </trkpt>
      <trkpt lat="43.75466" lon="5.89076">
        <ele>322.26</ele>
        <time>2021-06-02T14:19:17.000Z</time>
      </trkpt>
      <trkpt lat="43.75457" lon="5.89049">
        <ele>319.51</ele>
        <time>2021-06-02T14:19:22.000Z</time>
      </trkpt>
      <trkpt lat="43.7545" lon="5.89021">
        <ele>316.45</ele>
        <time>2021-06-02T14:19:27.000Z</time>
      </trkpt>
      <trkpt lat="43.75439" lon="5.88998">
        <ele>316.26</ele>
        <time>2021-06-02T14:19:32.000Z</time>
      </trkpt>
      <trkpt lat="43.75419" lon="5.88988">
        <ele>312.42</ele>
        <time>2021-06-02T14:19:37.000Z</time>
      </trkpt>
      <trkpt lat="43.75395" lon="5.88988">
        <ele>310.59</ele>
        <time>2021-06-02T14:19:42.000Z</time>
      </trkpt>
      <trkpt lat="43.75372" lon="5.88992">
        <ele>310.32</ele>
        <time>2021-06-02T14:19:47.000Z</time>
      </trkpt>
      <trkpt lat="43.75349" lon="5.88994">
        <ele>309.33</ele>
        <time>2021-06-02T14:19:52.000Z</time>
      </trkpt>
      <trkpt lat="43.75336" lon="5.88976">
        <ele>308.58</ele>
        <time>2021-06-02T14:19:57.000Z</time>
      </trkpt>
      <trkpt lat="43.75327" lon="5.88937">
        <ele>307.39</ele>
        <time>2021-06-02T14:20:02.000Z</time>
      </trkpt>
      <trkpt lat="43.75321" lon="5.88886">
        <ele>306.03</ele>
        <time>2021-06-02T14:20:07.000Z</time>
      </trkpt>
      <trkpt lat="43.75325" lon="5.88831">
        <ele>305.33</ele>
        <time>2021-06-02T14:20:12.000Z</time>
      </trkpt>
      <trkpt lat="43.75332" lon="5.8879">
        <ele>305.27</ele>
        <time>2021-06-02T14:20:17.000Z</time>
      </trkpt>
      <trkpt lat="43.75327" lon="5.88756">
        <ele>305.33</ele>
        <time>2021-06-02T14:20:22.000Z</time>
      </trkpt>
      <trkpt lat="43.75321" lon="5.88725">
        <ele>306.08</ele>
        <time>2021-06-02T14:20:27.000Z</time>
      </trkpt>
      <trkpt lat="43.75313" lon="5.88694">
        <ele>306.33</ele>
        <time>2021-06-02T14:20:32.000Z</time>
      </trkpt>
      <trkpt lat="43.75305" lon="5.88662">
        <ele>307.08</ele>
        <time>2021-06-02T14:20:37.000Z</time>
      </trkpt>
      <trkpt lat="43.75292" lon="5.88636">
        <ele>307.28</ele>
        <time>2021-06-02T14:20:42.000Z</time>
      </trkpt>
      <trkpt lat="43.75279" lon="5.88611">
        <ele>307.33</ele>
        <time>2021-06-02T14:20:47.000Z</time>
      </trkpt>
      <trkpt lat="43.7527" lon="5.88579">
        <ele>308.27</ele>
        <time>2021-06-02T14:20:52.000Z</time>
      </trkpt>
      <trkpt lat="43.75262" lon="5.88547">
        <ele>310.06</ele>
        <time>2021-06-02T14:20:57.000Z</time>
      </trkpt>
      <trkpt lat="43.75256" lon="5.88516">
        <ele>311.32</ele>
        <time>2021-06-02T14:21:02.000Z</time>
      </trkpt>
      <trkpt lat="43.75248" lon="5.88488">
        <ele>310.39</ele>
        <time>2021-06-02T14:21:07.000Z</time>
      </trkpt>
      <trkpt lat="43.7524" lon="5.88459">
        <ele>311.08</ele>
        <time>2021-06-02T14:21:12.000Z</time>
      </trkpt>
      <trkpt lat="43.75235" lon="5.88435">
        <ele>317</ele>
        <time>2021-06-02T14:21:17.000Z</time>
      </trkpt>
      <trkpt lat="43.75226" lon="5.88408">
        <ele>318.84</ele>
        <time>2021-06-02T14:21:22.000Z</time>
      </trkpt>
      <trkpt lat="43.75218" lon="5.88382">
        <ele>320.27</ele>
        <time>2021-06-02T14:21:27.000Z</time>
      </trkpt>
      <trkpt lat="43.7521" lon="5.88358">
        <ele>322.13</ele>
        <time>2021-06-02T14:21:32.000Z</time>
      </trkpt>
      <trkpt lat="43.75202" lon="5.8833">
        <ele>322.33</ele>
        <time>2021-06-02T14:21:37.000Z</time>
      </trkpt>
      <trkpt lat="43.75194" lon="5.88297">
        <ele>312.08</ele>
        <time>2021-06-02T14:21:42.000Z</time>
      </trkpt>
      <trkpt lat="43.75194" lon="5.88282">
        <ele>308.28</ele>
        <time>2021-06-02T14:21:47.000Z</time>
      </trkpt>
      <trkpt lat="43.75194" lon="5.88268">
        <ele>307.39</ele>
        <time>2021-06-02T14:21:52.000Z</time>
      </trkpt>
      <trkpt lat="43.75194" lon="5.88248">
        <ele>303.34</ele>
        <time>2021-06-02T14:21:57.000Z</time>
      </trkpt>
      <trkpt lat="43.75194" lon="5.88232">
        <ele>303.33</ele>
        <time>2021-06-02T14:22:02.000Z</time>
      </trkpt>
      <trkpt lat="43.75188" lon="5.8822">
        <ele>304.33</ele>
        <time>2021-06-02T14:22:07.000Z</time>
      </trkpt>
      <trkpt lat="43.75181" lon="5.8821">
        <ele>306.26</ele>
        <time>2021-06-02T14:22:12.000Z</time>
      </trkpt>
      <trkpt lat="43.75173" lon="5.88201">
        <ele>305.41</ele>
        <time>2021-06-02T14:22:19.000Z</time>
      </trkpt>
      <trkpt lat="43.75164" lon="5.88194">
        <ele>305.15</ele>
        <time>2021-06-02T14:22:24.000Z</time>
      </trkpt>
      <trkpt lat="43.75154" lon="5.88186">
        <ele>305.29</ele>
        <time>2021-06-02T14:22:29.000Z</time>
      </trkpt>
      <trkpt lat="43.75146" lon="5.88174">
        <ele>306.08</ele>
        <time>2021-06-02T14:22:34.000Z</time>
      </trkpt>
      <trkpt lat="43.75149" lon="5.88149">
        <ele>302.61</ele>
        <time>2021-06-02T14:22:39.000Z</time>
      </trkpt>
      <trkpt lat="43.75132" lon="5.88122">
        <ele>303.34</ele>
        <time>2021-06-02T14:22:44.000Z</time>
      </trkpt>
      <trkpt lat="43.75113" lon="5.88098">
        <ele>302.34</ele>
        <time>2021-06-02T14:22:49.000Z</time>
      </trkpt>
      <trkpt lat="43.75095" lon="5.88077">
        <ele>302.09</ele>
        <time>2021-06-02T14:22:54.000Z</time>
      </trkpt>
      <trkpt lat="43.75082" lon="5.88055">
        <ele>303.28</ele>
        <time>2021-06-02T14:22:59.000Z</time>
      </trkpt>
      <trkpt lat="43.75068" lon="5.88032">
        <ele>303.34</ele>
        <time>2021-06-02T14:23:04.000Z</time>
      </trkpt>
      <trkpt lat="43.75054" lon="5.8801">
        <ele>303.34</ele>
        <time>2021-06-02T14:23:09.000Z</time>
      </trkpt>
      <trkpt lat="43.75037" lon="5.88013">
        <ele>299.61</ele>
        <time>2021-06-02T14:23:14.000Z</time>
      </trkpt>
      <trkpt lat="43.75026" lon="5.88035">
        <ele>298.64</ele>
        <time>2021-06-02T14:23:19.000Z</time>
      </trkpt>
      <trkpt lat="43.7502" lon="5.88046">
        <ele>301.07</ele>
        <time>2021-06-02T14:23:24.000Z</time>
      </trkpt>
      <trkpt lat="43.7502" lon="5.88043">
        <ele>295.34</ele>
        <time>2021-06-02T14:26:14.000Z</time>
      </trkpt>
    </trkseg>
  </trk>
</gpx>